GFSSE_sfc_30mbdewp_000.txt.gz
Dewpoint
65 64 68 67 69 70 70 70 70 70 70 69 69 70 70 70 69 69 68 67 67 67 68 68 68 66 66 65 67 68 69 69 68 68 67 66 65 66 66 66 64 59 65
66 64 68 67 67 69 70 70 70 70 69 68 68 67 67 67 67 68 67 68 67 66 66 67 67 67 66 67 70 70 69 68 68 67 67 66 65 65 65 65 64 62 65
66 64 63 66 65 67 68 69 70 69 69 69 67 67 68 66 65 65 65 66 67 66 66 67 67 68 68 69 69 69 68 67 67 67 66 59 59 64 65 65 65 64 64
65 63 62 66 66 66 66 66 67 68 68 66 67 67 67 66 61 59 66 65 65 66 67 67 66 66 67 67 68 69 67 67 67 66 61 56 55 63 65 65 65 64 63
64 64 64 67 66 66 65 66 66 66 66 66 66 67 67 66 66 63 67 66 66 66 67 67 66 67 67 67 67 68 67 67 67 64 55 56 55 64 66 66 66 65 65
64 63 66 66 66 66 64 64 66 66 65 65 65 66 67 66 66 65 65 66 65 65 65 65 66 66 65 65 66 67 67 67 66 58 55 58 58 65 66 66 66 65 64
63 63 64 67 66 66 65 64 65 65 64 65 66 66 67 67 67 67 66 65 66 65 65 65 65 65 64 64 65 66 67 67 61 54 55 56 58 65 65 65 65 64 63
61 63 64 66 67 66 66 65 65 65 65 65 65 66 66 66 66 66 67 67 67 66 65 65 65 64 63 64 64 65 65 66 60 54 55 55 61 65 65 65 64 63 63
60 60 62 62 63 65 64 64 65 64 64 65 65 65 66 66 66 66 65 64 65 65 65 64 64 63 62 62 64 64 64 64 58 55 55 54 63 64 65 64 63 62 63
57 58 60 61 61 62 61 60 60 62 63 64 65 65 63 64 65 65 63 63 64 64 64 64 63 63 62 62 62 62 62 63 60 56 55 55 61 64 64 64 62 62 63
52 53 60 61 61 60 57 55 60 61 61 61 62 63 62 62 62 63 59 59 62 62 63 64 63 63 62 62 61 60 61 59 59 57 55 57 59 60 63 63 62 61 62
45 45 51 58 59 58 54 55 61 62 61 61 61 61 60 62 61 61 59 59 57 57 56 63 62 61 60 57 56 53 53 54 56 55 54 58 60 60 60 62 61 61 61
41 42 45 50 55 57 57 57 59 62 60 58 59 59 61 59 59 60 59 58 57 56 57 56 61 60 60 59 57 57 56 56 57 57 53 57 60 61 60 61 61 61 60
39 39 40 47 52 54 53 53 54 52 52 53 57 59 60 60 59 59 59 58 56 56 56 57 58 58 60 60 60 59 57 57 56 55 52 51 58 60 61 60 61 60 60
35 37 36 41 46 48 50 49 48 47 46 47 49 53 54 56 58 58 55 56 55 57 57 57 55 57 59 60 60 59 58 57 56 55 55 52 55 58 60 60 59 61 59
31 32 33 35 40 41 45 45 43 41 39 39 43 48 51 52 56 58 56 55 57 59 59 58 58 57 58 59 59 59 58 57 57 57 57 54 52 52 56 60 60 60 60
27 29 29 30 35 36 39 36 34 33 32 35 41 47 49 49 52 53 51 51 51 56 57 59 59 60 59 59 57 56 56 57 58 57 56 55 53 50 51 57 60 60 61
24 24 26 22 30 31 32 30 29 31 31 34 40 42 43 43 44 45 46 48 49 50 51 51 50 52 56 58 57 56 55 54 56 57 56 55 54 49 44 51 57 60 60
23 22 25 27 27 27 28 30 33 34 30 32 35 35 37 36 37 35 37 40 40 39 42 42 43 48 48 50 52 55 56 56 56 55 55 55 54 53 48 41 52 56 60
25 23 25 26 28 28 27 28 29 30 31 30 29 31 33 33 32 30 32 35 32 30 29 31 31 33 38 46 44 49 56 56 57 56 56 55 55 55 54 52 42 51 59
26 24 24 25 27 26 26 25 25 25 28 29 28 29 32 28 29 29 27 28 29 30 32 30 27 26 28 35 33 42 46 55 55 55 55 55 55 54 53 52 48 43 52
26 25 23 23 25 25 23 24 24 24 24 24 27 31 31 31 30 27 27 26 29 26 27 29 29 26 23 28 30 29 40 46 52 53 54 55 54 53 53 52 51 44 44
29 27 26 23 23 24 24 24 24 25 26 25 25 26 30 33 33 33 31 30 29 30 27 28 28 28 24 23 28 31 26 36 41 46 51 54 54 54 53 52 52 47 43
30 30 28 24 23 23 26 22 24 21 19 20 24 25 28 31 33 34 34 34 35 33 30 28 25 27 27 25 22 23 34 28 25 25 39 43 53 54 53 54 52 51 47
30 31 30 25 24 23 26 28 26 25 23 24 26 28 29 30 32 32 33 35 36 35 33 33 33 29 28 27 25 23 22 24 25 30 25 28 43 46 52 53 53 53 53
29 31 31 28 25 25 27 28 28 26 26 25 25 25 24 25 25 27 29 30 31 32 32 32 33 33 32 30 28 26 23 22 20 19 28 29 26 32 43 49 52 52 52

GFSSE_sfc_30mbdewp_003.txt.gz
Dewpoint
62 64 67 67 68 69 70 70 70 70 70 69 68 68 68 68 68 67 66 67 67 66 66 66 67 67 66 66 66 67 68 68 68 67 67 66 66 66 67 65 64 62 67
64 64 67 66 67 69 69 69 70 71 69 69 67 67 66 67 65 65 66 65 64 64 65 65 66 66 66 67 68 67 67 68 68 68 67 66 66 65 66 66 66 63 66
64 62 61 64 65 67 69 69 69 69 70 69 68 68 66 65 64 66 65 64 66 65 64 65 66 66 66 67 67 67 67 68 67 67 66 60 60 65 65 65 65 65 65
64 62 60 64 65 66 67 67 68 68 68 68 68 68 66 66 62 63 61 58 62 66 66 64 64 65 66 66 67 68 67 66 67 67 61 57 59 65 65 64 65 64 65
62 61 63 66 66 65 65 66 66 67 66 66 67 67 66 67 62 61 60 62 64 67 66 65 64 66 66 66 66 67 67 66 66 64 56 54 54 64 65 64 65 65 64
64 64 65 66 66 65 62 64 66 65 65 65 66 67 66 66 64 60 61 65 66 66 66 64 64 66 65 65 65 66 67 67 66 60 53 56 56 66 65 66 66 64 65
63 65 65 67 67 66 64 62 64 66 65 65 66 67 66 66 66 66 66 65 64 65 64 65 65 65 64 64 64 65 66 67 63 56 52 53 56 66 65 66 66 66 65
59 62 64 65 66 65 65 65 64 64 65 65 65 65 65 66 65 65 65 66 66 65 65 65 65 64 63 63 64 64 64 66 61 55 51 52 62 65 65 65 65 64 64
56 58 59 60 63 64 62 61 62 63 63 64 65 65 65 66 65 64 63 62 63 63 63 63 64 63 62 63 63 63 64 64 60 59 52 52 63 65 64 65 65 64 64
57 56 57 58 58 60 60 58 60 61 62 63 64 64 63 64 64 61 60 59 59 58 57 61 62 63 62 62 63 63 62 63 60 56 56 55 62 63 64 64 64 64 63
52 54 59 59 60 58 54 53 61 61 60 61 62 61 60 61 62 60 59 58 58 58 57 57 54 60 62 61 62 62 61 56 56 58 59 59 60 60 60 63 62 63 63
45 46 50 58 60 58 53 52 58 60 58 58 59 60 58 59 60 60 60 60 59 58 57 54 54 53 60 58 59 59 52 50 55 55 54 58 59 59 59 61 62 62 63
42 43 47 54 58 59 56 56 60 60 59 58 58 57 59 57 57 58 60 59 59 57 57 56 55 55 54 55 58 59 52 52 52 53 54 57 60 60 60 59 61 61 62
39 41 44 53 55 55 53 53 55 54 53 53 56 57 56 55 58 57 58 57 58 58 57 56 55 56 55 55 55 58 59 58 58 59 57 54 59 58 58 60 60 61 61
37 39 41 47 51 53 51 50 49 47 46 46 47 51 50 50 54 54 53 53 54 55 57 57 56 55 58 58 58 57 58 59 59 58 56 54 53 54 54 56 60 60 60
33 37 40 42 45 46 48 48 44 42 41 40 43 47 51 50 52 52 52 52 52 56 58 59 59 58 58 58 57 58 59 59 59 57 56 56 55 55 53 52 57 59 60
32 34 35 37 40 41 42 38 34 34 36 39 43 46 46 46 48 45 44 45 47 51 54 54 53 56 58 59 58 57 57 57 58 58 57 56 57 54 54 53 53 59 60
30 30 31 22 32 34 34 33 30 32 34 38 41 42 42 42 42 42 41 41 42 42 44 46 48 50 52 55 54 57 57 56 54 55 57 57 56 55 53 53 53 51 59
29 28 29 27 29 31 31 29 33 35 31 34 36 36 38 36 36 33 35 37 36 33 33 32 32 37 40 44 49 47 50 56 55 55 56 57 57 56 54 51 52 52 54
29 28 28 28 28 29 29 31 31 31 32 33 32 32 35 33 31 30 31 34 33 30 31 33 31 29 30 32 37 35 41 54 57 56 57 56 55 56 55 54 49 51 52
29 29 27 28 28 28 26 26 27 29 30 30 30 31 32 29 31 31 29 29 31 29 31 33 32 30 28 28 31 32 30 37 48 55 57 56 55 55 55 56 56 52 47
30 29 27 27 27 28 26 26 26 27 26 28 29 31 33 32 31 30 29 29 28 29 31 31 31 30 29 28 26 27 28 30 35 45 50 54 54 55 55 55 55 55 51
32 31 30 27 26 28 26 24 26 27 28 26 26 29 33 34 33 32 32 31 31 32 30 30 30 30 28 30 30 26 24 26 33 28 37 42 52 55 55 54 54 54 53
33 33 32 30 28 27 28 25 25 23 23 23 24 24 24 28 32 33 32 30 30 31 31 32 30 32 32 30 31 29 31 28 25 27 27 29 40 43 52 56 53 53 54
31 34 34 32 30 27 26 29 28 28 28 25 25 26 28 29 30 31 31 30 31 31 31 34 35 35 33 33 32 31 31 30 30 28 26 26 29 37 49 48 51 55 53
30 34 35 34 32 29 27 27 31 31 30 27 27 28 29 28 28 27 26 28 29 29 29 31 34 34 34 34 34 33 31 30 28 28 27 27 25 29 32 39 47 52 55

GFSSE_sfc_30mbdewp_006.txt.gz
Dewpoint
62 63 66 66 69 69 70 70 71 70 70 69 69 68 68 68 67 67 66 65 65 64 64 67 67 66 65 66 66 67 67 68 67 67 67 66 66 66 66 66 67 66 68
62 62 64 65 67 69 69 70 71 71 69 69 69 68 67 67 66 66 66 64 64 64 61 64 64 66 66 67 67 67 67 68 68 68 67 66 66 65 66 66 64 64 68
62 61 59 64 64 66 68 69 69 70 68 68 68 67 67 67 67 66 65 63 65 60 59 64 66 64 66 66 66 66 67 68 68 67 67 65 65 65 65 65 64 66 66
62 61 62 65 65 64 65 66 68 68 68 67 67 66 67 66 65 66 62 57 62 62 61 63 66 66 65 65 66 67 67 67 67 67 65 63 62 65 63 64 65 65 66
62 62 64 65 65 63 64 65 66 66 67 67 67 66 66 67 65 64 64 63 64 66 67 65 63 66 64 64 65 66 66 66 67 66 63 59 61 65 64 63 65 64 64
62 63 65 66 65 63 61 64 65 65 66 67 67 67 68 66 63 61 60 61 65 66 64 62 60 64 65 63 64 65 65 66 66 64 62 57 57 66 65 65 64 62 63
62 64 64 65 66 66 64 65 65 66 65 65 66 67 66 66 67 66 66 65 64 64 59 60 59 62 63 65 64 65 66 66 65 63 60 57 62 66 65 66 66 66 65
61 63 64 65 65 65 64 64 63 64 65 65 65 65 66 66 65 65 65 65 65 64 63 62 63 63 63 63 63 64 64 65 63 62 59 53 62 66 65 66 66 65 65
55 57 61 64 64 64 63 62 63 62 63 65 65 64 65 66 65 64 64 63 61 62 63 63 63 63 63 63 63 63 63 63 63 61 59 58 64 65 65 66 66 66 65
56 56 57 57 64 63 60 59 60 62 62 64 65 65 65 65 63 62 61 61 60 61 59 58 57 62 62 62 63 62 62 62 62 60 58 61 62 64 65 65 65 65 64
51 53 58 59 60 59 59 59 61 61 62 63 62 63 62 63 62 61 59 59 59 58 57 55 53 54 57 59 62 62 61 60 57 58 58 60 62 62 63 65 64 65 65
44 45 50 56 59 60 56 53 62 61 61 61 61 61 61 60 61 61 60 60 59 58 57 56 55 54 53 53 56 61 59 56 53 56 59 59 60 60 60 62 64 64 64
43 45 48 54 59 60 58 60 60 59 60 59 59 59 60 58 59 59 59 60 59 57 58 57 56 55 53 55 55 55 58 59 58 54 53 58 59 59 59 60 64 63 64
38 42 45 54 56 57 57 55 57 55 55 55 56 57 57 57 57 57 57 56 57 57 57 57 56 54 54 54 55 55 56 58 59 58 58 58 58 60 58 59 61 63 63
36 40 43 49 53 55 53 53 52 50 49 49 51 52 54 53 55 55 54 54 55 55 56 57 56 55 55 56 56 56 56 56 58 59 58 58 56 56 58 58 60 61 62
34 38 42 45 49 50 52 51 50 47 46 45 47 50 52 53 54 54 53 52 52 53 55 56 57 57 57 58 57 58 58 55 56 58 58 58 56 55 55 55 57 60 61
34 36 39 42 46 47 48 47 46 42 41 43 47 48 48 49 48 46 46 46 48 50 51 52 53 53 55 57 58 58 58 58 58 59 59 59 57 56 55 55 56 56 60
33 34 36 33 39 41 42 39 38 38 40 42 46 46 45 44 44 44 43 44 43 43 43 41 41 42 48 50 54 54 54 55 57 57 57 58 57 57 57 56 55 55 56
33 33 33 31 31 36 36 37 36 38 38 40 43 43 42 40 38 37 39 42 40 37 36 36 36 35 34 35 36 43 43 46 49 54 56 56 58 57 56 56 55 55 54
34 33 33 33 33 35 35 35 37 38 38 37 38 39 38 37 35 35 37 37 37 35 36 37 37 37 37 35 32 32 37 39 47 54 55 57 57 57 57 56 56 54 53
33 33 32 31 33 33 32 32 33 34 35 37 37 36 37 36 36 35 35 34 36 35 36 36 37 36 35 37 35 32 32 33 36 38 49 55 57 57 57 56 56 55 50
33 34 33 32 32 33 32 33 32 34 34 35 35 36 35 37 34 35 36 33 34 34 35 37 38 35 36 34 35 34 31 30 33 33 36 42 47 54 55 56 55 55 55
35 36 35 33 32 33 32 32 33 33 32 31 31 34 37 36 38 37 37 36 35 36 36 37 35 35 34 36 34 34 32 30 32 31 32 32 35 41 49 52 56 56 55
35 38 37 36 34 32 35 31 31 30 29 29 30 31 32 39 38 36 36 37 37 36 35 37 36 39 37 35 36 36 35 34 32 30 32 31 30 30 39 48 50 53 55
32 38 38 38 37 35 34 34 32 32 32 32 32 32 32 33 33 33 33 34 36 37 37 37 36 36 37 37 36 36 35 35 34 33 31 30 31 31 31 43 49 49 48
34 34 38 38 37 37 36 35 35 32 33 34 33 32 32 32 32 33 32 32 32 32 32 32 32 32 32 33 34 34 33 32 31 30 29 29 29 30 29 30 43 45 47

GFSSE_sfc_30mbdewp_009.txt.gz
Dewpoint
63 64 66 68 69 70 70 70 71 70 70 69 68 68 68 68 66 66 66 65 63 61 62 63 65 65 66 66 67 68 67 67 68 68 67 66 66 66 66 68 67 67 68
62 63 63 65 67 69 69 70 69 69 70 69 68 68 67 68 67 67 66 62 60 63 61 61 66 66 65 64 65 66 67 67 66 66 66 66 66 65 66 65 64 65 67
61 61 64 64 65 66 68 69 69 68 68 69 68 68 67 67 67 66 66 66 66 62 61 63 65 65 65 66 63 64 66 67 67 66 66 65 65 65 66 63 66 66 66
61 63 64 64 64 65 66 67 68 68 67 67 68 68 67 67 66 65 65 62 62 62 62 65 66 64 64 66 64 64 65 66 67 67 66 65 64 66 64 63 65 66 66
62 64 64 64 63 63 66 67 67 67 66 66 67 67 68 66 64 64 64 64 64 64 65 63 62 65 66 65 65 64 63 65 66 66 65 63 61 64 63 64 64 66 66
63 64 65 65 64 63 66 67 66 66 67 66 67 68 67 66 64 63 61 62 64 66 66 65 60 62 65 63 59 60 64 65 65 65 64 62 63 65 63 64 64 64 65
64 64 65 65 65 65 64 64 65 65 65 66 67 67 67 67 66 64 64 65 65 63 63 63 62 59 60 64 65 64 65 65 65 64 63 61 63 66 65 64 64 64 64
63 63 64 64 64 64 63 62 63 64 65 65 65 67 66 66 67 66 66 66 66 63 61 60 60 59 56 58 63 64 64 65 65 64 62 60 59 65 65 66 65 66 65
63 64 64 64 64 63 62 62 61 62 64 65 65 65 66 65 64 64 64 63 64 64 64 64 64 63 63 63 63 63 63 63 63 62 61 59 64 65 66 66 66 66 65
57 59 63 64 63 61 60 60 61 61 62 64 65 65 64 63 62 62 61 62 62 62 61 60 62 63 62 62 62 62 63 62 62 61 60 60 64 63 64 65 66 66 66
53 57 56 58 62 61 58 59 60 61 62 63 63 63 64 63 62 59 60 60 59 59 57 56 56 59 57 56 58 60 61 60 59 58 59 61 62 62 64 64 66 66 65
45 51 54 56 58 59 59 60 60 62 62 62 62 61 61 62 61 59 59 59 59 58 58 57 55 54 53 54 55 60 58 57 57 57 57 60 61 61 62 65 64 65 65
44 47 52 57 59 59 59 61 61 60 60 59 59 60 58 59 59 60 60 60 59 57 57 56 56 55 53 53 54 54 55 55 56 57 58 59 60 60 61 62 63 65 64
43 46 52 55 57 56 55 58 58 58 57 58 58 58 57 58 57 57 56 57 56 57 56 56 56 55 52 53 54 55 55 55 55 57 57 58 58 59 59 59 61 63 64
38 43 49 53 55 55 53 52 51 50 50 51 52 52 54 56 56 56 55 53 55 55 56 56 56 55 54 54 55 55 55 55 55 56 57 59 59 58 58 59 59 60 62
34 42 46 49 51 52 53 51 49 47 46 46 49 51 52 53 53 54 54 53 52 53 54 54 53 53 55 57 57 57 57 57 56 56 56 57 58 59 58 58 58 59 60
34 40 42 44 48 48 51 49 47 45 44 45 48 48 47 51 48 47 46 47 47 49 51 49 50 50 50 52 53 56 56 56 58 58 57 58 58 59 58 57 57 57 58
35 37 39 40 45 45 47 46 45 40 40 44 47 46 45 44 46 45 45 43 39 42 42 35 37 35 37 36 38 41 53 50 48 49 55 58 59 58 59 58 57 57 56
34 35 36 32 38 39 38 40 39 39 39 43 47 45 44 42 39 38 42 40 37 40 37 36 35 36 34 35 34 33 33 34 38 41 46 53 57 58 58 58 58 58 57
33 33 34 32 30 36 36 35 38 37 36 40 44 43 42 40 37 35 40 40 37 37 38 36 35 37 37 34 36 35 34 37 36 37 44 47 51 56 58 57 57 57 57
34 32 31 32 33 34 32 32 33 35 36 37 36 40 40 39 36 34 35 38 38 36 37 37 37 35 33 36 34 34 33 33 33 33 38 39 45 38 56 57 57 56 55
32 33 32 32 32 33 32 33 32 32 34 35 36 37 38 38 36 35 34 35 34 34 33 34 39 36 37 35 35 33 30 32 32 34 33 34 34 41 35 42 53 55 56
33 33 34 33 33 34 32 32 33 35 35 33 34 36 37 36 37 37 36 37 36 35 34 36 35 34 33 36 35 34 32 30 33 33 33 33 34 34 36 38 46 51 49
34 36 36 35 35 34 35 31 30 30 30 30 30 31 35 37 38 38 37 38 38 37 36 38 38 37 36 35 37 36 36 36 34 32 33 33 33 33 35 37 43 47 51
33 36 38 38 37 37 36 36 32 31 33 32 32 32 35 38 40 39 38 37 37 37 34 33 32 31 34 34 33 34 34 34 35 32 29 30 31 31 32 34 37 44 49
35 35 37 37 36 37 37 37 37 34 33 33 33 33 35 36 33 32 31 31 30 29 28 29 28 26 25 28 30 31 31 29 28 29 28 28 27 29 29 29 31 36 40

GFSSE_sfc_30mbdewp_012.txt.gz
Dewpoint
63 66 68 69 69 70 70 69 70 70 69 68 68 68 68 67 68 68 68 68 67 67 66 65 65 66 66 65 65 65 65 66 67 67 67 67 66 67 67 68 67 68 69
62 64 65 67 68 69 70 67 69 70 69 68 68 67 67 67 67 67 66 67 67 64 62 65 66 65 65 66 65 65 65 65 66 66 66 67 66 66 67 66 66 68 68
59 62 63 65 67 68 69 69 68 69 69 69 68 67 67 67 67 66 66 66 63 63 63 65 66 66 65 65 64 63 64 62 64 66 66 65 65 66 66 64 65 68 68
61 63 64 65 66 67 67 67 67 67 67 68 68 68 68 67 66 66 64 62 61 62 65 66 65 64 65 65 64 64 63 64 64 65 66 66 64 64 65 64 66 67 65
62 64 63 62 65 67 66 66 66 66 66 67 68 68 67 67 66 65 64 64 64 64 64 64 65 66 65 62 58 57 59 62 64 65 65 64 63 63 64 64 66 66 65
62 63 63 61 63 66 66 66 66 66 66 66 68 68 67 66 65 63 61 62 64 66 67 65 65 65 62 58 59 59 58 61 65 65 64 64 63 63 64 65 64 66 66
62 63 63 62 63 63 65 66 65 65 66 66 66 66 67 67 66 66 65 64 65 65 64 64 65 65 64 60 58 59 59 61 62 65 64 63 61 64 65 65 64 65 65
61 63 64 63 62 62 62 63 64 64 65 65 66 66 66 66 66 66 66 66 65 63 60 60 60 61 59 63 63 62 62 63 64 65 63 62 60 61 64 65 64 64 64
63 63 64 64 64 62 61 61 61 63 64 65 65 66 65 64 64 64 64 64 64 65 65 64 61 61 63 62 63 63 63 63 63 62 61 60 59 62 64 64 65 66 65
63 63 63 63 63 62 61 61 61 61 63 64 64 64 63 63 63 62 63 63 63 62 61 63 63 63 62 62 62 62 62 62 60 60 60 59 60 62 64 62 64 65 66
61 62 63 63 62 60 58 59 61 61 61 63 63 64 62 62 61 60 61 61 60 59 58 57 57 58 56 57 58 60 60 60 58 56 56 58 59 63 62 62 62 63 65
53 54 56 58 60 61 59 59 60 61 61 61 62 63 63 62 60 60 59 59 59 58 57 57 56 55 53 53 54 56 58 57 56 57 57 58 60 60 60 62 62 62 64
47 52 55 56 59 58 59 59 61 61 61 61 61 60 61 60 60 59 59 60 58 58 57 56 55 54 53 53 53 53 54 54 55 56 56 57 59 60 61 62 62 62 64
45 49 54 56 57 55 59 61 60 59 60 59 59 58 58 58 58 58 58 58 57 56 56 56 55 55 53 51 52 53 54 54 55 55 56 56 57 58 59 59 61 62 62
43 48 52 55 56 54 53 52 52 53 54 53 53 53 56 57 56 57 56 53 54 55 55 55 56 55 54 54 55 55 55 55 55 55 56 56 57 58 58 59 59 60 61
41 46 51 52 53 54 52 51 48 48 47 49 51 51 53 55 55 55 54 54 53 53 52 51 51 50 50 52 53 55 57 57 57 57 56 57 57 57 57 57 58 59 59
39 43 47 49 50 49 51 50 48 45 44 47 49 49 50 51 48 52 51 51 50 51 51 48 46 43 41 41 38 41 50 52 47 48 53 57 58 58 58 58 59 59 59
36 42 44 46 48 48 50 48 47 45 44 45 47 47 46 47 47 45 45 44 42 46 45 36 36 34 35 35 35 36 39 38 37 39 41 47 55 58 59 59 59 59 59
36 40 39 41 46 44 46 45 42 42 39 42 47 47 45 44 43 41 45 42 38 40 38 35 35 35 34 34 34 35 35 33 35 37 36 42 50 52 54 57 58 59 59
36 37 36 32 39 39 38 38 38 39 38 40 45 46 45 43 41 38 41 41 38 38 37 37 35 37 36 34 35 33 34 33 34 34 34 39 41 46 41 53 55 58 58
33 33 33 31 30 35 34 34 33 35 36 37 39 45 44 42 40 37 36 40 39 37 37 37 36 36 34 36 34 34 33 34 34 31 36 36 37 37 43 38 43 53 57
31 31 31 31 32 33 32 32 32 32 33 35 36 39 43 42 40 36 35 36 38 38 37 37 38 36 36 37 34 34 30 31 31 34 34 34 35 37 36 37 40 44 50
31 32 32 32 32 33 33 33 33 34 35 34 34 36 38 41 40 37 36 36 35 36 33 34 36 35 33 37 35 34 31 28 33 32 34 35 34 35 36 37 37 40 47
32 34 34 35 34 34 34 33 31 30 30 31 31 33 36 39 39 39 38 37 37 38 37 38 37 37 36 33 35 37 36 36 30 28 32 32 34 32 34 33 35 37 42
33 33 36 37 36 36 37 36 34 32 32 32 33 32 32 35 38 39 39 39 40 39 35 30 28 26 29 28 28 29 28 29 32 28 24 22 26 29 32 34 34 33 33
34 35 37 38 37 38 38 38 37 36 35 34 34 34 33 36 38 39 38 35 32 31 30 30 31 30 30 30 30 29 29 27 26 27 26 25 24 25 26 28 28 27 29

GFSSE_sfc_30mbdewp_015.txt.gz
Dewpoint
62 66 69 69 69 69 69 70 69 69 68 68 68 68 68 69 68 68 68 68 68 68 66 67 67 66 66 63 65 64 64 65 66 67 68 67 67 66 66 66 68 67 67
63 65 68 68 69 69 68 69 70 69 68 68 68 68 67 67 68 67 68 66 65 63 64 66 66 66 65 65 65 65 64 63 63 64 66 67 67 67 67 67 66 68 67
62 63 65 67 69 69 68 68 69 70 69 69 67 68 68 67 67 67 66 65 63 63 64 66 66 67 66 66 65 65 64 64 64 64 65 65 65 66 66 66 65 66 67
62 63 64 66 67 67 67 67 68 68 68 68 68 68 67 67 67 66 64 62 61 63 65 65 66 66 66 66 63 61 62 63 64 65 66 64 64 64 65 65 65 66 66
62 62 63 65 66 66 66 66 66 66 67 68 68 68 67 67 66 66 64 64 64 64 64 65 65 64 66 64 62 61 61 63 65 65 65 65 64 63 63 64 65 66 66
61 61 61 64 65 65 65 65 65 65 65 67 68 68 67 66 64 61 61 63 65 65 66 64 65 66 64 62 60 62 59 60 63 64 65 64 64 63 64 65 64 65 65
61 62 61 62 64 65 65 64 64 65 65 66 66 67 67 66 66 66 65 62 65 65 65 65 64 65 64 61 59 59 60 59 62 63 64 64 63 64 64 65 63 65 65
60 62 63 62 61 61 62 63 64 64 65 65 65 66 67 66 66 66 65 66 65 62 60 60 60 63 62 61 63 62 62 62 64 64 63 62 62 62 62 64 63 65 65
62 62 63 63 63 61 61 61 63 64 64 65 65 65 64 64 64 65 65 65 65 65 65 63 60 60 61 62 62 63 63 63 62 61 60 60 60 61 62 64 64 64 65
61 62 62 62 62 61 61 61 61 63 64 64 65 64 63 63 62 63 64 63 63 62 62 63 63 62 61 61 61 61 61 61 59 58 57 56 60 60 62 64 64 64 64
62 62 62 62 62 60 59 59 61 61 62 64 64 64 63 62 61 60 61 61 60 59 58 57 57 56 55 54 55 57 60 59 57 57 56 57 60 61 62 63 62 61 63
61 61 62 62 62 61 58 58 60 61 62 62 62 63 62 60 59 60 59 58 59 58 58 57 57 55 54 53 53 53 54 54 54 55 56 57 58 61 61 62 61 61 61
58 56 59 59 60 60 60 58 59 60 61 61 61 61 61 61 60 59 59 59 58 57 56 55 54 54 51 50 51 52 53 53 54 55 55 56 56 57 58 61 61 62 62
50 52 54 57 56 55 59 59 60 60 60 59 59 59 59 58 59 58 58 58 57 56 55 55 55 55 54 53 54 54 54 55 55 55 55 56 57 58 58 58 60 60 61
46 49 53 56 56 54 58 56 58 57 59 58 57 55 57 57 56 56 56 55 54 55 55 55 55 54 54 53 54 54 54 56 56 56 56 54 54 54 58 59 58 58 59
44 47 52 54 55 53 52 51 51 51 52 52 52 52 54 56 55 55 55 53 54 54 53 51 49 47 47 48 47 47 51 55 52 50 48 49 50 52 54 55 58 59 58
43 46 51 52 54 53 51 51 48 47 47 47 50 51 52 53 52 54 54 53 52 51 50 48 45 39 37 37 35 37 44 46 39 40 40 43 48 52 55 57 53 55 59
41 44 49 49 50 49 51 50 49 47 45 45 48 49 48 50 49 48 48 49 48 49 47 37 36 34 34 35 34 35 35 35 34 36 37 40 45 51 53 50 53 55 57
38 43 45 46 48 48 49 49 47 45 44 43 46 47 47 46 47 46 45 45 42 42 43 36 35 35 33 33 33 35 34 33 33 35 34 37 38 43 44 47 44 48 50
38 42 41 41 46 46 43 42 41 40 40 40 41 46 47 46 45 42 43 44 40 39 39 37 35 36 35 34 34 34 34 34 34 34 33 37 37 39 38 45 39 43 47
38 38 36 33 40 39 37 35 35 35 36 38 38 42 46 46 44 41 40 42 40 37 36 37 36 34 35 36 34 33 33 34 33 32 35 34 35 37 38 38 39 41 44
34 34 34 32 31 33 34 33 33 33 34 36 37 38 41 44 44 42 38 39 40 38 37 37 36 36 36 37 32 34 30 31 31 33 33 35 34 37 37 36 38 37 41
31 31 32 32 32 33 33 33 33 34 34 34 34 35 37 43 44 43 39 37 39 40 37 37 37 36 33 36 36 33 30 27 32 31 30 32 34 32 33 35 33 34 37
31 32 33 33 34 34 34 34 32 31 31 31 32 33 35 38 41 43 41 38 37 38 38 37 38 37 36 34 35 37 32 34 23 17 27 27 24 28 30 31 33 35 36
32 33 35 37 38 38 38 37 36 36 35 35 35 34 34 35 39 41 41 40 39 39 38 37 34 30 29 28 27 27 28 30 31 27 18 18 23 25 27 29 31 32 31
34 35 37 37 37 39 38 38 38 38 38 38 38 37 37 37 36 39 40 40 38 34 32 32 32 32 32 32 32 32 31 27 24 25 25 23 25 26 28 30 30 30 31

GFSSE_sfc_30mbdewp_018.txt.gz
Dewpoint
62 67 69 69 69 69 70 69 69 68 68 67 67 67 67 67 67 66 67 67 68 67 67 67 67 66 64 64 66 65 65 65 66 66 66 66 66 66 66 68 67 67 67
62 66 68 69 69 69 70 70 69 69 68 68 67 66 67 67 67 66 66 66 65 64 66 66 66 66 65 65 65 64 64 65 65 66 67 67 67 66 66 66 67 67 66
62 65 67 68 69 68 69 69 70 70 69 68 68 67 67 67 68 67 66 64 62 64 64 66 66 66 66 65 65 65 64 63 63 64 66 65 65 66 66 66 66 67 66
61 63 65 67 67 67 67 68 68 68 69 69 68 68 67 67 67 66 64 61 61 64 64 65 65 66 65 66 64 63 63 64 65 65 65 64 63 64 65 66 65 66 66
61 62 65 66 66 66 65 65 66 67 68 68 68 68 68 67 67 65 65 64 64 64 64 64 65 65 66 65 63 64 63 63 64 64 64 64 64 63 65 64 65 66 66
60 61 64 64 64 64 64 64 64 65 66 67 68 67 67 66 64 62 61 62 64 65 65 64 65 66 65 64 61 61 60 59 61 62 64 64 63 63 64 65 64 64 66
59 60 62 64 64 64 64 63 64 64 65 65 66 67 66 67 67 66 64 62 65 65 64 66 64 65 65 63 62 62 62 62 63 64 63 63 63 64 64 64 64 63 65
59 61 61 62 62 63 63 63 64 64 65 65 65 66 67 66 66 65 66 66 64 62 61 61 60 64 62 60 60 63 63 63 63 62 62 61 62 62 63 63 64 62 64
61 61 61 62 62 61 61 62 63 64 64 65 64 64 63 64 64 65 65 65 64 64 64 63 62 63 63 62 62 62 62 61 59 58 58 58 61 61 62 62 64 64 63
61 61 61 61 61 60 59 61 61 62 64 64 64 63 63 62 62 63 62 62 61 61 61 61 59 58 58 57 58 60 60 58 57 56 56 58 59 62 62 62 62 65 64
60 61 61 61 61 60 58 59 61 61 62 64 64 63 62 61 60 60 61 60 60 59 58 58 57 56 54 54 55 55 56 55 54 54 55 57 57 59 62 62 63 64 63
60 61 61 61 61 60 58 57 59 60 61 62 63 62 61 60 59 59 59 59 59 59 58 57 56 54 52 51 51 52 53 53 54 54 54 57 57 58 58 60 62 62 62
60 61 61 61 61 61 60 58 58 60 60 60 60 62 61 61 59 59 58 58 57 57 55 55 54 54 51 51 53 53 54 55 55 55 56 57 58 59 59 58 59 61 62
58 59 59 58 58 58 59 59 58 59 60 60 60 59 60 60 59 58 57 58 57 56 54 54 54 55 53 53 54 53 53 54 55 55 55 53 51 51 56 59 59 59 59
55 53 53 56 57 55 58 58 59 59 59 59 58 58 58 58 57 57 57 56 56 55 54 54 54 53 52 50 51 52 53 55 52 50 47 46 49 48 51 53 57 58 59
50 50 52 55 56 54 56 56 57 56 56 56 56 54 54 56 56 55 55 54 53 54 54 51 48 45 44 45 39 40 43 52 41 40 40 41 47 51 53 51 52 53 55
46 47 50 53 55 53 52 51 51 51 51 51 52 52 52 54 55 55 54 53 53 53 51 48 47 40 37 37 35 36 40 40 37 37 38 40 42 48 48 49 43 44 48
44 45 49 52 53 53 52 51 50 48 47 46 48 49 50 51 51 52 53 52 52 51 50 44 37 34 34 34 34 34 35 35 34 35 35 38 38 42 42 45 44 42 43
42 44 47 49 49 49 49 50 49 48 47 45 45 47 48 48 50 48 48 49 49 47 48 42 36 34 33 33 33 34 34 34 33 34 34 36 36 38 39 43 41 42 44
38 42 45 46 47 47 47 46 44 43 42 42 42 44 46 47 47 47 46 46 45 43 42 40 35 36 34 33 33 34 34 34 34 34 32 37 35 37 37 39 38 39 40
36 40 42 41 41 44 42 39 37 36 37 38 38 40 42 45 46 46 44 44 44 42 40 39 36 34 35 37 34 33 33 34 34 34 34 33 35 35 37 36 37 38 36
36 39 39 37 34 39 39 35 34 34 34 36 37 37 39 42 45 45 44 42 43 42 40 38 36 35 35 37 32 33 29 30 32 33 33 34 32 37 34 33 35 33 34
34 35 35 34 34 33 33 34 33 34 34 33 33 34 34 37 40 43 44 42 41 42 40 38 37 36 33 36 36 31 30 28 30 30 32 28 33 28 32 31 29 32 33
31 32 33 34 35 36 36 35 35 34 34 34 34 35 35 36 37 40 43 43 41 40 40 39 38 38 36 34 37 37 33 32 20 18 23 29 22 25 25 28 30 30 32
33 35 37 38 39 39 39 39 38 37 38 39 39 38 39 38 38 38 40 42 42 40 40 39 38 37 35 35 27 30 28 30 30 23 22 20 24 24 26 28 30 32 33
38 38 39 39 39 39 39 40 39 39 39 38 37 38 39 40 39 38 39 41 40 37 35 33 34 33 33 34 34 34 32 31 29 29 28 28 25 25 27 28 30 30 31

GFSSE_sfc_30mbdewp_021.txt.gz
Dewpoint
62 66 69 69 69 69 69 69 69 69 68 68 69 68 68 67 66 66 66 65 67 67 68 68 67 66 64 65 66 65 66 66 65 66 66 67 66 66 68 68 67 65 68
63 67 68 69 68 69 69 68 68 68 68 67 67 67 67 66 66 66 66 66 66 66 66 66 67 66 65 65 64 64 65 65 65 67 67 67 67 66 67 67 66 66 68
63 65 67 68 68 68 69 70 69 69 68 67 67 67 67 67 66 66 65 62 63 64 65 65 65 66 66 64 65 64 64 64 64 65 66 61 62 66 66 66 67 67 67
61 64 66 67 67 67 67 68 69 69 69 68 68 68 67 67 67 66 63 62 63 64 63 64 65 66 66 65 64 64 65 65 65 65 61 61 61 64 65 66 66 67 66
59 62 65 66 66 66 66 66 67 68 68 68 68 68 68 68 67 65 64 63 63 64 64 64 65 65 66 65 63 61 60 60 62 62 63 62 60 63 64 64 64 65 65
59 61 64 65 65 64 64 65 65 66 67 68 68 67 67 66 65 63 63 63 64 65 66 65 65 66 64 62 62 61 61 61 62 60 62 63 63 63 64 65 64 64 64
58 60 63 64 64 64 64 64 64 64 64 65 67 67 67 67 66 66 63 64 65 64 63 64 64 65 64 61 61 63 62 63 61 62 63 63 63 64 64 64 64 63 63
56 59 61 63 64 64 63 63 64 64 64 64 65 66 66 65 65 65 65 65 64 64 64 61 62 62 62 63 63 63 62 62 61 60 60 59 61 62 62 64 63 64 62
59 59 60 61 61 61 61 62 63 63 64 64 64 63 63 64 64 64 65 64 64 64 64 64 63 62 61 60 61 61 60 59 59 57 56 58 60 62 62 62 64 63 63
60 60 61 62 61 60 60 60 61 63 64 64 64 62 62 62 63 62 63 62 62 61 61 61 59 58 58 57 57 59 58 57 56 55 55 56 58 59 62 64 64 63 61
60 61 61 61 61 60 58 60 60 61 63 64 63 62 61 61 60 60 61 60 60 59 58 58 57 56 55 55 55 54 53 53 54 54 54 57 58 59 60 61 63 63 63
60 60 61 62 62 61 59 59 60 61 61 62 63 62 62 61 60 59 59 59 59 59 58 57 56 54 51 51 52 54 53 55 54 54 54 58 58 59 59 59 60 62 62
60 61 62 62 63 63 62 59 59 60 61 62 62 63 62 61 61 60 59 59 59 58 56 55 55 55 55 55 55 55 55 55 55 55 56 53 52 54 57 59 59 59 60
59 61 62 62 62 62 61 61 59 59 60 61 61 62 62 62 62 61 59 59 59 58 56 56 56 56 55 54 54 54 54 55 54 52 47 48 48 49 52 55 58 59 59
58 59 60 59 58 58 58 59 60 60 61 61 61 61 61 60 60 60 59 58 58 58 56 55 55 54 52 50 51 50 50 54 46 40 38 47 50 50 52 53 54 55 56
56 58 56 55 57 57 57 59 59 60 60 60 60 59 59 59 58 57 57 57 56 56 55 56 53 47 45 45 40 41 43 49 39 40 38 41 52 47 48 46 45 47 48
53 54 53 54 56 57 55 56 56 56 56 57 57 58 56 56 56 56 56 56 55 55 56 54 50 47 41 40 38 39 42 43 39 39 40 40 42 45 45 48 43 43 45
52 49 51 51 54 56 54 53 53 51 51 51 51 52 53 54 54 54 54 54 55 55 54 52 49 43 38 36 36 36 36 37 38 38 36 37 38 36 42 43 42 43 42
47 48 48 51 52 53 53 52 52 52 51 50 49 48 50 51 52 52 51 51 54 54 53 52 47 42 37 35 35 36 37 35 36 33 35 37 37 37 35 40 40 41 40
45 47 48 50 50 51 50 50 49 48 47 47 46 45 47 47 50 50 49 50 50 50 50 50 48 43 38 36 33 32 37 36 36 36 35 34 34 38 37 38 36 32 36
40 44 45 46 48 47 46 44 42 41 40 40 40 42 43 43 46 48 47 48 49 47 47 48 46 44 39 39 36 35 36 38 38 36 36 35 33 33 38 36 32 30 26
38 41 43 43 39 38 41 39 38 37 37 37 38 40 41 41 43 44 46 45 46 46 46 46 45 41 39 39 34 34 31 32 35 36 35 34 37 33 36 29 31 25 26
37 37 36 36 37 38 39 37 38 39 39 38 38 38 39 41 41 42 43 44 44 45 44 45 44 42 39 38 38 33 32 30 31 34 36 34 33 35 29 28 24 26 24
37 40 40 41 40 40 41 40 40 39 38 38 39 38 40 41 41 42 42 42 43 44 43 43 43 43 41 38 38 37 37 35 31 29 30 31 32 27 27 26 27 26 26
41 41 42 41 41 41 41 42 40 38 38 39 39 39 38 39 41 42 41 41 42 43 43 43 43 42 40 39 37 37 37 33 31 28 28 27 24 26 26 28 29 28 29
41 41 42 41 40 41 41 42 42 39 38 37 37 36 35 37 40 40 39 41 41 41 40 39 38 39 37 37 35 34 33 32 30 28 28 28 29 31 28 27 27 27 26

GFSSE_sfc_30mbdewp_024.txt.gz
Dewpoint
60 65 69 69 69 69 68 67 67 67 69 69 68 68 68 67 67 67 67 67 67 68 68 67 67 65 64 65 65 66 66 66 66 67 67 67 66 66 68 67 66 62 67
61 64 68 68 68 69 68 67 67 68 67 68 68 67 67 67 67 67 67 67 67 67 66 66 67 66 65 64 64 64 64 64 65 66 66 66 66 66 67 67 67 65 67
58 62 65 68 68 69 69 69 69 68 68 67 67 67 67 67 67 66 64 63 64 64 64 64 65 65 66 65 65 65 65 65 65 65 63 56 56 66 67 66 67 67 67
57 60 63 67 67 68 68 69 70 69 69 68 66 67 67 67 67 65 63 65 64 64 63 64 65 66 67 66 65 64 64 63 64 63 60 56 55 64 65 66 66 66 66
56 59 64 66 66 66 66 67 68 68 69 68 68 68 68 67 66 65 64 64 64 65 65 65 66 66 65 63 62 60 59 60 59 59 57 58 57 62 64 65 64 65 65
52 56 63 65 64 64 64 64 65 67 68 68 68 67 66 65 64 63 62 62 65 65 65 65 66 65 63 62 62 62 61 60 59 56 56 59 60 65 64 64 64 64 64
51 53 56 63 64 64 63 64 64 64 64 66 67 67 67 67 66 66 63 65 64 63 62 62 63 64 62 61 62 63 63 62 57 57 58 59 60 62 64 63 64 64 64
50 54 55 63 64 63 63 63 63 64 63 65 65 65 65 65 65 65 65 65 64 64 62 62 62 63 63 63 63 62 62 61 59 58 57 58 61 63 62 63 64 63 64
51 53 55 57 60 62 62 63 63 64 64 64 63 63 63 64 64 65 64 64 64 64 64 63 62 62 61 60 61 60 60 58 57 56 55 55 59 61 62 63 64 64 64
55 55 57 58 58 58 58 60 62 63 64 64 63 62 62 62 62 63 63 62 62 62 62 61 59 59 58 57 57 58 57 57 56 55 54 55 58 59 61 63 63 63 61
56 59 59 58 60 59 57 59 60 62 63 63 62 62 61 58 58 59 60 61 60 59 59 58 57 56 55 55 55 54 53 51 53 53 53 56 58 59 60 61 62 63 63
55 57 59 61 61 61 56 58 59 59 58 59 59 60 58 60 59 57 59 60 59 59 58 57 55 52 51 48 48 52 48 51 50 50 51 57 56 57 59 60 60 61 62
54 56 59 62 63 61 56 55 54 55 57 59 61 61 60 60 59 59 58 58 58 58 54 53 52 48 50 50 48 50 49 50 47 47 52 50 50 52 54 58 60 60 60
51 54 59 61 62 60 54 53 54 54 56 57 58 62 60 58 57 58 56 56 56 54 55 53 50 53 53 51 49 49 49 48 46 46 46 45 48 48 52 55 57 58 59
49 52 58 61 60 54 57 55 57 57 56 57 58 59 60 57 56 56 55 54 53 52 52 51 51 51 50 48 45 45 43 45 47 40 39 43 50 51 51 51 52 54 55
51 54 58 59 56 54 54 56 55 56 55 57 55 55 60 59 55 53 51 49 48 49 49 50 50 49 45 43 41 39 37 40 39 37 33 41 51 47 48 46 47 47 48
50 54 57 57 54 54 53 53 53 51 55 51 50 54 56 57 53 53 48 47 45 47 51 52 51 50 47 42 38 37 37 41 37 36 36 36 39 42 49 44 44 45 46
53 52 55 54 52 52 51 52 50 48 49 47 48 48 51 52 53 51 48 46 46 47 48 48 48 46 44 41 37 34 34 35 37 37 36 35 35 34 44 43 43 43 43
50 51 53 54 53 50 51 50 51 51 49 46 47 46 46 49 50 50 47 46 47 47 46 47 46 46 43 40 37 35 35 35 35 34 34 35 36 34 33 39 42 41 39
45 49 50 52 51 51 50 50 47 47 45 45 42 41 43 43 45 47 45 46 47 46 45 45 46 45 44 41 36 32 33 35 35 34 34 34 35 36 35 34 35 33 34
43 46 49 48 49 48 46 44 41 40 38 38 38 39 43 43 43 44 44 44 44 45 46 46 45 45 45 43 41 37 36 36 38 37 35 34 33 35 34 36 35 30 31
42 43 43 42 41 39 37 38 40 40 39 41 42 42 42 42 42 41 42 43 43 43 44 45 47 46 44 43 41 38 33 33 36 38 37 35 35 34 32 36 32 31 29
40 40 39 40 41 42 41 40 40 39 39 38 38 38 39 40 40 40 40 41 42 43 42 43 44 44 44 44 42 40 35 32 33 34 38 37 35 36 33 33 31 28 29
42 42 41 41 40 41 43 40 41 39 38 39 39 39 38 37 37 38 39 40 41 41 41 41 41 43 43 42 42 42 42 40 36 34 36 36 36 35 35 32 29 29 30
43 43 42 41 41 41 42 42 41 40 39 39 39 38 37 35 34 34 38 40 41 41 40 42 43 43 43 42 41 41 41 40 39 38 34 34 35 34 32 31 30 31 31
41 42 41 40 39 41 41 42 41 40 39 37 36 33 31 31 31 33 36 39 41 41 41 41 41 41 41 41 40 39 38 37 36 37 35 35 34 32 29 30 32 32 32

GFSSE_sfc_30mbdewp_027.txt.gz
Dewpoint
63 64 69 69 69 68 67 67 68 69 70 69 69 69 69 68 68 67 67 67 68 67 67 66 66 65 64 64 65 66 66 66 67 67 66 66 65 67 67 67 67 63 66
61 64 68 69 69 68 68 68 68 68 68 68 67 68 67 67 66 66 66 66 66 66 65 65 65 66 65 64 65 64 64 64 65 65 64 65 65 66 66 66 66 65 67
59 63 65 69 70 70 69 69 69 68 67 67 67 66 66 67 67 65 64 64 64 63 63 64 64 66 66 66 65 65 65 65 64 64 62 57 63 65 66 66 66 67 66
58 60 64 67 68 68 69 69 70 69 68 67 67 66 66 67 66 65 64 64 65 65 65 65 66 66 66 65 64 63 62 61 62 63 59 58 55 64 65 66 66 66 66
55 61 65 66 66 67 67 68 69 69 69 68 69 68 68 67 66 65 64 64 64 65 65 65 66 65 64 63 62 61 59 59 59 57 55 57 59 64 64 65 64 65 64
55 59 64 64 64 64 65 66 67 68 68 68 68 67 66 66 65 63 62 64 65 64 66 66 66 64 63 62 62 61 61 60 58 55 57 59 57 64 64 63 64 63 64
48 54 58 63 64 64 63 64 64 65 67 67 67 67 67 67 66 66 64 65 64 63 62 62 64 63 62 61 62 63 63 62 57 55 57 58 62 63 63 64 64 64 64
47 50 53 62 63 64 64 64 64 64 65 65 66 66 65 65 65 65 65 65 64 64 63 63 63 63 63 63 62 62 61 60 57 53 52 55 60 62 63 63 63 63 64
47 49 51 55 59 62 62 63 63 64 64 63 63 63 63 64 64 64 64 64 64 63 63 62 62 61 61 60 61 60 59 59 57 52 52 57 59 60 61 63 63 63 62
48 49 51 53 55 57 59 62 63 63 63 63 62 62 62 62 62 62 63 62 62 62 62 61 59 59 58 57 57 57 57 58 57 50 50 56 59 60 60 61 63 63 62
49 52 53 52 55 54 53 58 61 62 62 62 61 60 60 58 58 59 59 60 60 59 59 58 57 56 56 56 56 54 54 49 48 47 52 57 58 59 59 60 61 63 63
49 51 53 55 56 55 50 53 54 54 55 56 56 57 54 57 58 55 58 59 59 59 59 58 57 55 54 48 51 53 50 46 46 45 51 55 55 56 57 59 60 61 62
48 48 50 57 57 55 51 50 50 50 51 54 57 57 56 55 55 55 55 59 60 59 54 57 54 51 47 48 45 46 46 46 43 42 52 50 49 51 54 56 59 60 60
47 47 50 55 57 55 50 47 48 49 51 51 54 56 55 53 53 53 51 51 50 50 50 51 49 49 52 51 49 47 46 46 41 42 47 43 44 48 51 54 57 58 58
43 45 50 56 59 51 51 49 51 52 51 54 53 54 55 52 52 52 51 50 49 48 47 47 47 47 48 48 46 44 43 41 43 44 38 42 45 48 50 51 53 55 55
43 45 49 55 58 50 49 51 50 52 51 52 50 51 53 53 51 51 49 47 46 45 45 46 45 46 46 44 43 42 41 37 36 40 36 41 48 48 48 48 49 49 50
43 45 49 55 56 53 50 50 47 47 48 47 46 48 50 51 49 50 47 46 45 45 46 46 47 47 46 45 42 41 38 39 38 39 36 34 42 42 50 45 45 46 47
42 44 48 52 54 55 48 48 46 45 46 45 44 45 47 49 50 49 47 46 46 48 46 46 45 45 44 43 42 40 37 36 36 39 38 37 35 36 44 46 44 44 43
44 46 48 51 54 53 49 48 47 48 47 43 44 44 44 46 46 47 46 46 47 46 46 46 45 46 44 44 43 41 39 37 37 36 37 38 38 35 35 44 43 43 41
44 48 50 51 53 52 50 48 45 44 43 42 41 40 42 43 44 45 45 45 46 45 45 46 48 46 46 46 43 41 42 39 38 39 37 36 36 38 38 38 39 35 38
44 45 48 50 51 49 46 44 41 40 40 39 39 42 44 44 44 44 43 43 44 43 45 47 48 47 48 47 46 46 44 43 42 39 40 38 37 37 39 38 37 35 33
42 42 43 43 43 41 39 40 41 42 41 42 42 42 41 42 42 41 40 40 39 41 43 44 46 46 46 47 45 45 42 42 41 41 40 41 40 38 37 39 37 37 33
42 41 41 41 42 43 42 40 40 39 39 39 39 41 41 42 41 40 39 39 40 41 40 42 42 42 42 43 45 44 41 39 39 40 41 41 41 41 39 38 37 38 34
43 42 41 41 41 41 43 41 43 42 41 41 42 41 41 40 37 36 34 35 38 40 41 41 39 43 42 41 41 41 43 44 42 41 41 41 41 40 41 40 36 38 34
43 43 43 40 41 42 43 43 43 42 40 38 38 37 36 33 33 32 33 35 38 40 41 41 42 41 40 40 39 42 42 42 42 41 41 41 41 41 40 40 39 36 33
42 43 42 41 40 40 41 41 40 39 38 35 35 34 33 34 33 33 33 36 38 39 39 40 43 42 42 41 41 41 39 39 38 37 36 38 39 43 43 44 40 36 35

GFSSE_sfc_30mbdewp_030.txt.gz
Dewpoint
63 67 70 70 69 68 68 68 69 70 70 70 69 69 69 68 68 67 67 67 68 67 66 66 66 66 64 64 65 66 65 65 65 65 65 66 66 66 66 66 66 64 68
64 67 70 70 69 69 69 68 68 69 69 69 68 68 68 68 68 67 67 66 66 65 64 64 65 66 66 65 66 65 65 65 64 63 64 63 66 66 66 67 67 66 66
63 65 68 70 70 70 70 69 69 68 69 68 68 68 68 68 66 65 65 65 65 65 65 66 67 67 66 66 65 65 64 63 63 63 63 61 62 65 65 66 66 67 67
63 64 67 69 69 69 69 70 69 69 69 68 67 68 68 67 66 65 64 65 65 65 65 66 66 66 66 64 63 61 60 60 59 59 58 60 62 63 65 65 66 66 66
63 64 66 67 67 68 68 69 69 69 69 69 69 68 67 66 66 65 64 65 66 65 65 66 66 64 63 63 62 62 61 60 59 58 55 60 62 64 64 64 63 65 65
60 64 64 64 64 65 67 67 68 68 68 68 68 67 67 66 65 63 66 65 64 64 65 66 65 64 63 62 62 62 62 62 61 57 58 61 63 64 64 64 64 64 64
57 60 61 63 64 64 64 64 65 66 67 68 67 67 67 66 66 66 65 64 64 63 63 63 63 63 62 62 63 63 62 61 60 59 57 62 63 64 64 63 63 63 63
52 56 58 63 64 64 64 64 64 65 65 66 66 65 65 65 65 65 65 64 64 64 64 63 63 63 63 62 62 61 61 60 58 58 59 61 61 61 62 63 64 63 63
49 52 56 60 62 62 62 63 63 63 63 63 63 63 64 64 64 64 64 64 63 63 63 62 62 61 60 60 60 60 60 59 59 58 56 59 60 61 61 62 63 63 62
48 50 54 57 59 60 61 62 63 63 62 62 61 61 62 62 62 63 63 62 62 61 61 60 59 59 58 58 57 56 55 55 54 56 57 59 60 60 60 61 62 63 63
48 52 53 55 56 60 60 61 62 62 62 62 60 59 61 62 62 61 59 59 59 58 58 57 57 56 56 56 57 56 55 53 51 50 57 59 59 59 59 60 61 61 63
50 51 55 55 56 54 50 59 61 61 62 62 61 60 61 57 57 55 59 59 59 59 59 58 58 56 56 54 55 56 55 52 48 46 56 55 55 56 56 58 60 60 61
49 50 54 57 57 55 53 52 55 57 58 58 57 57 57 56 59 59 60 59 60 60 60 59 58 57 54 53 52 52 51 49 48 47 53 52 52 51 53 55 57 60 60
48 49 55 56 56 54 53 52 52 52 55 54 58 57 58 56 56 54 55 54 56 57 55 52 52 52 52 53 53 51 50 49 47 46 50 48 47 48 50 53 56 58 60
47 48 53 56 56 54 51 53 54 53 56 55 54 56 56 55 56 55 53 53 52 50 49 50 49 50 50 51 51 49 47 46 46 45 47 44 43 44 48 51 55 56 56
43 47 53 57 58 51 51 52 52 54 55 55 53 54 53 55 55 54 52 51 50 49 49 49 49 50 50 50 48 47 45 44 42 42 45 44 45 47 49 49 51 53 52
43 46 50 55 58 54 51 52 50 50 48 49 50 51 51 52 53 52 52 51 50 51 50 50 51 50 50 49 48 48 46 44 42 41 42 42 46 47 47 49 48 48 49
43 45 49 52 57 56 54 51 49 49 49 47 47 48 49 49 50 51 51 51 51 51 50 51 50 49 49 48 48 47 45 44 42 42 42 41 41 42 46 49 47 46 47
46 47 49 51 54 56 55 50 50 49 49 49 48 47 49 48 49 49 49 50 51 50 50 50 49 49 48 48 47 46 47 45 42 41 41 42 41 41 42 50 47 47 46
48 49 50 51 55 55 53 51 49 47 47 47 46 46 47 46 48 48 48 48 50 49 48 49 50 51 50 50 48 47 47 48 46 44 41 42 42 41 41 44 47 46 46
47 49 50 50 50 49 49 46 44 44 43 43 43 45 45 46 45 46 46 46 45 45 46 47 47 47 47 49 49 47 47 47 48 46 44 42 41 41 42 41 43 41 42
43 43 44 44 44 44 43 43 44 44 44 44 44 43 44 46 45 44 44 44 44 44 44 45 45 46 46 46 46 45 43 43 44 45 45 42 41 41 40 41 42 39 36
44 43 42 42 43 44 45 43 44 45 44 42 45 45 45 45 44 43 41 40 42 43 43 44 43 43 43 44 44 43 41 39 41 43 43 46 45 44 43 41 41 40 40
45 45 43 42 42 43 45 45 46 45 44 43 41 42 42 39 40 38 38 40 41 42 43 43 42 44 44 42 43 43 44 44 42 41 42 44 46 46 46 49 49 47 40
45 45 44 42 41 43 43 43 43 43 42 41 40 39 38 40 39 39 37 38 41 41 42 44 44 43 43 42 41 40 40 39 39 39 38 39 42 45 46 48 47 47 45
44 44 44 42 41 42 41 42 41 41 41 39 40 39 40 40 38 37 37 38 41 44 43 43 43 42 41 40 39 39 38 37 36 36 35 36 36 39 40 42 44 46 46

GFSSE_sfc_30mbdewp_033.txt.gz
Dewpoint
67 69 69 68 68 68 69 69 70 70 70 69 70 70 69 69 68 68 68 68 68 67 66 66 67 66 65 65 65 65 65 64 64 64 65 66 65 66 66 67 65 66 68
68 70 68 69 69 68 68 69 69 69 69 69 69 68 69 68 67 67 67 67 66 65 65 66 67 67 67 66 66 65 64 63 62 62 63 62 65 65 66 66 66 66 67
67 69 69 69 70 70 70 69 69 69 69 69 69 69 68 67 66 65 65 66 66 65 66 67 67 67 66 65 64 63 62 61 61 60 61 61 62 62 63 65 66 67 66
66 68 69 69 69 70 69 69 69 69 69 68 69 68 68 67 66 65 65 65 66 65 65 66 66 65 65 64 63 62 61 61 60 60 57 61 62 61 61 63 64 66 66
65 67 67 67 68 69 69 69 69 69 69 69 69 68 67 66 65 65 66 66 65 66 66 66 65 64 63 62 62 62 62 62 61 59 57 61 62 63 62 63 63 64 63
64 65 65 65 66 67 68 68 68 68 68 68 68 67 67 66 65 66 65 65 64 64 65 65 64 63 62 62 62 62 62 61 61 59 58 63 62 63 63 64 63 63 63
62 62 63 64 64 64 64 65 66 67 67 67 67 66 66 66 66 65 65 64 64 63 63 63 63 63 63 62 62 61 61 60 60 58 58 63 64 63 64 64 63 63 63
59 61 62 63 64 63 63 63 64 64 65 65 65 65 65 65 65 65 65 64 64 64 64 63 63 62 62 61 61 60 60 59 59 58 59 61 63 63 64 63 63 63 63
57 58 61 62 62 62 62 62 62 62 63 63 62 63 63 63 64 64 63 63 63 63 62 62 61 60 59 59 58 58 57 56 56 55 57 59 61 61 62 62 63 63 63
54 57 58 59 61 61 62 62 62 61 61 60 61 61 62 62 63 62 61 62 62 61 61 60 58 57 57 57 57 57 57 56 51 53 57 59 60 60 61 61 61 61 63
52 56 58 58 59 59 61 61 61 61 60 60 60 60 61 61 62 62 62 60 59 59 58 57 56 56 55 55 54 55 56 55 52 50 57 59 59 59 59 60 61 61 62
52 55 56 58 60 60 58 60 60 61 61 60 60 60 61 61 62 61 59 58 58 59 58 58 58 57 57 55 53 54 55 53 52 48 56 58 57 56 56 57 59 60 61
50 55 57 56 55 56 57 59 60 60 61 61 61 59 60 58 59 58 59 59 59 59 59 59 59 58 56 54 53 53 52 50 49 48 52 56 55 54 54 55 56 58 60
50 54 56 56 54 53 53 54 58 58 59 59 59 57 55 56 56 56 59 58 59 59 59 59 58 56 55 53 53 52 51 49 47 47 50 52 50 50 51 52 54 56 58
51 54 55 55 55 52 51 53 53 55 56 55 58 57 55 54 54 54 53 52 51 51 50 50 49 49 49 49 50 51 50 48 46 45 46 49 46 46 48 49 51 55 57
50 54 56 55 56 51 53 51 52 53 55 53 56 54 55 55 53 53 52 51 50 50 50 50 48 48 48 49 49 49 48 47 45 43 43 44 47 46 46 48 49 52 55
47 54 55 57 53 50 52 51 51 55 48 51 52 52 53 52 52 52 51 51 52 53 50 50 49 50 50 50 50 49 49 48 46 43 41 43 44 47 47 47 49 51 52
46 52 56 59 56 53 51 51 49 50 49 48 49 51 51 50 50 51 50 49 50 50 49 49 49 49 49 49 49 48 48 47 46 44 42 41 44 46 47 46 50 51 50
50 51 55 58 59 60 58 53 50 48 47 47 50 50 49 48 48 47 47 48 49 50 50 50 50 50 49 49 49 48 48 47 47 45 43 42 42 44 43 45 50 49 50
51 52 53 53 54 56 55 53 51 49 47 48 47 46 45 47 47 47 46 46 47 45 46 45 45 45 46 47 47 47 49 49 49 48 47 43 43 43 42 42 49 49 49
47 46 45 44 46 47 45 43 44 42 43 44 46 45 44 47 47 45 45 44 44 44 43 44 45 43 43 45 44 45 45 46 47 47 48 47 45 44 43 42 44 46 46
44 44 44 43 44 44 45 44 45 45 44 45 46 46 46 44 44 44 42 42 43 43 44 44 42 41 43 44 43 43 40 41 42 44 45 46 47 47 45 44 44 45 42
43 42 43 43 43 45 45 46 46 46 45 43 42 43 40 41 40 39 38 39 40 42 42 42 42 44 43 44 44 43 40 39 40 41 42 43 45 47 48 50 49 44 40
44 43 43 42 42 44 44 44 43 43 42 42 41 41 41 41 40 38 38 38 40 42 43 44 43 43 42 40 41 39 40 39 35 34 39 38 39 42 42 44 48 50 50
44 43 43 43 43 43 44 43 42 42 41 41 40 40 41 41 38 38 38 42 43 43 42 42 42 41 41 40 39 37 36 35 37 35 32 33 36 37 39 41 42 46 48
45 44 43 42 42 41 42 43 42 42 41 40 40 41 40 39 38 41 42 42 42 42 42 42 41 41 40 39 38 37 37 35 34 34 33 33 33 35 35 38 40 43 44

GFSSE_sfc_30mbdewp_036.txt.gz
Dewpoint
68 69 68 68 69 69 70 69 69 69 69 70 69 69 69 69 69 68 68 67 67 66 66 67 67 67 66 65 65 65 64 64 63 64 64 65 65 65 66 66 67 67 68
69 68 68 68 69 69 70 70 69 69 70 69 69 69 68 68 68 68 68 68 67 67 67 67 67 67 66 66 65 64 63 62 61 62 62 62 64 64 64 65 66 68 67
68 69 69 69 69 69 69 70 70 69 69 69 69 68 67 66 65 65 65 67 66 65 66 66 66 66 65 64 63 62 61 61 61 61 59 60 62 62 61 64 64 67 67
68 69 69 69 69 69 69 69 69 69 69 69 68 67 66 66 66 65 66 67 66 65 66 66 65 64 64 63 63 62 62 62 62 61 57 62 62 62 61 63 63 64 66
67 68 68 68 69 69 69 69 69 69 69 69 68 67 67 66 66 66 65 65 65 66 66 65 65 64 63 62 62 63 62 62 62 59 58 60 63 62 61 60 62 63 63
65 66 67 67 68 68 68 68 68 68 68 68 68 67 66 66 66 65 65 64 63 63 64 63 62 62 62 62 62 62 61 61 60 58 58 62 62 62 63 62 63 63 63
63 64 64 65 66 67 67 67 67 67 68 68 67 67 66 65 65 65 64 64 63 63 63 63 63 62 62 61 61 61 60 60 59 57 61 63 63 60 61 62 62 62 62
60 62 62 63 63 63 64 64 64 65 65 65 65 65 65 64 64 63 63 63 63 63 62 62 61 61 60 60 59 59 58 59 57 53 57 61 63 62 62 63 62 61 61
60 61 62 62 62 61 61 62 62 62 62 63 63 63 63 63 62 63 63 63 62 62 62 60 59 58 58 58 57 57 56 57 54 51 57 60 62 62 62 63 62 62 61
58 59 59 60 61 60 60 60 60 60 61 61 61 61 61 62 62 62 62 62 62 62 61 60 58 57 56 55 54 54 56 56 53 51 56 58 61 61 61 61 60 61 62
55 56 58 59 59 59 60 60 60 60 60 60 60 60 61 61 62 62 61 60 60 60 59 58 57 56 56 55 54 54 56 54 52 51 54 57 60 60 60 61 60 60 61
53 55 56 58 58 59 59 61 60 60 60 59 60 60 60 60 61 62 61 59 59 59 58 58 58 58 58 56 54 53 53 52 51 48 50 55 60 58 57 57 59 60 60
54 56 56 58 59 58 58 60 59 60 60 60 59 59 60 61 61 61 59 59 58 59 59 59 59 58 57 56 54 53 53 52 50 48 48 53 57 56 54 54 55 57 59
53 55 57 57 59 58 58 58 59 59 60 60 61 60 58 58 58 59 59 58 58 58 58 58 57 57 55 55 53 53 53 52 50 48 47 53 53 54 52 51 52 54 56
54 56 56 55 54 52 54 55 57 58 59 60 60 57 55 55 54 54 53 53 52 51 51 50 51 49 48 48 48 49 50 50 49 48 46 47 51 52 51 49 48 49 52
54 55 55 54 53 50 52 53 53 56 56 56 58 56 54 55 53 53 51 52 51 51 51 50 49 49 49 50 50 50 50 49 48 47 45 44 47 49 49 48 47 47 49
53 54 54 55 53 52 52 51 52 54 53 56 56 55 55 53 53 51 51 50 50 52 51 50 50 50 50 50 50 50 50 49 49 48 46 44 44 47 48 48 50 48 48
53 54 56 56 53 54 53 53 50 52 49 50 53 53 53 53 51 51 50 49 50 49 49 48 48 46 46 47 48 48 49 49 48 48 47 45 43 44 46 49 50 50 51
54 56 58 56 56 57 57 55 52 50 49 49 50 51 51 50 50 48 48 48 48 45 45 45 44 46 45 44 44 45 46 48 47 49 48 47 45 44 44 46 50 50 51
49 52 54 55 58 59 57 53 48 46 45 48 47 46 47 49 47 46 46 45 45 44 43 44 44 43 43 42 43 42 46 46 47 46 47 48 47 45 44 44 44 49 51
48 46 48 48 49 49 48 46 45 44 44 46 46 46 46 44 43 41 42 41 42 42 43 43 43 41 40 44 43 41 43 42 44 43 44 45 46 48 48 48 44 45 46
47 47 44 44 44 45 45 46 46 46 45 43 43 42 41 40 39 38 39 40 41 41 40 41 43 42 44 44 42 42 39 39 41 38 41 41 44 44 42 42 45 48 46
43 43 43 43 44 44 44 44 44 45 44 42 41 41 41 39 38 37 38 39 41 42 42 43 43 42 42 42 41 40 36 36 34 36 33 38 39 39 40 41 41 42 47
42 43 43 43 43 44 44 43 42 42 40 41 41 41 41 39 38 39 41 42 43 43 42 42 42 41 40 39 40 38 39 38 32 29 34 33 35 35 37 39 39 43 46
43 43 42 42 42 42 43 43 42 41 42 42 42 41 40 39 39 42 42 42 41 41 41 41 41 40 40 38 37 37 37 36 36 33 29 31 34 35 36 35 38 42 44
44 43 43 39 39 41 42 42 42 41 41 40 41 40 39 39 41 41 41 41 41 40 40 41 40 40 39 38 38 36 34 33 33 33 31 30 30 32 33 35 37 41 41

GFSSE_sfc_30mbdewp_039.txt.gz
Dewpoint
68 69 68 69 70 70 69 69 68 69 69 69 69 69 69 69 69 68 68 67 67 67 67 67 67 66 66 65 65 64 63 63 62 62 62 64 64 64 66 67 67 67 67
68 68 68 69 70 69 69 69 69 70 70 69 68 68 68 68 67 67 67 68 67 67 67 66 66 66 65 64 63 63 62 62 62 62 62 62 64 63 64 65 66 67 66
67 68 68 69 70 70 70 70 70 70 69 68 67 67 66 66 65 65 66 66 66 66 66 66 65 65 64 64 63 63 63 63 62 61 59 59 61 61 61 64 65 65 66
68 68 69 69 69 70 70 70 70 69 69 68 67 67 66 66 66 66 66 67 66 66 65 65 64 64 63 62 62 62 62 62 62 60 58 60 62 62 62 62 63 64 65
68 68 69 68 69 69 69 69 69 69 69 68 68 67 66 67 66 65 65 65 66 65 64 64 63 62 62 62 62 62 61 61 60 58 58 59 62 62 61 61 62 63 63
67 67 68 68 68 68 68 68 69 69 68 68 68 67 66 66 65 64 64 63 63 63 62 62 62 62 62 61 61 61 61 60 59 56 60 59 62 63 62 61 62 63 63
65 66 67 67 68 68 68 68 68 68 68 68 68 67 66 65 64 64 63 63 63 62 62 62 62 61 61 60 60 59 58 58 56 53 57 62 62 63 62 62 62 62 62
63 63 64 65 66 67 67 67 67 67 66 66 65 65 64 64 63 63 63 63 63 62 62 61 60 59 59 58 57 57 57 58 53 50 55 61 62 62 61 61 61 62 62
60 60 61 62 62 63 63 63 64 64 64 63 63 63 63 62 63 63 63 63 62 61 60 59 58 57 57 56 55 56 56 57 52 51 55 59 61 61 60 60 61 62 62
59 59 59 60 60 60 61 61 61 61 61 61 61 61 62 62 62 62 61 61 61 60 59 58 57 56 56 55 55 55 57 55 52 50 51 56 60 61 61 61 61 60 60
56 58 59 59 59 59 59 60 60 60 60 60 61 61 61 61 62 62 61 61 60 59 59 58 57 57 56 56 55 55 55 53 51 50 49 54 58 60 60 60 60 60 60
52 55 58 58 58 58 59 60 59 60 60 60 60 60 60 60 61 61 61 61 60 59 59 59 59 59 59 56 55 54 53 52 51 49 48 50 55 59 58 57 57 58 59
51 54 56 57 57 57 57 59 59 59 59 59 59 59 60 60 60 61 60 58 58 58 58 58 58 58 58 56 55 54 53 53 51 50 48 48 54 57 55 55 55 55 56
52 53 56 57 57 57 58 58 57 59 59 59 59 60 59 59 59 59 60 58 57 57 56 56 56 56 53 53 53 51 52 52 52 51 49 49 51 54 52 51 52 52 54
53 54 56 57 58 58 57 58 58 58 59 59 60 60 58 57 55 56 57 55 52 51 50 50 50 49 49 50 50 50 50 50 50 50 49 49 50 52 53 51 50 51 50
52 55 56 57 58 55 56 56 57 58 59 59 59 59 56 55 54 53 52 51 51 52 51 50 50 50 49 49 48 48 48 50 50 49 48 47 47 50 52 51 49 50 49
53 55 56 55 53 53 53 53 54 56 56 56 58 58 55 55 53 52 51 50 50 50 49 48 46 46 45 46 44 46 48 47 48 48 48 47 46 46 48 51 51 52 51
54 55 55 55 54 57 57 54 52 52 50 51 55 54 54 53 52 51 49 48 49 47 46 44 45 43 44 43 42 43 42 44 47 46 48 48 47 46 45 47 50 51 53
56 57 57 58 59 59 57 54 51 47 49 49 50 51 50 50 49 48 46 45 45 44 44 44 44 43 41 40 43 41 41 44 45 47 46 47 47 47 46 47 47 48 50
54 55 57 58 59 58 53 51 47 47 46 46 46 46 45 44 44 43 42 42 43 42 41 41 41 41 40 43 43 41 42 43 44 44 41 44 46 46 46 46 46 47 47
52 54 54 54 52 50 48 46 45 44 45 43 42 42 41 40 39 39 40 39 40 38 40 41 41 39 40 43 42 40 41 41 42 37 38 42 44 41 40 40 40 42 45
49 48 46 46 46 46 45 46 46 44 42 41 41 40 39 38 37 37 37 39 41 40 41 42 42 42 43 42 40 39 36 34 38 33 35 36 38 39 38 37 39 38 41
44 43 43 43 43 44 44 44 45 44 43 41 40 40 40 38 38 38 39 40 41 42 42 42 41 39 38 40 40 37 32 31 34 33 31 34 35 36 37 37 36 39 43
43 43 43 43 43 43 43 42 41 40 39 41 41 41 40 39 39 41 42 42 42 41 40 40 41 40 40 38 38 38 38 37 32 31 32 32 33 34 35 36 36 39 43
43 42 43 43 43 43 43 43 41 41 42 42 42 41 40 39 42 42 42 41 40 40 40 40 40 39 39 38 37 37 36 35 35 32 29 29 30 32 34 34 35 39 40
44 41 40 40 41 43 42 42 41 41 40 39 40 40 39 39 41 40 39 39 39 39 39 39 39 38 38 38 38 36 34 32 31 31 30 30 31 30 32 33 33 35 39

GFSSE_sfc_30mbdewp_042.txt.gz
Dewpoint
67 68 69 70 70 69 69 68 69 69 69 69 69 69 69 69 68 68 67 67 67 67 67 67 66 66 65 64 64 63 63 63 62 63 62 64 64 64 66 67 66 66 66
68 68 69 70 70 69 69 69 69 69 69 68 69 68 68 68 68 67 68 68 67 66 66 66 66 65 64 64 64 64 63 63 63 62 61 61 62 62 61 64 65 66 66
67 68 69 70 70 70 69 70 70 69 68 67 67 67 66 66 65 66 66 67 66 65 65 65 64 64 63 63 63 63 63 62 62 62 60 61 60 62 62 63 64 65 65
67 68 69 70 70 70 70 70 69 68 68 67 67 66 66 66 66 66 67 66 66 64 63 64 64 62 62 62 62 61 61 61 60 59 58 60 62 63 61 62 63 64 64
68 68 69 69 70 70 70 70 70 69 69 68 67 66 66 67 66 65 65 66 65 64 63 62 61 61 61 62 62 61 60 60 58 56 59 59 62 63 62 61 62 62 62
67 67 68 68 69 69 69 69 69 69 68 68 67 67 67 65 64 64 64 64 63 62 61 61 61 61 61 61 60 58 57 57 54 52 57 59 62 64 62 62 62 62 62
66 67 67 67 68 68 68 68 68 68 68 68 67 67 65 64 63 63 63 63 63 62 61 61 60 60 59 58 58 57 56 56 52 51 55 61 62 64 62 61 61 62 63
65 66 67 67 68 68 68 67 67 67 67 67 66 66 64 64 63 63 63 63 62 62 61 60 59 58 57 57 57 57 56 55 51 50 57 59 62 63 61 61 62 62 63
63 63 64 65 66 66 66 66 66 66 65 65 64 63 63 62 63 63 63 62 61 60 59 59 58 57 57 57 57 58 57 56 51 50 51 55 59 61 60 61 61 61 61
59 59 59 61 61 61 62 63 63 63 63 62 62 61 62 62 62 61 61 61 60 59 59 58 58 57 57 57 56 56 57 53 51 49 49 52 57 59 60 61 61 61 60
57 57 58 58 59 59 59 61 61 61 61 60 61 61 61 61 61 61 60 60 60 59 59 59 59 59 59 57 56 56 53 52 52 50 48 49 55 56 58 59 60 59 59
53 55 57 58 57 58 59 60 59 60 60 60 60 60 60 60 60 61 61 61 60 60 59 59 59 59 58 57 55 55 53 53 52 51 49 50 53 54 56 57 58 57 58
51 54 56 57 57 57 57 58 58 59 59 59 59 59 59 60 60 60 60 59 58 58 57 57 57 57 57 55 53 53 52 52 52 52 51 52 53 54 54 53 55 56 56
49 51 55 57 57 57 57 58 57 58 58 58 58 58 58 58 59 59 59 58 57 56 53 52 51 50 49 50 50 50 50 50 51 51 51 51 52 53 54 53 52 53 55
49 51 54 56 57 57 57 57 57 58 59 59 59 60 59 58 57 57 58 55 52 51 51 50 50 49 48 48 47 47 47 48 49 49 49 49 50 52 53 53 53 51 52
49 51 54 56 58 57 56 57 57 57 58 59 59 60 59 56 55 54 52 51 51 51 50 49 48 46 45 45 43 44 45 44 45 48 48 48 49 50 50 51 53 53 53
51 54 56 56 54 54 53 52 53 55 56 56 57 58 56 55 53 52 51 49 49 48 46 45 44 44 43 42 40 41 42 41 44 45 48 48 47 47 49 50 50 51 52
52 55 56 56 57 57 56 53 51 50 50 51 53 53 52 52 51 49 47 46 46 45 44 44 44 41 41 40 41 41 40 41 42 46 44 47 47 47 47 48 48 49 50
55 57 57 59 58 57 58 54 51 50 50 50 49 48 48 48 46 43 42 43 43 42 42 41 41 40 38 39 42 41 40 41 43 45 42 45 45 44 42 40 40 41 42
57 58 59 59 58 56 54 52 51 47 44 44 43 43 42 42 42 41 41 41 40 39 39 40 39 40 40 43 42 41 40 41 44 38 40 43 41 40 39 38 38 38 39
55 57 58 58 57 54 52 47 45 42 43 41 41 40 39 39 39 39 39 39 40 39 41 42 42 41 41 42 41 38 39 41 39 34 37 40 38 38 37 37 39 37 40
51 52 53 51 50 48 46 45 43 42 41 41 40 39 38 38 38 38 39 39 40 40 41 41 40 39 40 41 38 37 32 32 36 34 34 36 35 36 35 36 37 37 41
45 43 44 44 44 44 45 45 45 43 42 40 40 39 39 39 39 40 40 41 41 41 39 39 40 38 38 39 39 37 32 31 34 33 33 34 33 33 34 35 35 37 41
42 43 43 43 42 43 43 41 40 39 39 40 41 40 39 39 41 41 41 41 40 39 38 38 40 39 38 37 37 38 37 37 33 31 32 31 32 32 33 34 34 36 40
43 43 43 43 43 43 43 42 41 41 42 42 42 41 40 40 42 41 40 39 37 38 38 39 39 38 38 37 37 36 35 34 33 32 28 27 31 32 33 33 34 34 36
43 42 42 41 42 42 42 42 41 41 40 39 40 40 39 39 40 40 38 38 38 37 37 37 37 36 36 37 37 35 33 31 29 30 30 31 31 30 32 32 32 32 33

GFSSE_sfc_30mbdewp_045.txt.gz
Dewpoint
66 66 70 70 70 69 69 70 70 70 70 70 70 69 69 69 68 68 68 68 67 67 66 66 66 65 65 64 64 64 64 63 63 63 63 63 64 63 65 66 64 62 66
66 67 70 70 70 69 69 70 69 69 69 69 69 69 68 68 68 68 68 68 66 66 66 66 65 64 64 63 63 63 63 62 62 62 62 62 62 61 63 64 65 63 66
66 67 69 70 69 69 70 70 69 69 68 68 67 68 67 66 67 67 67 67 66 64 65 65 63 62 62 62 62 62 62 62 61 61 60 61 61 63 62 63 63 64 65
66 68 69 70 70 70 70 69 69 68 68 68 67 66 66 66 66 66 66 67 65 63 64 62 61 61 62 62 62 60 59 59 58 59 58 61 61 63 61 62 62 63 64
67 68 69 70 70 70 70 69 69 69 68 68 67 66 67 66 66 66 67 66 64 63 61 61 61 61 61 61 59 57 57 57 54 55 59 60 62 63 63 62 61 61 63
67 68 69 69 69 70 70 70 69 68 68 67 67 67 66 65 64 64 64 64 62 61 60 60 60 60 59 58 57 57 57 56 52 55 58 61 62 64 62 63 62 62 63
66 67 68 68 69 69 69 69 68 68 67 67 67 67 65 64 63 63 63 63 62 60 60 59 59 58 58 57 57 57 57 54 51 54 57 60 62 63 61 62 63 63 63
65 66 66 68 68 68 68 68 67 67 67 67 67 65 64 64 63 63 63 62 61 60 60 59 58 58 57 58 58 57 57 55 50 49 50 54 60 61 61 61 62 62 61
65 65 66 66 67 67 67 66 66 67 66 65 64 64 63 62 62 62 62 61 61 60 59 59 58 58 58 58 58 57 56 54 49 48 47 48 58 59 59 60 61 61 60
63 63 64 64 64 65 65 65 65 65 63 63 63 62 62 62 61 61 60 60 60 60 60 59 59 59 59 58 58 57 54 53 52 50 47 46 55 54 54 57 60 61 59
59 59 60 60 61 61 61 62 62 62 62 61 61 61 60 60 60 60 59 60 60 60 60 60 60 60 59 57 56 56 54 52 52 51 50 52 55 54 53 55 60 60 59
54 55 57 59 58 59 58 60 61 60 59 60 60 61 60 61 61 60 61 60 60 59 59 59 58 57 57 53 51 52 51 52 51 51 50 53 55 55 54 55 57 58 59
51 54 57 58 58 58 58 59 58 59 59 59 60 60 61 61 61 61 61 60 60 58 57 55 54 54 53 52 52 52 51 51 51 50 50 53 54 55 55 55 55 56 57
49 52 56 58 58 58 58 58 58 58 58 58 59 60 60 60 61 61 60 60 58 55 53 52 52 53 52 50 49 48 49 48 47 47 48 50 52 53 54 55 55 55 56
48 51 55 57 58 58 58 58 58 59 59 60 60 60 61 60 60 59 59 56 53 53 52 52 51 48 47 46 45 44 44 42 41 42 44 49 51 52 53 53 54 55 55
47 51 55 57 59 58 57 57 58 59 59 60 61 61 61 59 58 56 54 53 52 50 49 47 47 45 44 43 42 42 41 39 40 41 41 43 49 50 52 53 54 54 54
48 53 56 57 57 55 54 53 53 53 54 56 58 59 58 58 56 54 52 50 48 47 47 46 45 44 41 39 39 38 38 38 39 43 43 44 46 47 46 46 46 48 49
50 54 56 57 57 57 55 54 52 52 53 55 55 56 56 55 53 50 47 46 46 44 43 43 41 40 38 37 38 38 37 38 39 43 43 44 43 41 40 41 41 42 42
55 56 58 58 58 57 56 56 56 53 52 52 51 50 50 48 47 45 45 44 43 41 41 39 38 39 36 37 36 34 38 33 38 39 40 41 39 38 37 36 38 37 40
58 59 59 59 58 56 56 55 52 50 46 46 47 44 45 44 44 43 41 42 41 40 40 40 39 38 38 39 33 33 34 32 42 38 37 37 37 37 36 35 34 33 38
58 58 59 58 57 56 54 50 46 45 44 43 42 42 42 41 41 42 41 41 41 40 41 40 38 37 34 38 34 29 31 42 42 36 35 35 35 34 34 33 33 34 35
57 58 58 57 55 53 50 47 45 43 43 42 41 41 41 42 42 41 42 41 41 39 40 39 39 35 34 38 33 30 24 27 34 36 34 34 35 33 30 32 33 37 36
53 54 52 51 52 51 48 47 45 44 43 41 41 40 41 42 42 42 42 42 41 39 37 37 38 37 33 36 39 34 27 23 31 30 33 33 34 32 32 32 32 33 37
45 46 45 45 45 46 46 45 44 41 40 42 42 41 40 42 43 42 42 41 40 39 37 37 37 38 38 33 35 37 37 36 31 28 28 28 29 30 32 33 33 34 33
45 45 45 45 45 45 45 45 43 43 43 43 43 43 42 42 42 41 41 40 38 37 37 37 36 36 36 35 33 34 33 32 32 31 25 24 26 29 30 31 32 34 32
45 45 44 44 43 44 44 44 44 43 41 39 39 39 39 40 41 41 40 40 39 38 37 36 37 37 36 36 35 34 32 30 29 29 30 28 29 27 29 30 32 31 32

GFSSE_sfc_30mbdewp_048.txt.gz
Dewpoint
61 66 70 69 69 69 69 69 70 70 70 70 69 69 69 69 68 69 68 68 67 66 66 66 65 65 64 64 64 63 63 63 63 63 64 64 62 62 64 64 63 58 65
62 66 70 70 69 69 69 69 70 70 70 69 69 69 69 69 69 68 68 67 66 66 65 65 64 63 63 62 62 62 62 62 62 62 62 62 63 62 62 64 63 62 66
63 66 67 69 69 69 69 70 70 70 69 68 68 68 67 67 67 67 67 66 65 65 64 62 61 61 61 62 61 60 60 59 59 60 60 56 60 62 62 63 64 64 64
63 64 66 69 69 70 70 69 69 68 68 68 67 66 66 66 66 66 67 65 64 63 61 61 61 61 61 59 57 57 56 57 56 57 55 56 56 64 62 62 63 63 63
64 64 67 69 70 70 69 69 69 69 68 68 67 66 66 66 67 67 66 65 63 61 60 60 60 59 58 58 58 58 57 56 54 53 54 58 57 62 63 62 59 61 63
64 65 68 69 70 70 70 69 69 68 67 67 67 67 66 64 64 64 65 63 61 60 59 58 58 58 58 58 58 58 57 54 53 49 52 57 59 63 63 63 63 63 63
62 65 67 69 69 69 69 69 68 67 67 67 68 66 64 63 63 63 63 62 60 59 58 58 57 57 58 58 58 57 56 54 46 46 49 52 59 62 61 62 62 61 61
63 64 66 68 69 69 69 68 67 67 67 67 66 65 64 63 63 63 62 61 60 60 59 58 58 58 58 59 58 58 55 52 44 44 44 47 56 57 57 60 62 62 60
63 64 64 65 67 68 67 67 66 67 66 66 64 64 63 62 63 62 62 61 60 60 59 59 59 59 60 59 58 57 54 53 46 43 41 43 56 55 53 56 59 61 60
63 62 61 62 62 62 64 66 66 65 64 63 63 62 62 61 60 60 59 60 60 60 60 60 60 60 59 58 57 55 53 53 46 44 43 48 57 56 55 55 56 58 59
61 62 59 58 59 59 57 62 63 63 62 61 61 61 59 56 57 57 58 60 60 60 60 60 60 58 57 55 53 52 52 46 46 45 44 53 56 56 56 56 58 58 59
57 54 55 56 56 55 52 57 57 55 54 57 57 59 57 59 59 58 60 60 59 58 58 57 56 55 55 48 47 49 46 48 46 46 45 52 55 55 56 56 57 58 58
49 49 53 56 56 54 54 54 52 52 55 58 60 60 60 59 59 59 59 58 58 56 52 51 51 50 52 51 49 49 47 46 45 44 47 50 52 53 55 56 56 56 57
45 49 52 55 56 56 54 53 55 55 57 57 59 61 60 61 60 60 58 59 58 53 53 51 50 53 51 50 48 47 46 45 42 42 43 48 51 53 53 54 55 56 56
43 49 53 56 55 56 57 57 57 58 58 59 59 60 61 61 61 59 59 57 54 53 52 51 50 49 48 46 46 45 43 42 41 40 40 47 50 52 53 54 55 56 56
43 49 55 56 57 57 57 59 58 59 58 60 60 62 62 62 61 59 56 54 52 51 49 48 48 46 45 44 43 43 43 42 41 41 40 40 48 51 49 49 49 50 50
44 50 55 57 58 58 56 55 54 54 54 55 58 60 60 60 59 58 55 52 49 48 48 46 45 44 42 41 40 40 41 40 39 40 41 40 42 46 44 44 44 45 45
44 51 55 58 58 57 57 56 56 56 56 58 57 58 58 58 56 53 50 49 47 45 44 42 42 40 39 39 39 39 37 37 36 35 38 40 38 37 41 40 40 40 41
48 53 57 59 58 58 57 58 58 57 57 54 52 51 51 50 48 47 46 45 43 42 42 41 41 40 38 36 34 29 28 30 27 27 35 39 39 38 37 36 35 35 37
54 56 58 59 58 58 58 58 57 54 48 48 46 46 45 45 45 43 43 44 42 42 41 41 39 36 35 32 32 27 30 29 28 33 35 36 35 36 34 35 33 30 33
57 58 59 58 58 59 58 54 50 46 45 44 42 44 43 43 44 44 42 43 42 41 40 38 35 31 29 31 32 26 26 28 37 35 34 32 33 33 32 31 31 31 31
57 58 58 57 57 57 55 49 46 45 42 41 42 44 43 44 44 42 44 42 41 36 36 35 34 31 28 29 33 31 21 21 23 32 33 33 33 33 30 30 32 32 31
57 57 55 56 56 53 48 47 46 45 42 41 42 41 43 44 44 44 42 39 37 35 31 33 33 32 29 28 30 32 27 22 27 25 27 27 30 29 30 30 30 31 31
50 50 49 51 49 49 47 44 41 39 39 42 42 42 42 44 43 40 38 37 35 35 34 32 29 34 31 28 27 28 30 30 29 25 25 23 24 24 25 28 29 30 30
45 46 45 44 44 46 46 44 43 42 43 42 42 41 41 40 40 37 36 36 35 34 33 35 34 33 32 30 28 28 28 27 26 26 26 24 23 24 24 24 26 28 29
46 47 46 44 44 45 45 45 44 43 39 35 33 32 31 31 31 33 34 35 35 36 35 35 35 34 33 32 30 31 30 30 31 30 30 29 26 24 24 25 30 30 29

GFSSE_sfc_30mbdewp_051.txt.gz
Dewpoint
62 65 69 69 70 70 70 70 70 70 70 70 70 69 69 69 69 69 68 68 67 66 65 65 65 64 63 62 62 62 62 62 62 63 64 63 62 62 62 64 62 59 66
63 65 69 69 69 69 70 70 70 70 70 69 69 69 69 69 68 68 67 67 65 64 65 63 62 61 61 61 61 60 60 59 60 61 63 63 64 62 62 64 64 63 65
64 65 65 69 69 69 70 70 70 69 68 68 68 68 68 68 67 67 66 65 65 64 62 61 61 61 59 57 57 56 57 57 57 59 61 62 60 63 62 64 64 63 64
64 64 64 69 69 70 69 69 69 68 68 68 67 67 66 66 66 67 65 65 63 61 61 60 59 57 57 58 58 58 57 57 56 57 55 54 59 63 62 63 63 62 61
63 65 67 69 69 69 69 69 69 68 68 68 67 66 66 67 67 66 65 64 61 60 59 58 56 57 58 58 59 59 57 54 54 54 50 52 58 62 62 62 59 61 62
64 66 68 69 69 69 69 69 68 68 68 68 68 66 65 64 65 65 63 62 60 59 57 56 56 58 58 59 59 58 54 53 53 46 49 59 60 62 62 61 61 61 61
65 66 67 69 69 69 69 68 68 67 67 68 67 65 63 63 63 63 62 61 59 59 58 57 57 58 59 59 59 57 54 52 46 42 44 52 55 58 60 62 62 62 60
64 65 66 68 68 68 68 68 67 67 67 67 66 64 63 63 62 62 61 60 60 59 58 58 58 59 59 59 58 56 53 52 43 41 39 49 57 56 55 56 61 62 60
64 64 65 66 67 68 67 66 66 66 66 65 64 64 63 63 63 62 61 60 60 59 59 59 59 60 59 58 56 54 52 52 49 42 41 45 57 57 56 56 56 58 59
63 62 63 64 64 64 65 66 66 65 64 63 62 61 61 60 60 60 60 60 60 60 60 60 60 59 58 55 52 51 51 52 46 44 46 51 57 57 57 57 57 57 58
60 58 56 56 57 58 60 64 64 63 62 61 60 60 58 55 57 57 58 60 60 60 60 59 59 57 56 57 51 48 49 45 45 44 46 54 55 56 56 57 58 58 58
57 55 55 56 56 53 50 56 55 54 52 55 56 57 56 57 58 58 58 59 59 58 58 57 56 55 55 48 48 49 45 47 45 45 48 51 53 54 55 56 57 57 57
51 49 53 54 54 50 53 52 51 51 55 57 59 58 59 57 58 57 56 59 59 58 53 53 52 50 51 51 48 48 48 46 44 43 48 50 51 51 52 53 55 56 57
46 50 52 54 54 52 51 48 50 50 54 55 57 60 59 58 60 59 55 55 56 53 52 50 49 53 51 50 48 47 47 46 44 44 44 47 47 49 49 51 54 56 56
43 48 52 53 54 56 54 56 56 56 58 60 60 61 62 62 60 60 60 57 55 53 51 51 50 49 49 48 47 46 46 45 45 44 43 49 49 50 51 51 51 52 52
45 51 53 54 55 56 58 59 59 58 58 58 59 61 61 62 61 59 57 55 53 52 51 50 49 48 47 47 45 44 44 44 44 43 42 42 50 50 49 48 48 48 48
46 52 54 55 57 57 57 56 56 55 55 56 57 59 60 61 60 59 56 53 51 49 49 47 47 46 44 43 42 42 42 41 39 40 40 39 40 48 46 45 43 43 43
46 52 55 56 58 58 57 57 57 57 57 58 57 57 57 57 56 53 51 50 49 46 44 45 43 42 41 40 38 37 36 32 32 34 31 30 36 37 43 40 38 37 38
45 52 56 59 60 58 57 56 58 57 57 57 54 52 53 52 50 48 47 46 44 42 43 43 41 39 37 35 32 31 32 29 31 30 30 32 37 38 37 36 36 36 36
47 52 57 60 59 58 59 57 57 56 55 53 49 48 47 46 45 43 44 45 43 42 42 41 40 36 33 31 29 31 33 29 29 30 35 34 34 35 34 34 33 31 34
53 56 60 59 58 59 58 55 53 51 50 46 44 44 44 44 44 45 42 43 43 39 39 38 35 32 30 29 28 28 29 31 30 31 32 33 33 33 33 31 31 31 30
56 57 59 58 58 57 52 52 51 48 44 41 43 45 45 45 45 41 45 41 40 38 34 33 34 32 30 28 27 26 26 25 23 28 32 31 31 30 30 29 29 30 30
57 57 57 55 55 52 48 47 46 43 43 41 43 43 45 44 44 43 41 39 37 34 31 33 32 31 29 28 27 25 23 22 24 25 26 26 29 27 25 26 25 26 28
53 51 49 49 49 47 45 42 42 38 39 43 43 43 43 44 41 39 37 35 35 35 34 33 31 34 31 28 27 25 26 26 25 25 28 25 25 24 26 27 26 26 28
48 48 48 47 45 46 45 43 43 42 43 43 42 42 40 40 38 37 34 33 35 34 33 34 34 33 31 29 28 28 28 29 29 29 27 28 28 27 26 26 27 27 27
46 46 45 44 44 45 45 46 45 44 42 39 36 36 34 31 30 30 31 33 33 33 33 33 37 36 33 33 32 33 31 31 30 31 31 28 27 24 23 23 24 24 27

GFSSE_sfc_30mbdewp_057.txt.gz
Dewpoint
66 69 70 71 71 71 71 71 71 70 70 70 70 70 70 69 68 68 67 67 65 63 62 61 60 58 57 57 58 58 59 60 63 64 64 64 63 62 63 65 65 65 66
68 70 70 71 71 71 70 70 70 70 70 70 70 69 69 68 68 67 67 65 63 62 61 59 56 55 55 56 57 59 60 61 61 63 63 63 64 63 62 64 65 64 64
67 69 70 70 70 70 70 70 70 69 69 69 69 68 68 67 67 65 65 64 62 59 56 56 57 57 58 58 59 59 58 60 59 59 63 62 63 63 62 63 61 62 62
67 68 69 70 70 70 70 70 69 69 69 68 68 68 68 66 65 63 63 62 60 56 56 57 58 58 58 58 58 57 57 57 60 61 61 61 61 62 61 60 59 58 58
65 68 69 70 70 70 70 69 69 68 68 68 68 67 67 65 63 62 62 61 58 56 57 58 58 58 58 57 56 56 56 58 62 61 61 61 62 62 62 62 62 60 61
67 68 68 69 69 69 69 69 68 68 68 67 67 66 65 64 62 62 62 60 57 57 58 58 58 58 57 55 54 53 54 58 56 57 57 59 58 58 59 62 63 62 62
66 67 67 67 69 69 68 68 68 68 67 66 65 65 64 63 61 61 62 61 59 59 58 59 59 58 56 54 50 49 50 55 50 53 56 58 58 57 57 57 60 61 61
65 65 64 68 68 67 67 68 67 67 65 65 64 64 63 62 61 61 61 60 60 59 59 59 58 57 55 53 51 48 47 51 51 51 56 58 59 57 57 58 60 60 60
65 65 66 66 66 66 66 66 66 65 64 64 63 62 61 60 60 60 60 60 59 59 58 58 57 56 55 54 51 51 52 52 50 48 53 58 59 57 57 58 58 59 60
65 65 65 66 66 66 66 65 64 63 62 61 61 60 59 59 59 59 59 59 58 58 58 57 56 55 56 55 54 53 54 51 49 52 55 58 56 55 55 56 57 58 58
62 65 63 66 65 65 65 64 63 62 60 59 59 58 59 59 59 59 58 59 59 59 58 56 56 56 56 54 56 56 53 50 49 52 55 56 54 52 52 53 54 56 58
60 63 64 65 64 63 63 62 61 60 58 58 58 58 57 58 59 59 59 59 59 59 58 57 57 56 56 54 52 52 51 48 48 50 53 52 51 49 50 52 54 55 54
59 60 62 63 63 58 60 60 59 58 57 58 57 57 59 61 60 61 60 60 60 60 59 59 57 56 54 52 52 50 49 49 48 48 51 50 49 49 49 51 52 52 52
59 57 56 57 55 55 59 58 56 56 59 61 62 61 60 60 60 59 58 60 59 56 54 54 53 50 50 49 49 48 48 47 46 47 48 49 49 49 49 50 50 50 49
55 54 54 54 54 55 58 60 61 61 62 62 62 63 61 60 59 60 58 55 54 53 51 49 48 46 48 46 45 44 43 44 44 41 42 49 49 50 50 49 47 46 45
53 54 55 55 54 61 60 57 57 57 58 59 61 62 62 60 59 57 55 53 51 49 47 47 47 46 44 43 41 40 39 39 35 34 35 38 51 51 48 45 42 41 41
53 54 54 56 60 59 57 56 56 55 57 58 59 59 59 57 55 53 51 49 48 46 47 45 43 42 40 39 37 35 38 35 34 35 36 36 50 49 46 41 39 38 39
53 54 56 58 58 57 56 57 57 56 56 56 57 56 55 53 52 50 47 47 47 48 47 44 42 40 38 37 35 33 34 34 35 34 34 34 39 47 45 41 37 37 37
53 54 58 58 58 57 57 57 57 57 56 55 54 52 50 50 49 48 48 46 48 47 44 42 41 38 37 36 33 32 33 32 33 33 33 34 39 43 42 43 40 38 36
56 59 59 58 57 57 57 56 57 57 55 54 51 50 49 49 49 49 47 46 44 42 42 42 38 37 36 36 33 31 31 31 31 31 31 32 30 29 35 35 35 35 35
59 59 58 56 57 57 56 55 56 54 53 51 49 49 48 47 47 46 46 44 43 39 39 39 37 36 35 36 32 31 31 32 28 30 32 32 32 30 31 30 31 32 32
60 59 58 56 57 56 55 56 53 53 51 49 48 48 47 46 46 45 43 41 39 37 38 37 37 35 35 35 31 32 29 29 31 30 32 33 33 33 31 29 30 31 31
59 59 57 57 57 57 57 58 53 51 49 47 46 46 46 46 44 41 40 39 38 37 36 36 36 36 33 34 35 31 30 29 31 32 31 33 33 31 31 30 29 30 29
59 59 59 58 57 58 58 53 50 47 44 45 46 47 46 44 42 40 38 36 37 38 37 37 37 36 37 35 35 34 33 33 31 30 32 32 32 31 31 29 29 26 26
58 58 58 57 57 57 52 49 47 45 45 47 47 46 46 44 43 40 38 37 37 39 39 39 40 36 36 35 35 35 34 34 33 32 30 31 32 31 30 29 26 26 27
57 57 57 56 50 47 48 47 46 46 44 40 39 38 38 35 36 37 37 37 36 35 35 36 37 38 38 38 37 36 35 34 34 33 32 31 30 30 29 26 25 25 24

GFSSE_sfc_30mbdewp_060.txt.gz
Dewpoint
67 71 71 71 71 71 70 70 70 70 70 70 69 69 68 68 68 67 66 65 63 61 59 57 56 55 55 57 59 60 61 63 65 64 64 63 62 61 63 64 65 64 65
68 70 70 71 71 70 70 69 70 70 69 69 69 68 68 68 67 65 64 64 61 57 56 56 57 57 57 58 58 59 60 60 64 63 64 64 63 61 60 63 63 63 63
68 70 70 70 70 70 69 69 69 69 69 68 68 68 67 66 64 63 63 61 58 56 57 57 57 56 56 57 58 59 61 60 61 63 63 62 63 61 61 61 60 59 59
68 69 69 70 70 69 69 69 68 68 68 68 68 67 66 64 63 62 61 59 58 58 57 57 56 56 56 57 58 59 62 61 60 62 62 62 62 62 61 60 59 59 59
68 69 69 69 69 69 69 68 68 68 68 68 68 66 64 63 61 60 60 59 59 58 57 56 56 56 55 55 57 58 61 63 62 61 61 62 61 60 60 61 60 60 60
68 69 69 69 69 69 68 69 68 68 68 68 67 65 63 62 60 60 60 59 59 58 57 57 56 55 54 54 58 56 58 58 57 58 58 59 58 57 57 58 60 60 61
67 67 67 68 69 68 68 68 68 67 67 67 66 65 63 60 60 60 61 61 60 58 58 58 57 55 53 51 55 55 54 52 54 56 58 58 58 57 58 59 60 60 59
64 64 64 64 64 65 68 67 67 65 65 65 65 64 63 61 61 61 61 61 60 60 58 57 56 55 54 54 54 56 56 52 51 55 58 59 59 58 58 59 59 61 60
64 64 65 64 63 65 66 66 65 64 64 64 64 62 61 61 60 60 60 59 59 58 57 56 56 56 55 54 56 54 52 52 49 52 57 59 58 57 56 56 57 58 59
64 64 64 63 66 66 66 64 63 63 62 61 60 60 59 59 59 59 59 59 59 58 57 56 56 55 54 55 56 54 52 51 51 54 56 57 56 54 53 54 56 57 58
63 63 62 65 65 65 65 63 62 61 60 59 60 59 58 58 59 59 58 59 59 58 57 57 57 56 56 53 55 52 50 49 52 52 54 55 53 51 53 54 55 55 54
60 61 64 64 64 64 63 62 61 60 59 59 58 58 58 58 59 60 59 59 59 59 59 59 59 56 53 52 51 50 49 49 48 50 51 51 51 50 52 53 54 53 53
58 62 63 63 63 62 61 60 59 58 57 57 57 57 58 60 60 59 60 60 60 60 58 53 51 51 49 49 48 47 47 47 47 47 50 50 50 49 51 52 52 52 51
58 60 62 63 61 59 59 57 56 56 58 59 61 61 61 60 59 59 59 56 54 53 51 49 48 48 46 45 43 41 43 41 39 39 38 47 50 49 50 51 50 49 47
59 59 60 61 56 58 58 57 59 61 62 62 62 62 61 60 60 56 55 53 51 50 48 46 45 43 42 40 39 38 38 35 34 36 37 43 51 50 50 49 46 45 44
58 55 56 56 56 59 59 59 60 60 60 61 61 61 60 60 57 54 52 50 48 48 46 44 42 40 38 37 35 37 36 34 35 35 35 37 50 50 48 45 43 43 42
54 53 54 56 60 58 57 57 57 58 59 59 60 59 57 55 53 51 49 47 47 47 44 42 40 38 37 36 34 34 34 34 33 33 33 36 46 50 46 41 40 41 39
54 53 56 60 58 56 56 56 55 57 57 57 57 55 54 52 49 47 46 47 49 46 43 41 39 37 36 35 33 32 31 33 32 33 32 32 42 48 45 42 38 38 38
52 53 57 58 57 56 56 56 55 55 55 55 54 52 51 50 48 47 46 47 46 44 43 41 39 37 35 34 32 30 30 31 31 33 32 31 30 34 38 39 41 40 37
53 56 58 58 57 57 56 56 56 54 54 53 50 49 49 50 49 48 47 44 43 40 41 38 36 37 36 34 32 30 32 31 31 32 32 32 31 31 31 31 32 37 39
56 57 58 57 56 56 55 55 54 52 53 50 50 49 48 48 48 46 45 42 40 38 38 37 37 35 34 35 31 33 32 31 31 31 33 33 32 32 31 30 31 31 31
57 58 57 56 56 56 55 55 55 53 52 49 49 49 46 47 46 44 42 40 38 38 37 36 36 35 35 35 32 32 29 30 31 31 32 33 32 32 31 30 31 31 30
58 57 56 56 56 56 55 55 53 50 49 48 47 46 46 45 44 42 40 38 37 37 36 36 36 35 33 35 35 32 30 29 31 32 31 33 33 32 31 30 30 26 26
58 57 57 56 56 56 56 56 51 48 46 46 46 46 46 44 42 40 39 38 38 39 37 38 38 37 37 35 35 34 34 33 31 30 32 32 33 32 31 30 29 26 26
58 58 57 57 57 57 57 56 51 47 46 46 47 46 46 44 43 41 39 38 39 38 37 36 37 36 37 35 34 35 34 34 34 32 32 31 33 31 31 30 27 26 26
58 58 58 57 57 57 56 52 49 46 46 46 46 44 41 38 38 38 37 37 36 35 35 35 35 35 36 38 37 36 35 34 33 33 33 32 32 32 30 29 25 25 25

GFSSE_sfc_30mbdewp_063.txt.gz
Dewpoint
68 70 71 71 70 69 69 69 69 69 69 69 68 68 68 67 66 65 64 63 60 56 56 56 56 56 57 58 59 62 64 65 65 63 63 62 61 61 60 62 63 63 64
69 70 70 70 69 69 69 69 69 69 68 67 68 68 67 65 65 63 62 60 58 56 57 57 56 55 56 59 61 60 63 64 64 64 64 63 61 59 59 60 61 60 60
69 69 70 70 69 69 69 69 69 68 67 67 67 66 65 63 63 61 60 60 58 57 56 55 54 54 57 61 63 63 61 64 63 63 63 62 61 60 60 60 60 59 58
68 69 69 70 69 68 69 69 68 68 67 67 66 64 63 63 61 59 59 60 59 57 55 54 53 56 58 61 64 63 60 63 63 62 62 62 61 60 59 58 58 58 58
68 68 69 69 69 69 68 69 69 68 68 67 66 63 63 61 59 58 60 61 59 56 54 54 54 56 58 60 63 63 64 63 62 61 61 60 58 57 57 58 58 58 58
68 68 68 68 69 68 69 68 68 68 68 67 65 64 62 60 59 59 61 60 58 56 55 55 55 56 57 57 59 60 60 59 57 57 57 58 57 57 58 59 59 60 60
68 68 67 67 68 68 68 68 68 68 67 66 65 64 62 60 59 60 62 61 60 58 57 56 57 58 57 57 58 55 55 56 56 57 58 59 59 58 58 59 60 60 60
65 65 65 64 64 64 66 67 67 67 66 66 65 63 62 62 61 61 61 61 60 59 57 57 56 57 59 56 54 56 53 53 55 57 58 59 59 57 57 58 58 59 59
64 64 64 65 65 64 66 65 65 65 65 65 64 63 62 62 61 61 60 60 59 58 57 57 56 57 58 57 52 53 52 52 53 56 57 58 58 55 54 55 57 58 58
64 64 64 64 64 65 65 64 63 63 63 63 62 60 61 60 60 60 60 59 59 59 58 58 57 57 57 58 52 52 53 53 53 54 56 57 55 53 54 55 56 55 55
63 63 63 63 63 64 64 63 62 62 62 60 60 59 59 59 59 58 60 59 59 59 59 59 58 55 53 53 55 51 51 51 51 52 53 53 53 52 54 55 55 54 53
61 58 59 61 64 64 63 62 61 61 59 59 59 58 58 58 59 59 59 59 60 59 59 56 52 50 49 47 46 47 48 47 47 48 51 50 52 49 53 54 54 53 52
59 60 61 61 64 63 62 61 59 58 58 58 58 57 58 59 60 60 60 60 59 54 51 50 48 47 44 43 42 42 40 39 39 39 43 49 51 48 52 53 53 52 50
59 58 60 59 63 61 60 58 57 56 57 57 57 58 61 60 59 58 55 54 53 50 48 47 45 43 41 39 39 36 35 35 36 36 38 46 50 49 50 51 50 48 47
57 59 61 62 61 60 58 56 57 58 59 61 61 61 60 58 57 55 53 51 49 48 45 43 41 39 37 36 37 35 34 33 33 35 36 40 49 50 48 49 47 46 45
57 59 59 61 57 59 57 58 59 61 61 61 61 60 60 58 55 53 51 49 48 45 43 40 38 37 36 35 34 33 34 33 33 33 35 38 45 50 48 46 44 44 43
57 57 57 57 58 58 58 59 59 60 61 60 59 59 58 55 53 50 48 47 45 44 42 39 38 37 35 34 32 31 32 32 32 31 32 40 48 50 46 42 40 41 40
56 55 55 58 58 57 57 57 58 59 59 59 58 56 54 52 49 47 47 48 46 43 41 39 37 35 34 33 31 30 31 31 32 32 31 31 39 42 40 41 40 39 37
55 54 57 58 57 56 56 56 56 56 56 56 54 53 51 48 47 47 48 46 44 43 41 38 37 35 33 33 32 30 32 30 32 32 31 30 31 31 31 36 39 40 37
54 54 59 57 56 56 55 55 54 54 54 52 51 50 49 49 48 46 46 45 42 41 39 36 35 36 35 33 32 31 33 31 32 32 31 32 31 31 30 31 32 37 37
53 56 58 56 56 55 54 53 52 51 52 49 49 49 49 49 48 45 43 41 39 38 37 35 36 34 34 35 31 33 32 32 31 32 33 32 31 31 31 30 32 30 31
54 56 57 56 56 55 54 55 54 52 51 49 49 48 48 48 46 44 41 39 38 37 36 36 36 35 35 35 32 32 30 31 31 32 32 33 32 32 31 30 31 29 27
54 56 57 56 56 55 55 54 52 51 49 48 48 47 47 46 44 42 41 39 38 37 36 36 36 35 34 35 35 32 30 29 31 32 32 33 32 32 31 31 30 26 26
55 57 57 56 56 56 55 54 52 50 47 47 47 46 46 46 44 42 40 39 38 39 37 38 38 37 36 34 35 35 34 32 31 30 32 32 33 33 32 31 30 26 26
56 56 56 57 56 56 56 55 51 49 47 47 47 46 46 44 42 40 39 39 39 37 36 36 36 36 37 35 35 34 34 34 33 32 31 32 33 33 32 32 30 26 26
57 57 56 57 56 56 56 55 52 49 46 46 46 45 43 41 40 38 37 36 36 35 33 33 33 33 34 36 37 36 35 34 33 32 32 32 32 33 33 32 29 26 26

GFSSE_sfc_30mbdewp_066.txt.gz
Dewpoint
68 69 70 69 69 69 68 68 68 68 68 68 68 68 67 66 65 64 63 60 59 57 56 57 58 58 60 63 64 64 65 65 64 64 62 60 60 60 60 60 60 60 61
68 69 70 69 69 69 68 68 68 68 68 68 68 67 66 65 64 62 61 60 59 57 55 56 57 60 61 61 64 65 65 65 65 64 63 61 60 59 59 60 61 59 58
69 69 69 69 69 69 68 68 68 68 68 67 66 65 64 63 61 61 61 61 59 56 54 57 59 63 64 64 63 65 64 65 64 64 63 61 59 58 58 58 59 58 58
69 69 69 69 68 68 68 68 68 68 67 66 65 64 63 61 60 59 60 60 58 55 56 57 60 63 64 64 63 65 64 63 63 62 61 60 58 56 57 57 57 57 57
68 67 69 68 68 68 69 68 68 68 67 66 64 63 62 60 59 60 62 60 58 56 55 56 59 63 63 63 64 64 63 63 61 59 58 57 57 57 58 59 60 60 59
67 68 68 68 68 69 69 69 68 68 67 65 65 63 61 59 59 60 62 60 59 56 55 56 57 60 61 62 63 62 60 59 57 57 58 59 58 58 58 59 60 60 60
67 68 67 67 68 69 68 68 68 67 66 65 64 63 61 60 60 62 62 61 60 58 57 57 57 58 59 58 58 58 57 58 57 58 58 59 59 57 57 58 59 59 58
66 67 66 65 65 65 63 64 67 67 66 65 64 63 62 62 62 62 61 60 59 59 60 59 59 57 57 56 56 56 56 57 57 58 58 59 58 56 56 57 58 57 57
64 64 65 65 64 63 64 67 67 66 65 65 64 63 62 62 62 61 61 60 59 59 59 60 60 58 56 56 54 54 54 55 55 56 57 57 57 55 55 56 56 56 55
63 64 64 64 64 64 64 65 65 64 64 64 62 61 61 61 60 60 60 60 60 60 60 59 59 59 56 56 56 56 54 53 53 54 55 55 56 54 55 56 55 54 53
62 63 64 64 62 63 64 64 63 63 63 61 61 60 59 59 58 59 60 60 60 60 59 57 55 54 53 53 53 51 49 48 50 51 52 52 53 54 55 55 54 53 52
59 60 61 61 60 63 63 62 61 61 60 59 59 58 58 58 58 59 60 61 60 58 55 53 49 47 44 43 42 41 40 40 38 42 49 51 51 50 54 54 53 52 51
57 59 60 61 61 61 61 60 59 58 58 58 57 57 59 59 58 59 60 58 53 51 48 46 43 41 41 39 37 37 36 36 36 37 44 51 51 47 53 54 52 51 49
56 57 56 57 60 62 60 58 57 57 57 57 57 59 59 60 59 57 55 52 50 48 45 43 40 39 38 36 35 34 34 34 35 36 37 46 50 50 51 52 50 48 47
56 57 54 55 60 60 58 57 56 56 57 57 58 60 59 58 54 53 51 49 47 44 42 39 37 36 35 34 34 33 33 32 32 35 38 44 47 51 46 48 48 46 45
54 56 58 60 60 59 57 56 56 59 60 60 60 60 59 56 54 51 49 47 45 42 40 37 36 35 34 32 32 33 33 32 31 33 39 46 52 50 47 46 45 44 43
55 58 58 60 59 58 57 57 59 60 61 60 60 60 58 55 52 49 47 44 43 41 39 37 36 35 33 32 30 31 32 32 31 30 32 43 44 44 45 45 42 41 40
54 57 57 58 58 58 57 58 59 60 60 59 58 57 55 52 49 47 46 45 44 42 39 37 35 34 33 32 30 31 31 32 32 31 30 32 34 34 38 45 43 41 38
56 55 55 58 57 57 56 57 58 58 58 57 55 54 52 49 48 48 47 45 44 41 39 37 36 34 32 32 30 32 32 31 32 31 31 30 31 30 31 37 42 43 39
56 55 57 57 56 56 56 56 55 55 55 54 53 51 48 47 47 47 46 44 43 41 38 36 35 36 34 33 32 32 33 31 32 32 32 31 31 31 30 30 31 32 37
54 55 57 56 56 55 55 54 53 52 52 51 50 49 48 48 46 46 44 41 40 38 36 35 35 34 34 35 32 33 32 32 32 32 33 32 32 32 31 30 31 31 29
53 55 57 56 55 55 54 53 52 52 51 49 49 49 49 48 46 43 41 40 39 37 36 36 35 35 35 35 33 32 30 31 31 33 32 33 32 32 31 31 30 28 26
53 54 56 56 55 55 54 54 52 51 49 48 48 47 48 48 46 43 41 39 38 37 36 36 36 35 34 35 35 32 29 27 30 32 32 32 33 32 33 32 30 30 26
53 55 56 56 56 55 55 54 52 50 47 47 48 47 46 46 44 42 41 39 38 38 37 38 38 36 36 34 35 35 34 33 31 30 32 32 33 33 33 33 32 31 27
54 55 56 56 56 56 55 55 53 51 48 47 47 46 46 44 42 40 39 39 39 38 37 36 36 36 36 34 34 34 34 34 33 32 31 32 33 33 33 33 34 31 27
55 55 56 56 56 56 56 55 54 51 47 46 46 45 44 42 40 39 39 38 36 36 34 32 32 32 33 35 35 35 35 34 33 32 31 31 32 33 33 34 32 29 26

GFSSE_sfc_30mbdewp_069.txt.gz
Dewpoint
66 66 69 70 69 69 69 69 69 69 69 69 68 68 67 66 65 63 61 61 60 58 58 60 62 65 65 64 64 65 66 65 64 63 61 60 59 59 60 60 56 55 58
67 65 69 69 69 68 68 69 68 69 69 68 68 67 66 65 63 61 61 60 59 58 58 59 60 63 65 64 64 66 65 65 64 64 62 60 59 58 58 59 60 58 58
67 66 67 69 69 68 68 68 68 69 68 67 66 66 65 63 62 62 61 60 59 58 60 63 64 62 64 64 65 65 65 65 64 63 59 52 54 57 57 58 58 57 57
67 65 66 68 68 68 68 68 68 68 67 66 65 65 63 62 62 62 61 59 60 60 61 64 65 64 63 66 66 65 64 63 62 58 53 51 53 58 59 59 59 59 57
67 66 66 68 68 69 68 68 68 67 67 66 65 63 62 62 62 61 60 60 60 59 62 63 63 64 65 65 65 64 63 61 59 54 53 54 54 58 59 58 58 59 60
67 66 67 68 68 68 68 68 68 67 66 65 64 62 62 62 61 61 60 59 59 58 60 63 63 64 65 64 63 61 60 59 55 53 54 56 55 57 58 58 58 59 59
67 66 67 67 68 68 69 68 67 66 66 65 63 62 62 62 62 62 61 60 60 59 59 60 61 62 62 61 60 59 59 58 54 54 54 54 56 57 57 57 57 57 56
67 67 66 66 66 68 67 67 67 66 65 64 63 62 63 63 63 62 62 61 61 61 60 59 59 59 59 58 58 58 58 57 53 53 53 53 57 56 57 57 56 54 53
66 65 65 64 64 64 67 67 66 66 65 64 63 63 63 63 62 61 61 61 61 61 61 59 60 60 59 58 57 57 57 57 53 53 53 53 56 55 56 55 55 53 53
64 65 64 64 64 63 61 66 65 65 64 62 62 61 61 60 60 60 60 61 61 61 61 60 59 58 58 58 56 54 53 52 51 52 51 52 56 55 56 55 54 53 52
63 63 63 61 61 60 60 62 64 63 62 61 60 60 59 58 57 57 60 61 61 59 58 56 54 53 53 51 50 46 45 47 50 49 48 55 52 56 56 55 53 52 51
60 61 61 60 60 60 60 63 63 61 59 60 58 58 58 58 58 58 60 61 58 56 53 51 49 46 43 41 39 40 38 39 39 40 43 53 52 52 55 54 52 51 50
59 59 59 59 60 61 62 61 60 59 58 59 58 57 59 59 60 60 61 56 52 50 44 44 43 40 40 38 38 37 37 36 36 35 40 49 50 50 54 54 51 50 48
58 57 58 58 60 62 61 59 58 58 57 57 57 60 61 60 61 59 56 54 50 47 45 43 42 41 39 38 37 36 36 34 34 34 35 47 50 52 52 53 50 48 47
55 56 58 60 59 61 59 58 57 57 57 58 59 61 62 60 57 55 53 50 47 44 42 41 39 37 37 36 35 34 34 34 36 36 39 53 52 51 47 50 48 47 46
54 53 55 57 58 60 58 57 56 57 58 58 60 61 60 57 55 53 51 48 45 42 40 38 37 34 34 34 34 34 34 32 34 39 43 47 49 48 48 46 46 45 44
53 50 52 55 60 60 57 56 57 58 60 60 60 61 59 56 54 51 48 45 42 42 41 39 37 36 33 32 34 34 33 34 32 33 36 43 42 44 46 45 44 41 40
54 52 52 57 59 59 57 56 58 60 61 61 61 60 58 55 52 49 46 45 44 42 40 38 36 35 34 32 34 33 32 33 32 32 32 32 33 34 37 43 44 43 40
55 55 57 59 59 59 58 59 60 61 61 60 60 58 55 52 51 48 47 46 45 42 41 38 38 36 34 33 32 35 33 32 33 31 31 32 32 32 31 33 36 39 41
54 56 57 59 59 58 58 59 59 60 59 58 57 56 53 50 50 49 47 46 44 41 39 38 38 38 36 36 32 33 35 33 34 34 32 31 33 33 32 32 31 30 35
55 55 57 57 58 57 57 57 57 57 57 57 55 52 50 49 50 49 46 45 43 41 39 40 38 38 37 37 35 34 34 34 35 34 34 33 33 33 34 33 31 31 29
54 55 57 57 57 57 56 56 56 55 54 54 52 50 49 49 49 47 45 43 42 40 40 40 39 37 37 38 34 33 28 28 32 34 34 34 35 33 32 33 34 32 31
56 56 57 57 57 57 56 55 54 53 52 51 50 49 49 48 47 46 44 43 42 40 39 40 40 38 36 38 38 32 24 19 27 33 35 34 35 34 35 33 34 32 32
55 56 56 57 56 56 56 55 53 52 50 49 49 49 49 49 47 45 43 43 41 40 40 40 40 39 38 34 37 37 37 34 22 21 31 33 35 35 35 34 32 33 35
55 55 57 57 56 56 56 55 54 53 52 51 49 48 48 47 46 43 43 42 42 41 42 42 40 39 37 32 30 30 33 33 35 31 25 28 31 33 33 33 32 32 33
55 56 57 56 56 56 56 55 54 53 52 49 47 47 46 45 44 43 41 42 41 40 39 38 37 36 34 34 33 33 31 28 28 31 29 26 27 30 33 32 30 30 30

GFSSE_sfc_30mbdewp_072.txt.gz
Dewpoint
64 63 69 69 70 70 70 70 70 69 69 69 69 68 67 65 64 63 63 62 62 62 62 65 66 65 64 65 65 65 65 64 63 62 60 58 58 58 59 60 54 54 58
65 63 69 69 70 70 69 69 69 69 69 68 68 67 65 64 63 62 62 61 61 60 63 65 65 65 64 65 65 65 64 64 63 62 59 57 57 57 58 58 59 57 58
64 61 66 69 69 69 69 69 69 69 68 67 66 65 64 63 63 62 61 61 61 60 62 64 65 64 64 65 65 64 64 63 61 56 52 50 55 59 59 60 60 59 59
63 60 62 69 68 68 68 69 69 68 67 67 65 64 63 63 63 62 61 62 63 64 64 63 64 64 65 65 65 64 63 61 59 56 48 50 53 59 58 59 59 59 58
63 60 62 68 68 68 69 69 68 67 67 66 64 64 63 63 62 61 62 62 63 64 65 65 64 65 66 65 64 63 61 58 55 49 50 51 52 58 58 57 55 57 59
63 61 67 68 69 69 68 68 67 67 66 65 63 63 63 62 62 62 62 62 64 64 64 64 65 66 65 64 62 61 59 57 55 49 50 53 54 58 57 57 56 56 56
64 63 66 68 68 68 68 68 67 66 65 64 63 63 63 63 62 62 61 62 62 63 63 64 65 64 63 61 60 60 58 55 49 49 49 50 56 58 57 55 54 53 54
64 65 64 67 67 68 67 67 66 66 64 63 63 64 64 63 63 62 62 62 62 61 62 63 63 62 60 60 60 59 57 54 49 49 48 50 57 57 56 55 53 52 52
65 64 65 65 66 66 66 66 66 65 64 63 64 64 63 63 62 62 61 61 61 61 61 61 61 60 59 59 59 57 55 53 49 49 46 48 56 56 56 54 52 51 52
65 65 64 64 64 62 64 65 65 64 64 63 63 62 61 61 61 61 60 61 62 61 60 60 60 59 58 57 55 52 51 50 49 46 46 52 56 56 56 54 52 51 51
63 63 62 61 60 61 60 64 63 63 62 61 60 59 55 52 52 53 60 62 61 60 58 57 57 54 52 49 45 44 45 47 46 44 44 55 52 56 56 54 52 51 51
59 60 60 59 58 58 58 61 60 59 54 52 53 53 51 52 51 54 59 60 58 56 54 52 49 47 47 45 43 42 43 43 40 38 41 51 53 52 56 54 51 50 50
60 59 59 59 58 57 57 57 60 57 57 54 53 51 54 55 56 56 56 54 52 51 46 46 46 45 45 44 43 42 40 36 35 33 39 48 50 51 54 53 51 49 48
59 58 59 58 57 57 56 55 57 56 56 55 56 55 56 56 57 58 56 53 51 49 48 47 46 46 44 41 39 37 35 31 30 28 43 53 52 53 54 53 50 48 47
56 56 55 56 57 57 59 59 57 56 56 55 58 57 58 58 59 58 56 52 50 49 48 46 44 41 39 36 34 32 32 32 32 32 39 51 51 50 48 51 49 47 46
55 55 56 55 55 54 54 57 56 56 56 57 58 60 61 60 59 56 54 52 49 48 46 43 39 35 33 33 33 33 32 30 31 34 35 42 47 48 47 46 46 46 44
55 56 57 57 58 58 57 55 54 55 55 56 59 62 60 59 58 56 53 50 47 46 43 40 37 35 32 30 31 31 30 32 30 30 29 35 39 42 46 47 45 43 41
56 56 57 54 58 59 56 54 53 55 58 60 61 62 60 58 57 54 51 48 46 43 40 38 35 33 32 31 32 30 30 30 31 29 29 29 28 26 40 40 43 44 44
51 50 50 53 58 59 58 53 54 57 60 61 62 61 60 58 55 52 50 48 46 42 41 36 36 35 34 32 29 32 32 30 31 27 30 30 32 28 25 34 32 33 36
49 49 51 56 59 60 59 58 58 59 61 62 61 60 59 56 54 52 50 48 44 42 40 37 37 37 36 35 31 31 35 32 31 31 31 28 30 30 29 30 30 28 31
51 51 54 57 60 60 57 54 55 58 60 60 60 59 57 52 53 51 48 47 44 42 39 41 40 40 38 37 36 35 34 35 34 32 32 30 30 30 31 31 30 27 26
52 53 55 57 59 59 54 52 56 58 59 59 58 56 54 52 52 49 47 45 44 42 41 41 40 39 38 38 36 34 29 28 32 32 31 30 31 32 29 30 32 31 30
51 53 53 55 56 58 56 53 56 58 57 57 56 53 51 51 49 47 47 45 45 41 40 41 41 41 39 39 38 31 22 19 20 24 30 31 31 32 31 31 31 31 30
52 51 52 53 55 58 58 55 55 54 54 55 54 52 49 49 48 47 46 46 44 40 41 41 42 41 40 36 35 33 32 28 18 17 20 26 30 31 31 31 30 30 29
52 53 55 55 57 58 59 57 56 55 55 54 53 51 49 49 48 46 46 45 43 41 42 42 42 41 38 33 27 25 26 27 27 27 27 25 25 25 26 28 30 30 29
53 56 56 56 57 57 58 58 57 56 55 53 52 51 49 48 48 47 45 45 44 42 42 43 41 40 35 31 27 26 24 23 23 24 23 22 21 20 22 27 28 28 28

GFSSE_sfc_30mbdewp_075.txt.gz
Dewpoint
60 63 69 71 70 70 70 70 70 69 69 69 68 68 67 66 65 65 65 64 65 65 66 66 66 65 65 64 64 64 64 63 62 61 59 57 56 57 58 61 53 55 59
61 63 69 70 70 70 70 70 69 69 69 68 68 67 65 65 64 64 64 64 64 65 66 65 65 65 65 64 64 63 63 63 62 60 59 59 59 59 59 61 61 59 59
61 62 67 70 70 70 70 69 69 69 68 67 66 65 64 64 63 63 63 63 65 66 66 65 64 64 64 64 63 62 60 59 60 61 55 52 57 59 59 59 60 60 59
61 62 66 70 70 69 69 69 69 68 68 66 65 64 64 63 63 63 64 64 64 65 65 65 65 65 64 64 64 61 58 56 54 54 48 49 53 58 57 56 57 57 57
61 61 65 69 69 69 69 69 68 68 67 65 64 64 64 63 63 64 64 65 66 64 65 65 65 65 65 64 63 59 56 55 56 49 49 51 52 57 56 55 54 56 57
60 60 67 68 68 69 68 68 68 67 66 65 64 64 63 63 64 63 65 66 66 66 65 65 65 65 64 62 60 58 57 57 55 47 50 53 55 57 55 54 54 54 55
60 64 66 68 68 68 68 68 67 66 64 64 64 63 63 63 63 64 64 65 65 66 66 66 65 63 61 60 59 58 56 56 46 46 48 51 56 57 55 53 53 53 54
62 65 65 68 68 68 67 67 66 65 64 64 64 64 64 63 63 63 63 63 65 65 66 65 63 61 61 61 59 57 54 53 47 45 48 53 57 57 55 53 52 52 52
65 64 65 66 67 67 66 66 65 64 64 64 64 64 64 63 62 62 62 62 63 63 64 62 61 61 60 59 56 53 50 51 46 45 45 50 57 56 55 52 51 51 51
64 65 64 64 64 65 64 65 65 64 65 65 64 62 61 61 61 60 61 62 62 62 62 61 60 59 58 55 52 49 49 51 45 42 49 54 57 57 55 53 51 51 50
62 63 64 62 61 61 61 64 63 63 63 62 61 59 55 55 53 56 62 62 61 61 60 59 57 55 51 48 45 44 46 44 40 40 45 54 54 57 55 53 51 51 49
60 60 60 59 58 59 60 60 60 58 56 55 54 52 48 51 54 55 60 60 58 57 57 56 53 51 50 46 45 44 43 41 36 35 40 48 50 52 56 53 51 50 48
59 59 59 59 59 59 59 59 57 55 53 54 53 51 52 55 56 57 57 54 52 52 49 49 48 48 48 47 47 42 36 33 32 30 45 49 49 50 55 53 50 49 47
58 58 58 59 58 57 57 54 56 59 56 55 54 56 58 56 57 56 53 53 52 50 49 49 49 49 47 43 39 37 35 32 32 29 47 52 52 51 56 53 50 48 47
57 58 58 57 57 56 53 51 51 56 56 56 57 57 58 57 57 56 55 53 51 51 50 49 49 46 41 37 35 33 32 32 33 32 45 50 51 50 49 51 49 48 47
55 55 56 57 58 57 56 56 56 57 56 57 58 58 59 59 59 58 56 53 52 51 50 49 45 39 35 36 35 33 33 31 32 33 34 44 49 50 49 48 47 46 44
54 55 55 55 55 54 54 52 51 54 55 55 58 61 60 60 60 57 55 54 51 50 48 44 39 37 34 33 34 33 31 32 31 31 29 33 43 45 47 48 47 47 45
54 54 55 55 55 54 54 51 51 52 55 57 59 61 61 61 59 58 55 52 50 49 44 40 38 36 36 35 36 33 32 31 31 30 30 29 29 26 43 41 39 38 39
55 54 56 56 55 56 55 54 52 54 58 59 61 61 60 59 58 55 53 51 50 46 42 39 38 39 38 36 33 35 36 32 33 27 31 30 31 31 28 34 31 32 35
53 53 55 57 57 56 57 55 54 55 58 60 61 60 60 58 57 54 52 52 48 44 42 39 40 39 39 39 37 36 38 37 33 32 32 31 30 32 31 31 32 32 35
50 50 50 52 56 58 58 54 52 52 58 61 60 60 60 57 56 54 52 51 46 43 41 43 43 43 41 41 39 39 37 38 37 34 33 32 31 31 31 32 33 30 29
48 47 49 52 56 57 54 51 49 51 58 60 59 59 58 56 55 54 51 49 45 43 43 43 42 41 41 41 40 37 33 32 34 35 33 32 32 32 32 30 31 32 32
48 49 50 53 56 58 52 48 50 54 56 58 58 57 57 55 55 53 50 48 45 44 43 44 44 43 41 41 41 38 31 27 27 27 28 30 33 33 34 32 32 32 31
50 51 52 53 56 57 58 50 51 55 55 56 56 56 54 54 53 51 49 47 47 44 43 44 44 44 43 40 39 36 35 34 30 28 27 26 28 31 31 31 31 31 30
50 51 52 53 52 54 57 57 52 52 52 55 56 55 54 52 51 50 48 47 47 44 44 43 44 44 42 39 35 31 30 28 27 27 27 28 28 25 23 22 26 29 30
51 53 53 52 51 53 58 58 56 54 53 55 56 53 53 53 50 49 47 47 47 45 45 45 45 44 39 37 34 31 27 25 25 26 26 26 22 22 22 21 24 27 28

GFSSE_sfc_30mbdewp_078.txt.gz
Dewpoint
62 67 71 70 70 70 70 70 70 69 69 69 68 68 67 67 67 67 67 67 67 67 66 66 66 63 62 60 60 63 63 62 61 61 61 59 59 60 60 61 59 59 59
64 68 70 70 70 70 70 70 69 69 69 68 68 67 66 66 66 66 66 66 67 66 66 65 64 62 61 60 62 63 62 62 62 61 60 60 59 58 59 61 61 59 59
64 68 70 70 70 70 70 69 69 69 68 68 67 66 65 65 65 65 66 67 67 66 65 65 63 62 61 60 61 60 60 61 62 61 57 56 58 57 58 58 58 58 57
64 68 69 70 70 69 69 69 69 69 68 67 66 65 64 64 65 65 66 67 67 66 64 64 62 62 61 59 57 57 58 58 57 57 53 53 55 56 55 55 56 56 56
63 66 69 69 69 69 69 69 69 68 67 65 65 64 64 65 65 66 66 66 67 66 64 64 63 63 62 59 58 58 58 58 58 52 55 55 55 55 54 54 55 55 56
62 66 69 69 69 68 68 68 68 67 65 65 65 64 64 65 65 67 67 66 66 66 65 65 63 63 61 59 58 57 57 58 57 53 55 58 57 55 54 54 54 54 54
62 68 69 68 68 67 68 67 67 66 65 65 64 64 65 65 66 67 66 67 66 67 66 64 63 61 60 58 57 55 55 53 51 51 54 57 57 55 54 53 53 52 53
65 67 68 68 68 67 67 67 66 65 65 65 64 65 65 65 65 66 66 67 67 67 66 64 62 61 59 57 54 51 50 53 47 53 55 57 57 55 54 52 52 51 50
63 66 68 66 66 67 66 66 65 65 65 65 65 64 64 64 64 64 65 66 66 65 64 62 61 60 59 54 50 49 51 52 51 50 53 57 58 55 54 52 51 50 49
60 60 64 66 66 65 65 65 65 65 65 65 64 63 62 62 63 63 63 64 64 63 62 61 60 58 55 51 49 48 49 49 47 51 54 56 58 56 54 52 51 49 48
59 61 63 63 63 64 64 64 65 64 63 62 61 60 57 56 59 60 62 63 63 62 60 59 57 54 51 48 46 44 47 43 42 45 49 53 57 57 54 52 51 49 47
60 61 61 61 62 62 62 62 63 62 60 59 57 55 54 58 59 61 61 61 61 60 58 56 53 51 49 47 46 46 41 40 40 40 47 48 50 53 55 52 51 48 47
59 59 59 59 59 59 60 59 59 57 55 56 55 54 56 59 59 59 57 56 56 55 52 53 53 51 52 49 44 40 39 37 39 45 51 50 49 50 55 52 50 48 47
58 57 58 58 56 55 55 54 54 56 56 52 55 56 58 58 57 57 56 54 54 52 51 51 53 51 47 42 40 39 37 36 36 46 51 52 52 54 55 52 50 48 47
57 57 57 58 56 55 54 55 57 57 55 55 56 59 58 58 57 56 56 55 53 53 53 51 51 49 42 39 38 36 36 35 36 46 48 49 52 51 53 51 50 49 47
56 56 57 57 57 54 54 54 56 55 55 56 58 58 58 58 59 58 57 55 53 53 52 52 51 44 42 39 37 36 35 35 34 36 46 49 50 51 50 49 48 47 45
55 55 55 56 56 55 55 52 53 55 55 55 57 57 58 59 59 59 56 55 53 55 53 49 43 41 38 37 37 36 37 34 35 32 39 46 49 49 50 49 49 48 47
55 55 55 55 55 54 53 52 51 51 54 56 57 57 56 58 60 58 57 55 55 50 48 44 41 40 39 40 38 37 35 34 33 32 32 34 39 43 48 47 45 41 40
54 54 55 55 55 54 53 51 49 48 54 55 56 56 56 60 60 59 58 56 52 51 48 44 42 41 40 39 38 38 38 37 34 32 32 32 34 34 38 40 35 34 35
54 54 54 54 54 53 52 50 51 55 55 56 57 59 59 61 61 58 56 53 52 48 46 44 42 42 43 42 40 40 40 39 37 34 35 33 34 34 33 35 36 37 37
54 54 53 53 54 54 56 54 54 53 57 58 57 58 60 60 59 58 55 54 53 48 45 46 46 43 42 43 42 42 43 42 38 37 37 35 34 33 35 32 34 34 36
53 54 55 55 56 56 57 55 53 54 58 59 59 59 60 59 59 57 55 54 52 48 47 46 46 45 45 44 42 41 38 40 40 39 38 36 36 34 34 35 34 33 34
53 53 54 56 56 57 57 56 52 56 57 59 59 59 59 58 58 57 56 53 50 49 47 48 46 45 45 45 43 40 36 34 34 36 38 36 34 35 36 36 35 34 34
50 52 51 51 56 58 58 52 50 51 55 57 58 58 58 58 56 56 54 52 49 49 47 48 47 47 45 43 44 43 39 36 34 31 32 32 37 35 35 36 35 34 33
50 50 50 51 55 57 58 57 51 55 55 57 58 58 56 56 55 57 55 52 50 49 49 47 48 45 45 43 39 35 35 36 36 33 28 29 31 32 30 28 30 33 31
52 52 52 54 55 57 58 58 56 56 56 56 57 57 56 55 55 54 53 51 51 49 49 49 48 47 43 39 38 37 34 30 29 30 30 30 30 28 28 27 27 30 33

GFSSE_sfc_30mbdewp_081.txt.gz
Dewpoint
64 70 71 70 70 70 69 69 69 69 69 68 68 68 68 68 68 68 68 67 67 66 63 61 62 60 59 58 61 62 62 62 62 62 60 59 59 60 60 59 60 59 59
64 70 70 70 70 70 69 69 69 69 68 68 68 67 67 67 68 68 68 67 66 66 62 61 60 59 59 59 62 62 63 63 62 61 60 59 58 58 58 59 59 58 58
60 62 70 70 70 70 69 69 69 69 68 68 67 66 66 67 67 68 67 67 66 65 62 60 58 59 61 62 63 63 63 62 61 59 57 56 56 56 57 56 57 57 57
60 62 67 70 70 69 69 69 69 68 67 67 66 66 66 66 67 68 67 66 66 65 61 59 57 58 60 61 60 59 59 59 59 56 55 55 54 55 55 55 56 56 57
58 60 61 69 68 69 69 69 68 67 66 66 65 65 65 66 67 67 67 66 65 64 61 59 58 59 59 59 59 59 58 59 57 56 55 55 54 54 54 54 55 55 56
57 57 62 68 67 69 69 69 68 66 66 65 65 65 66 66 67 67 67 67 66 65 61 60 59 59 58 57 56 55 57 58 56 57 57 56 55 54 54 53 53 54 54
62 63 67 67 67 69 69 68 67 66 65 65 65 66 66 67 67 67 67 67 66 65 62 60 59 58 57 56 54 54 56 55 56 57 57 56 55 54 53 52 52 53 53
60 65 68 68 68 68 68 67 66 66 65 65 66 66 67 67 67 67 67 67 67 65 63 61 59 57 55 53 51 51 55 56 56 57 57 57 56 54 53 52 50 51 52
61 60 61 67 67 67 66 66 66 65 65 66 65 66 66 66 67 68 68 67 66 64 62 60 59 56 52 50 50 49 51 54 54 56 57 57 56 54 53 51 49 50 51
60 60 60 63 66 65 65 65 65 65 65 65 64 64 64 65 66 67 66 66 64 62 61 60 57 54 50 48 47 46 50 52 53 54 56 59 56 55 53 51 49 49 50
58 59 59 61 64 65 65 65 65 64 63 63 62 62 61 62 62 64 65 64 63 62 60 57 55 51 48 47 46 45 45 45 45 49 53 57 57 55 53 52 49 48 49
58 59 61 63 64 64 64 64 63 61 60 59 57 56 59 60 61 62 63 63 62 60 56 56 53 52 48 47 43 41 40 40 40 45 49 51 53 55 53 52 49 48 47
59 60 61 62 63 63 63 62 60 59 57 56 55 57 60 60 59 59 59 59 59 56 55 55 53 50 49 44 39 38 38 43 42 47 50 50 50 55 53 52 49 48 47
58 58 59 59 58 57 57 57 57 56 55 54 54 58 59 58 56 55 54 54 53 51 52 51 52 47 42 40 38 36 35 42 43 49 52 53 54 55 54 51 50 48 47
56 57 56 56 55 53 52 51 50 50 48 54 56 59 58 57 56 56 53 53 52 51 53 52 50 45 40 38 37 36 35 38 45 45 51 52 53 55 53 51 50 49 48
56 56 56 56 56 55 54 53 54 55 55 57 58 58 58 58 57 57 54 54 54 53 52 51 50 42 39 37 35 35 35 34 44 45 48 51 52 52 51 49 49 47 45
56 56 55 55 54 55 54 56 57 56 57 57 56 56 57 59 58 58 56 54 54 53 53 52 48 43 40 38 35 36 35 34 32 40 45 49 51 51 51 49 49 49 48
54 54 55 55 54 54 53 54 55 55 54 54 54 56 57 59 58 58 56 53 54 53 49 44 40 39 36 37 36 36 36 34 32 32 42 45 44 47 49 49 47 45 43
54 54 53 53 53 53 53 53 53 52 52 53 54 57 52 54 59 58 56 56 52 48 45 42 42 39 40 40 38 38 36 35 33 33 33 35 36 42 42 45 40 39 37
54 53 53 52 52 53 52 50 49 49 52 55 54 56 52 54 57 59 58 55 52 49 46 43 42 44 41 41 41 38 39 38 36 34 33 32 34 37 38 38 36 36 38
54 53 53 53 53 52 50 48 46 47 54 54 55 56 56 56 57 58 57 54 51 48 44 44 43 41 42 43 41 42 44 42 38 36 36 35 35 35 35 35 35 35 38
52 53 53 53 53 51 50 48 49 51 55 56 57 57 56 57 58 59 54 53 52 48 46 45 43 43 44 43 42 41 38 39 40 38 38 37 36 35 34 34 35 35 34
52 52 52 52 52 52 52 52 54 54 56 57 57 57 59 59 60 59 55 53 52 50 45 45 45 44 43 44 42 40 36 34 34 36 39 39 37 35 34 35 35 35 35
52 52 50 51 51 52 55 55 55 52 54 56 57 58 59 59 58 58 56 54 52 49 45 46 47 46 45 43 43 42 39 36 33 31 33 32 33 35 36 36 36 35 36
51 51 51 54 55 55 56 56 56 52 55 57 58 57 58 58 57 57 56 54 51 48 47 47 47 47 45 42 40 38 36 38 36 32 31 29 32 33 32 32 35 33 35
50 52 53 53 55 56 57 57 57 52 55 56 57 57 57 56 56 56 56 54 50 49 48 47 47 45 44 42 39 38 34 31 30 29 30 30 30 30 29 28 27 27 29

GFSSE_sfc_30mbdewp_084.txt.gz
Dewpoint
67 70 69 67 70 70 70 70 69 69 69 69 69 69 69 68 68 68 68 67 65 64 60 60 62 62 60 59 61 63 63 63 62 61 59 59 59 59 59 58 59 59 59
66 70 70 70 70 70 70 69 69 69 68 68 68 68 68 68 68 68 67 66 64 61 59 61 62 61 60 61 63 63 63 62 61 60 59 58 57 57 58 57 59 58 57
65 69 69 70 69 69 69 69 69 68 68 68 68 68 68 68 68 67 67 65 63 61 60 61 60 61 62 63 64 63 62 60 59 58 56 55 55 56 56 57 58 58 58
63 67 68 69 69 69 69 69 69 68 67 67 67 67 68 68 67 67 67 65 63 61 61 60 60 61 61 61 61 61 62 60 58 56 54 54 54 55 56 56 56 57 57
62 64 68 68 68 69 69 69 68 67 67 66 66 67 67 68 67 67 66 64 63 60 59 59 59 59 60 59 59 61 60 59 57 55 54 54 54 54 55 55 55 57 57
60 62 62 67 64 67 69 69 68 67 66 66 66 67 67 67 67 66 66 65 63 61 59 59 59 60 58 58 60 61 59 59 57 56 55 55 54 54 54 54 54 54 54
61 61 61 65 67 68 69 68 67 66 66 66 66 67 67 68 67 67 66 65 63 61 60 59 59 57 57 57 60 59 59 58 56 55 55 54 54 53 52 53 53 53 53
61 64 62 63 66 66 68 67 66 65 66 66 66 67 67 67 68 67 67 65 64 62 61 59 56 55 56 54 58 59 58 58 57 56 56 55 55 53 51 52 53 52 52
60 61 61 59 64 65 68 66 65 65 66 66 66 67 67 67 68 67 67 65 64 61 59 57 55 53 53 53 57 57 57 57 57 57 56 55 54 53 51 50 51 51 51
61 61 59 59 60 64 66 65 65 66 66 67 67 66 67 67 67 67 66 64 62 61 59 55 52 51 50 52 56 56 56 56 56 57 58 57 54 53 51 49 51 50 50
59 58 59 61 61 63 65 65 65 65 65 65 65 65 66 66 66 65 64 63 62 60 58 54 52 52 48 51 52 51 50 50 52 55 58 58 54 53 51 49 50 49 49
56 57 62 63 64 64 64 64 64 63 62 62 62 61 62 64 65 64 64 63 61 58 56 55 53 49 45 40 43 44 41 42 46 50 54 58 55 54 52 50 49 48 48
58 59 62 62 63 63 63 62 60 59 58 57 59 60 61 62 63 63 62 60 59 57 55 53 50 50 43 38 39 40 42 41 43 47 51 52 56 53 51 50 49 48 47
59 60 61 62 62 62 62 60 58 57 56 57 59 59 59 59 59 59 58 56 54 54 52 51 49 43 40 38 37 40 41 42 46 50 53 54 54 53 52 50 50 48 47
57 57 58 59 59 59 59 58 56 55 54 58 58 58 56 56 55 55 55 53 51 52 51 52 45 40 39 37 36 36 41 43 44 47 51 54 56 54 51 50 50 49 47
56 55 56 55 54 54 53 53 51 52 56 58 59 58 57 56 56 54 53 51 51 52 52 50 44 39 37 35 35 36 39 44 42 44 50 53 54 53 51 49 50 48 46
56 55 54 54 54 53 53 51 50 56 58 57 59 59 57 57 56 54 53 53 52 53 52 51 44 41 38 36 35 35 35 41 43 44 47 50 52 51 50 49 49 48 47
55 54 54 54 54 54 55 55 56 57 57 57 57 58 58 58 58 56 55 53 54 53 52 50 44 41 39 37 36 36 35 34 36 44 46 47 46 49 50 50 47 42 42
55 55 54 54 53 54 54 55 54 54 54 55 55 55 56 58 59 57 55 54 54 52 50 45 41 39 38 38 37 36 36 34 32 40 43 43 42 45 45 48 43 41 40
54 54 54 54 54 54 54 54 53 52 52 53 54 55 55 55 59 57 56 55 52 49 46 42 40 42 40 40 38 37 38 37 34 34 38 36 37 41 40 42 40 38 40
53 53 53 53 54 53 52 51 51 50 50 52 54 53 56 54 57 58 57 55 51 47 45 42 42 41 42 43 41 42 42 43 38 35 34 33 34 37 38 37 35 35 38
53 53 52 52 52 50 50 49 48 47 51 53 55 55 56 56 56 58 57 55 52 49 45 44 42 42 42 43 40 40 38 39 40 38 37 36 35 36 36 36 34 35 37
52 52 52 51 51 50 49 48 49 49 53 53 54 55 55 56 57 58 56 55 52 49 46 45 43 42 42 43 42 39 37 35 35 35 38 39 37 37 35 35 36 35 35
52 53 52 52 51 50 50 48 48 46 48 54 54 55 56 57 57 58 57 55 53 50 46 45 45 44 44 42 43 42 39 37 33 32 33 33 35 36 36 36 37 37 36
52 52 52 52 52 50 51 50 49 52 54 54 55 56 56 57 58 59 58 55 53 51 47 46 46 45 45 44 42 42 39 38 35 32 30 31 32 32 31 34 31 28 30
51 51 52 51 51 51 52 52 52 52 54 55 56 56 56 57 58 57 57 55 53 51 49 47 47 46 45 44 41 39 36 34 34 34 33 32 30 31 30 29 27 27 28

GFSSE_sfc_30mbdewp_087.txt.gz
Dewpoint
66 69 69 68 69 69 70 69 69 69 68 68 68 68 69 69 68 68 67 66 65 63 61 61 62 60 60 60 61 61 62 62 61 60 59 58 58 58 59 59 59 58 59
68 69 69 69 69 69 69 69 69 69 69 68 68 68 68 68 68 67 66 64 62 62 60 60 61 60 60 61 62 62 61 61 60 59 58 57 57 57 58 58 60 59 60
68 69 70 69 69 69 69 69 69 69 69 68 68 68 68 68 67 65 64 62 63 62 61 61 62 62 61 61 61 60 59 59 59 57 56 56 56 56 58 58 58 57 60
64 68 69 69 69 69 69 69 69 68 68 68 68 68 68 67 67 65 63 63 63 63 62 62 62 63 63 63 62 60 58 57 57 56 54 54 55 56 56 57 57 59 59
63 66 69 68 68 68 68 69 68 68 68 68 68 68 67 67 66 65 63 63 64 63 62 61 60 60 60 62 61 60 58 57 56 55 54 54 54 55 55 55 56 58 58
62 63 68 67 66 63 64 66 68 67 67 67 67 67 67 67 66 65 63 62 63 62 60 59 57 59 60 62 61 60 59 57 56 55 54 54 54 54 54 54 54 54 54
61 62 65 65 64 64 65 66 66 67 67 67 67 67 67 67 66 65 63 62 62 62 61 57 58 62 62 61 60 59 58 57 55 54 54 53 53 54 53 53 53 53 53
61 61 62 65 66 64 63 65 66 65 66 66 67 67 67 67 66 65 64 63 62 62 60 58 58 61 61 60 60 59 58 57 56 55 54 54 53 53 53 53 52 52 51
61 61 61 60 65 65 65 65 65 65 66 66 67 67 67 67 66 65 64 63 62 61 59 57 56 59 60 60 59 59 58 57 56 55 54 54 52 52 52 52 52 51 50
61 61 60 59 62 64 64 64 65 64 66 66 67 67 67 67 66 65 64 62 61 59 57 56 55 58 60 59 59 58 58 58 56 56 56 55 53 51 52 51 51 50 50
60 61 60 59 59 63 64 64 64 64 66 67 67 66 66 66 66 64 62 61 59 58 58 56 54 58 58 58 57 56 55 55 56 57 57 55 53 51 51 51 50 50 49
57 57 60 62 61 59 63 64 63 62 64 65 65 65 65 65 64 62 62 61 59 57 57 54 50 49 48 50 51 49 49 51 54 56 58 55 53 52 51 50 49 49 48
56 59 62 61 62 60 58 61 61 63 63 63 64 64 63 64 64 62 61 58 58 56 53 50 46 40 41 42 40 40 40 43 47 51 55 55 53 51 51 50 49 48 47
58 59 60 60 61 61 61 61 61 61 60 61 62 62 63 63 62 61 58 57 55 53 50 49 45 39 38 39 41 40 40 43 47 50 53 56 54 52 50 49 49 48 46
57 58 59 60 60 60 60 59 59 58 59 60 61 62 62 61 60 59 56 53 53 51 51 45 41 39 37 38 40 40 41 43 46 50 54 55 54 53 50 50 50 48 46
56 57 57 57 60 60 59 58 57 56 58 59 59 59 59 59 58 56 53 51 51 51 51 44 40 38 37 36 37 41 42 41 44 48 53 56 55 53 52 50 50 48 47
56 56 56 55 56 57 57 56 55 56 59 58 58 57 57 57 57 55 52 51 51 52 50 44 40 38 36 36 36 39 43 42 42 45 51 53 52 50 49 49 47 45 44
55 54 55 55 54 54 52 54 56 57 58 58 58 57 56 56 54 54 52 51 52 52 50 44 41 39 37 36 35 35 38 41 42 44 47 49 49 50 51 51 48 43 43
54 54 54 54 55 54 54 56 56 56 57 58 58 57 57 57 55 54 53 53 53 52 51 46 42 39 37 36 35 36 36 34 38 43 44 45 45 47 48 50 46 43 41
55 54 54 54 54 54 54 54 54 54 55 55 56 57 57 58 57 55 54 53 53 52 49 45 41 40 38 37 36 36 37 35 34 40 43 43 42 43 43 45 44 42 42
54 54 54 53 54 53 53 52 52 53 53 53 54 56 55 57 58 56 55 54 52 51 49 44 41 40 40 41 39 40 40 40 37 36 37 39 37 40 40 40 40 37 39
53 53 53 53 53 52 51 48 49 51 52 52 54 54 56 54 57 57 56 54 52 50 47 43 41 41 41 42 39 40 38 40 41 39 36 35 34 36 38 37 36 34 35
53 53 52 53 52 52 51 49 48 50 51 51 52 54 54 55 55 58 58 56 54 50 47 44 43 41 40 43 42 39 37 36 37 37 38 38 37 36 36 36 36 35 35
52 52 52 52 52 50 49 48 48 46 46 48 49 54 53 55 55 56 57 57 54 51 48 45 44 43 42 40 43 42 39 37 34 33 34 34 38 38 37 36 36 36 36
51 52 52 51 51 50 50 48 47 46 46 49 53 53 54 55 56 57 58 56 54 52 49 47 45 44 44 42 42 42 40 37 35 32 31 31 32 33 33 36 37 36 34
52 52 52 51 51 50 50 49 48 48 49 50 52 53 54 55 56 57 58 56 55 53 50 48 48 47 45 44 43 41 39 38 36 34 33 33 30 31 32 30 27 27 28

GFSSE_sfc_30mbdewp_090.txt.gz
Dewpoint
64 69 69 69 69 69 69 69 69 70 70 69 69 69 69 69 68 68 67 66 66 65 63 62 63 61 60 61 61 61 61 61 61 59 58 58 58 58 60 58 58 56 57
67 69 69 69 70 69 69 69 69 69 70 69 69 69 69 68 68 67 66 65 64 62 61 61 60 60 60 61 61 61 60 60 60 59 58 58 58 58 58 60 62 61 60
69 69 69 70 70 69 69 69 68 69 69 69 69 69 68 68 67 66 64 63 63 62 60 60 61 61 60 61 60 59 58 58 59 58 57 56 57 59 57 59 60 60 60
68 69 69 69 69 69 69 68 68 68 69 69 69 68 68 67 66 64 64 64 64 63 62 61 61 61 60 60 60 58 57 57 57 56 55 55 56 57 57 57 59 58 59
66 69 69 69 69 69 69 69 68 68 68 68 68 68 67 66 64 64 64 64 64 64 62 62 62 62 62 61 59 58 57 57 56 55 54 55 55 55 56 58 57 57 56
63 66 68 69 69 68 68 68 68 68 68 68 67 67 67 65 64 65 64 64 64 64 63 61 61 63 62 60 60 59 58 57 55 54 55 55 54 54 54 54 54 53 53
62 64 68 67 68 68 67 67 67 68 68 67 67 67 66 65 64 64 64 64 63 62 60 59 60 63 61 60 60 59 58 56 54 53 53 54 54 54 54 53 53 52 52
61 62 63 66 65 67 66 66 66 67 67 67 67 67 66 65 64 64 64 63 62 60 61 63 63 62 61 60 59 58 57 56 54 54 53 54 54 54 53 52 52 51 51
62 61 62 65 65 65 65 66 66 66 66 67 67 67 66 65 65 64 63 63 60 60 62 63 62 61 60 59 59 58 57 56 54 54 53 53 54 53 53 52 51 51 50
61 61 61 61 64 65 64 65 64 64 64 65 66 67 66 66 65 64 63 61 59 58 61 62 61 61 60 60 59 58 58 57 55 54 54 54 53 52 52 51 51 50 49
60 61 60 60 60 63 64 65 64 63 63 63 66 66 66 65 64 63 61 60 58 58 59 61 61 60 60 60 59 58 56 56 56 56 55 54 53 52 51 50 50 49 49
58 58 59 60 59 60 64 64 63 62 60 62 65 66 65 65 63 61 61 60 59 57 59 61 60 59 57 56 56 55 54 56 56 56 55 54 52 52 51 50 50 49 48
56 58 61 62 62 60 60 63 63 62 61 61 65 64 63 64 62 61 60 59 56 54 52 54 51 50 50 47 47 49 51 53 54 55 55 54 51 51 50 50 49 48 47
57 59 60 60 61 61 61 63 62 60 59 60 62 63 63 62 61 59 56 57 54 51 47 44 44 44 43 41 41 40 43 47 51 53 56 53 52 51 51 50 49 48 48
57 58 59 60 60 61 61 61 60 59 59 60 63 62 63 62 59 57 56 54 52 50 46 41 40 40 39 40 39 39 42 45 49 52 55 54 53 51 51 50 49 47 46
57 57 58 59 60 60 60 60 59 59 59 60 62 62 63 61 59 56 53 52 51 50 45 41 38 38 39 40 39 41 41 43 47 53 55 55 54 53 51 50 50 48 46
57 57 57 58 59 58 58 58 59 60 60 61 61 61 60 60 58 55 52 51 51 50 45 40 38 37 37 38 40 42 41 42 46 52 55 54 54 53 52 51 50 46 47
56 56 56 57 57 57 57 57 58 59 59 59 59 59 59 58 57 54 52 51 52 50 45 40 38 36 36 37 39 41 42 42 43 48 52 52 51 50 50 50 48 44 44
55 55 55 56 55 54 56 56 57 59 59 58 58 58 57 57 55 54 52 52 52 51 45 41 40 38 36 36 35 37 39 40 41 44 47 48 47 48 49 51 48 45 43
55 55 55 55 54 55 56 56 56 57 57 57 57 57 57 56 55 54 52 53 53 51 48 43 40 40 38 36 35 36 36 35 37 43 43 45 44 46 46 49 47 44 43
54 54 54 54 54 54 55 54 55 55 55 56 56 56 55 56 55 53 52 52 52 51 49 44 41 39 39 39 38 38 39 38 36 35 42 43 41 41 43 43 43 41 42
53 54 54 54 54 53 54 53 54 54 53 54 56 56 56 57 56 55 53 53 52 51 49 45 42 40 40 41 37 39 35 38 41 40 36 38 39 38 40 40 41 38 36
53 53 53 53 54 52 53 51 52 52 51 51 53 54 55 56 58 57 54 54 53 51 49 46 43 41 39 41 42 38 37 36 38 39 39 36 36 35 36 38 38 37 35
53 53 53 53 53 52 51 50 51 51 48 46 50 53 54 55 55 57 57 55 54 52 50 48 45 43 42 39 42 43 40 38 36 35 35 37 38 38 37 37 36 36 36
53 52 52 52 51 51 50 49 48 49 48 48 50 50 52 53 55 55 56 57 55 53 51 49 47 44 44 42 41 42 40 37 35 34 33 32 33 34 37 37 37 37 37
51 52 52 52 52 50 49 48 48 46 47 47 48 50 51 52 53 55 56 56 56 54 53 51 49 47 46 45 43 42 41 38 37 35 35 33 32 32 32 31 35 36 33

GFSSE_sfc_30mbdewp_093.txt.gz
Dewpoint
65 66 69 70 70 70 70 69 69 69 69 69 69 69 69 69 69 69 68 67 67 66 64 63 64 62 61 61 61 62 62 61 61 60 59 59 58 58 58 58 56 56 59
65 66 69 69 70 70 70 69 69 69 69 69 69 69 69 69 69 68 68 67 66 64 62 62 62 61 61 62 61 61 61 61 60 60 60 60 59 61 61 62 61 60 60
66 66 68 70 69 69 70 70 70 70 69 69 69 69 69 68 68 67 66 66 64 63 61 61 60 60 60 60 60 59 59 60 60 59 58 56 57 58 60 62 62 61 60
67 66 65 69 69 69 69 70 70 70 69 69 69 69 68 68 67 66 65 64 63 63 61 60 60 60 60 59 59 58 58 58 58 57 53 53 56 59 59 60 59 59 59
68 68 67 69 69 69 69 69 69 69 69 69 69 68 68 66 65 65 64 64 64 63 61 61 59 60 60 60 59 58 58 57 57 53 53 53 57 59 58 57 56 54 54
67 68 68 68 69 69 69 69 69 69 69 69 68 68 67 65 66 65 65 64 64 63 63 61 60 60 61 60 59 59 58 57 54 52 53 53 53 55 55 55 54 54 53
64 65 68 68 67 69 69 69 69 69 68 68 68 67 65 65 65 65 65 64 64 64 63 63 63 61 61 60 59 58 58 55 52 52 52 52 54 54 54 53 53 53 52
63 63 64 67 66 64 68 68 68 68 68 67 67 66 65 65 65 65 65 64 64 63 63 64 62 61 61 60 58 58 57 54 52 52 52 52 54 53 53 53 52 52 51
62 62 63 64 63 62 64 65 67 67 67 67 66 65 65 65 65 65 65 64 62 63 63 64 61 61 60 59 58 58 57 54 51 52 51 52 53 53 53 52 52 51 51
61 62 62 64 63 64 64 62 66 67 67 67 66 66 65 65 65 64 64 62 63 65 64 63 61 60 60 59 58 58 57 55 51 51 52 53 54 53 52 52 51 50 50
60 61 62 62 63 63 63 63 66 66 67 67 66 65 64 64 63 62 60 61 63 64 63 61 61 60 60 59 59 58 55 52 52 51 52 55 53 52 52 51 51 50 49
58 59 61 61 61 62 64 64 65 65 66 66 66 65 64 64 63 60 59 60 61 63 62 61 61 60 57 55 56 56 52 54 52 51 52 55 53 52 51 50 50 50 49
57 58 60 61 61 61 62 64 63 62 63 65 65 64 64 63 61 59 57 56 59 61 59 59 58 54 55 54 53 54 55 53 53 52 53 54 52 52 51 50 49 49 48
57 58 60 61 61 62 61 63 62 61 62 64 63 64 63 61 60 58 55 53 54 57 58 57 54 53 52 52 53 54 54 53 53 52 52 53 53 51 51 50 49 48 47
57 59 60 60 61 61 61 61 62 60 61 63 63 62 62 60 58 56 55 51 50 52 53 52 52 49 48 48 48 50 53 54 54 53 51 54 53 52 51 50 49 49 47
58 58 59 60 60 60 60 60 62 60 59 61 63 61 62 60 57 55 54 51 50 49 50 49 48 45 42 40 41 41 43 50 54 54 52 52 53 53 51 50 49 48 47
58 57 58 59 59 59 60 61 60 59 59 61 62 63 62 60 57 55 53 51 49 46 46 45 44 42 41 40 41 42 43 46 50 55 53 52 52 53 53 52 50 49 47
57 57 57 58 58 58 59 59 59 59 59 61 62 62 62 59 56 55 53 51 51 47 44 42 41 41 41 40 41 41 41 43 50 54 55 54 52 50 53 53 51 46 48
56 56 56 57 56 57 58 59 59 59 60 61 61 60 60 59 56 54 53 52 52 48 45 42 41 40 39 39 41 42 43 42 45 52 54 54 53 50 47 51 49 47 46
56 55 56 56 56 56 57 58 59 59 59 59 60 59 59 58 56 54 53 53 52 48 45 43 42 41 39 38 35 39 41 41 43 44 49 51 49 48 47 45 44 42 46
55 55 55 55 56 56 55 56 56 56 57 58 58 58 58 58 56 55 53 54 53 50 46 45 44 42 40 41 38 38 39 39 39 41 44 44 44 44 44 45 44 39 40
54 54 55 54 55 55 55 56 56 56 57 57 57 58 57 57 56 55 53 53 53 52 49 46 44 44 43 42 37 37 35 38 39 39 38 43 43 41 41 43 43 42 38
53 54 54 54 54 55 55 55 55 54 54 55 56 56 56 56 55 55 54 54 54 53 51 49 47 44 42 42 44 40 39 36 39 42 41 38 40 42 40 39 41 41 40
54 54 54 54 54 54 53 53 54 53 53 53 53 54 55 56 57 56 55 54 54 54 53 52 50 48 46 41 42 44 43 42 38 38 40 41 40 39 40 38 38 40 39
54 53 53 54 53 53 52 53 52 51 52 50 53 54 54 54 55 56 57 56 55 54 54 54 51 49 49 47 43 44 43 40 40 38 38 37 38 39 40 39 38 39 40
53 53 53 53 53 52 52 52 51 51 51 48 50 51 53 53 54 55 55 56 57 56 55 54 53 52 51 50 47 47 43 41 39 39 39 37 37 37 37 38 40 40 40

GFSSE_sfc_30mbdewp_096.txt.gz
Dewpoint
62 63 68 70 71 71 69 70 69 70 70 69 69 69 69 69 69 69 68 67 67 66 64 63 64 63 61 62 61 62 62 62 61 61 60 59 58 57 58 60 58 59 61
61 61 68 70 71 71 70 69 69 70 69 69 69 69 69 69 69 68 68 67 66 65 63 62 63 61 62 61 61 62 62 62 62 62 62 62 61 60 60 61 59 58 59
63 62 65 70 71 71 70 69 69 70 69 69 68 69 69 69 69 68 68 66 65 64 62 61 61 61 61 61 61 61 61 61 61 60 58 58 60 62 62 62 62 60 60
64 63 63 69 70 71 70 69 70 69 69 69 69 69 69 69 68 68 66 65 64 63 61 60 60 60 60 60 61 60 60 59 59 58 53 55 58 61 61 60 59 58 57
62 65 63 69 69 70 70 70 70 70 69 69 69 69 69 68 67 67 65 64 64 63 61 60 60 60 60 61 60 60 58 58 56 51 52 56 56 58 57 55 55 55 55
62 66 64 67 69 70 70 70 70 69 69 69 69 68 68 67 66 65 64 64 64 63 60 60 60 60 61 60 60 59 57 55 50 48 51 54 53 56 56 55 54 54 54
62 67 65 66 67 69 70 70 69 69 69 68 68 67 67 66 65 65 64 64 64 63 61 60 60 60 60 60 59 58 56 55 47 48 49 51 54 55 54 54 54 54 53
61 65 62 62 63 66 69 70 69 69 68 68 67 66 66 66 65 65 65 64 64 64 62 62 61 60 60 59 58 57 56 50 48 48 49 51 55 54 54 53 53 53 53
63 63 60 60 63 63 65 69 68 68 68 67 66 66 66 66 65 65 65 65 65 64 64 62 61 61 60 59 58 56 54 52 48 48 48 51 54 53 53 53 52 52 52
62 62 62 61 61 61 65 63 63 64 66 67 65 66 65 65 65 65 65 64 64 65 63 61 61 60 59 58 58 56 54 51 48 48 49 52 54 53 53 52 52 51 51
60 61 63 59 59 60 63 62 59 64 65 66 65 65 65 64 64 64 62 64 64 64 62 61 61 60 59 59 58 55 53 47 48 48 50 55 54 53 53 52 51 51 50
59 60 62 61 60 61 62 61 60 62 65 66 65 64 60 63 62 60 62 64 65 64 62 61 61 60 55 51 53 55 48 49 48 49 51 55 53 53 52 51 51 50 49
58 60 61 62 63 63 63 62 64 63 63 65 65 62 62 62 61 60 59 60 62 62 59 57 57 52 51 49 49 48 50 49 48 48 53 55 53 52 52 51 50 50 49
58 59 61 61 61 63 63 63 63 62 64 64 64 62 63 62 61 58 54 56 58 57 57 55 53 52 52 50 49 50 50 48 48 48 53 54 54 52 51 50 50 49 49
58 58 60 61 61 62 62 63 63 64 63 64 63 62 62 61 59 56 54 55 55 55 56 55 54 53 52 50 49 50 49 48 50 48 50 54 53 52 51 51 50 49 48
57 58 59 60 61 61 61 61 62 62 63 64 64 63 61 61 58 55 53 53 54 55 55 54 53 49 47 47 48 48 48 48 49 49 49 52 54 53 52 50 50 49 48
58 58 58 59 60 60 60 61 62 62 61 62 63 62 61 59 57 55 54 51 51 52 53 52 50 46 42 41 40 42 44 47 48 50 49 49 52 53 52 52 50 49 47
58 58 59 59 59 60 59 60 61 61 61 61 63 63 60 58 56 55 52 50 49 50 51 49 46 43 42 40 39 40 40 42 47 50 49 48 48 49 53 53 51 49 47
57 57 58 59 58 58 59 60 60 61 60 60 62 62 61 58 56 53 52 50 50 48 47 46 44 44 43 41 39 40 40 40 45 47 50 50 49 48 47 53 53 51 51
57 57 57 58 58 58 59 59 60 60 61 61 61 61 61 58 56 54 53 53 50 47 47 46 45 45 44 42 38 39 41 40 41 46 49 50 49 47 46 47 48 45 49
56 56 56 56 57 58 57 57 57 57 59 60 60 60 60 58 55 55 52 53 50 48 47 48 47 46 44 43 38 39 40 42 42 41 44 48 48 47 43 43 42 39 42
55 56 56 56 56 56 57 57 57 58 58 59 59 59 59 58 55 54 52 53 51 49 49 49 47 46 46 44 40 38 36 37 38 40 40 42 43 41 40 42 42 40 38
54 54 55 55 56 56 57 56 56 57 57 57 58 58 58 58 56 54 51 52 52 51 50 50 48 48 46 44 43 40 39 39 39 39 39 40 41 43 40 40 41 41 40
54 55 55 54 56 56 56 55 55 54 52 55 57 56 58 58 57 56 54 52 53 53 52 52 50 49 47 45 44 44 46 45 41 41 42 41 40 42 43 41 40 41 41
53 54 54 54 55 55 55 55 54 53 53 56 55 55 56 57 57 56 56 55 54 53 54 53 52 51 49 48 46 45 43 43 43 42 42 41 42 41 40 43 42 41 41
54 54 54 54 54 54 54 53 53 52 52 54 54 54 55 56 55 55 55 55 55 54 53 54 54 54 53 51 50 50 48 47 45 44 43 43 47 44 42 42 42 41 41

GFSSE_sfc_30mbdewp_099.txt.gz
Dewpoint
57 67 70 71 71 70 70 70 70 70 70 69 69 70 69 70 69 69 68 67 66 65 64 63 64 63 62 62 62 64 63 62 62 62 60 60 59 59 61 62 61 61 63
57 65 69 70 71 71 70 70 70 70 70 69 69 69 69 69 69 68 67 67 66 65 63 63 62 62 62 62 63 63 64 63 62 62 62 61 61 60 61 62 61 60 61
60 61 65 69 70 71 70 70 70 70 70 70 69 69 69 69 69 68 67 67 66 64 62 62 62 61 62 62 63 63 62 62 64 63 60 59 60 61 61 62 61 59 59
62 61 63 69 70 70 70 70 70 70 70 69 69 70 69 69 68 68 67 66 65 64 62 62 61 61 62 62 62 62 61 61 60 59 55 58 59 61 60 59 58 57 57
59 61 62 67 69 70 70 70 70 70 69 69 69 69 69 69 68 67 66 65 64 63 61 61 61 61 62 62 61 60 59 58 58 57 53 55 56 57 57 57 56 56 56
57 60 67 68 68 70 70 70 70 69 69 69 69 69 69 68 67 66 65 64 64 63 61 60 60 61 62 61 60 58 56 56 55 50 53 54 55 58 57 56 55 55 56
57 61 68 65 68 68 68 69 70 69 68 69 69 69 68 67 67 65 64 64 63 62 61 60 60 60 61 60 58 57 55 54 47 49 50 52 55 55 55 55 55 54 54
59 63 66 63 65 64 64 64 68 69 69 68 68 68 68 67 66 65 64 64 63 62 62 61 61 60 60 59 57 55 54 55 47 47 49 52 55 55 55 54 54 54 53
62 63 63 62 61 57 58 60 64 68 68 68 68 67 67 66 65 65 65 64 63 63 62 61 61 60 59 58 56 55 53 52 46 47 49 52 55 54 54 54 53 53 53
62 62 63 60 60 62 62 61 61 68 67 67 67 66 66 65 65 65 65 64 63 63 62 61 61 60 59 57 56 54 52 50 46 46 48 53 54 54 53 53 53 52 52
61 61 62 62 60 61 61 62 63 66 65 66 66 65 65 64 63 64 63 65 64 62 62 61 61 60 59 57 55 53 53 47 47 47 50 56 54 53 53 52 52 51 51
61 60 62 62 60 61 63 61 64 64 65 65 65 65 63 63 62 59 64 65 63 62 61 61 60 59 54 48 50 53 51 47 47 48 52 56 54 53 53 52 51 51 51
56 61 61 62 60 60 61 62 63 63 62 65 65 64 62 63 62 63 64 63 62 59 55 57 56 50 48 46 48 49 49 47 47 49 54 55 54 53 53 52 51 51 50
55 57 61 61 62 62 61 62 63 61 60 65 65 63 62 62 61 62 62 59 60 57 55 54 51 51 50 48 49 49 49 46 47 50 54 55 54 53 52 52 51 50 50
56 58 60 61 61 63 62 64 63 62 63 64 63 62 62 61 62 60 58 58 57 56 55 54 51 52 51 49 49 49 49 47 47 49 52 55 54 53 52 51 50 50 50
57 58 59 60 61 61 62 62 63 63 63 64 63 62 62 62 61 57 57 57 56 56 54 54 52 52 51 48 49 48 47 48 48 48 50 52 54 54 52 51 50 50 49
56 58 58 58 60 60 61 61 63 63 63 63 62 62 63 61 59 57 57 56 55 55 56 54 54 51 48 46 47 47 47 48 48 48 49 50 52 53 53 52 51 50 49
57 58 58 59 59 60 60 61 63 63 63 62 63 61 62 60 58 57 56 55 55 55 55 52 52 48 45 42 41 42 43 46 47 49 48 49 49 49 52 52 52 50 49
57 57 58 59 59 59 60 60 60 62 62 63 63 62 62 60 57 55 54 53 55 54 53 52 50 47 44 41 40 41 41 42 46 48 48 48 48 48 49 52 52 52 51
57 57 58 58 58 59 59 60 60 60 61 61 63 62 61 59 58 55 54 54 52 52 52 50 49 46 45 44 40 40 42 41 43 46 48 48 48 49 48 51 52 51 53
57 57 57 58 58 58 58 58 58 58 59 61 62 61 60 59 57 56 51 53 52 50 50 50 49 49 47 46 41 41 42 42 43 43 47 48 48 49 48 47 50 48 49
55 56 56 57 57 58 57 58 58 58 60 60 61 60 59 58 57 57 55 54 52 50 51 51 50 48 47 46 42 42 41 40 42 43 43 47 50 48 47 47 46 46 43
54 55 56 56 57 57 57 58 58 58 58 58 59 59 59 57 56 54 55 55 53 52 51 52 52 49 48 47 47 43 41 40 41 41 43 43 45 47 46 44 45 45 45
54 55 55 56 55 57 57 56 57 56 55 57 57 58 58 58 56 56 55 54 54 53 53 53 52 51 49 48 47 45 46 47 44 42 42 43 44 45 47 45 43 45 45
54 55 55 55 55 56 57 56 56 55 56 57 57 57 58 58 57 55 54 54 55 53 53 54 53 53 52 50 47 46 47 47 48 45 44 44 44 43 43 47 46 45 45
54 54 54 55 54 56 56 56 55 54 54 56 56 56 56 57 58 57 55 55 55 55 55 56 55 53 53 52 51 50 48 47 46 47 46 47 46 46 45 44 45 47 46

GFSSE_sfc_30mbdewp_102.txt.gz
Dewpoint
66 68 71 71 70 70 70 70 70 70 70 70 70 70 70 69 69 68 67 66 66 65 64 64 64 64 64 63 63 64 64 63 63 63 62 62 62 62 64 64 63 63 64
66 67 70 71 70 70 70 70 70 70 70 70 70 70 70 69 68 67 67 66 66 65 63 63 63 63 63 63 64 63 63 62 62 63 63 63 62 62 61 62 63 63 62
62 67 68 70 71 70 70 70 70 70 70 70 70 70 70 69 68 67 67 66 65 65 63 63 62 61 62 63 64 63 63 63 62 62 60 61 61 61 61 61 61 61 61
57 66 66 69 70 71 70 70 70 70 69 70 70 69 69 69 68 68 67 66 64 64 62 62 61 61 62 63 63 63 64 63 63 60 58 60 60 60 59 58 58 58 57
57 58 66 68 69 70 70 70 70 70 70 69 69 67 67 68 68 68 66 65 65 64 61 61 61 62 62 62 62 62 61 60 60 57 57 57 58 58 57 57 56 56 57
55 64 67 68 68 69 70 70 70 69 70 69 67 64 67 66 68 67 66 65 64 63 61 61 62 62 62 61 59 59 58 57 57 54 56 59 58 58 57 57 57 56 57
55 62 68 67 68 69 69 69 70 69 69 69 68 67 66 66 67 66 65 64 63 63 62 61 62 62 61 59 58 56 53 54 52 52 55 57 57 57 56 56 56 55 55
58 64 68 64 65 68 69 68 68 68 66 68 68 67 66 66 66 65 65 64 63 62 62 62 61 61 59 58 55 53 55 54 50 51 53 55 56 55 55 55 55 54 54
63 63 64 65 63 64 65 65 64 64 64 66 67 65 64 65 66 65 65 64 63 62 62 62 61 60 59 56 55 54 52 52 50 51 53 55 56 54 54 54 54 54 53
63 63 63 63 61 61 62 61 60 59 58 59 66 65 65 65 65 65 64 64 63 62 62 61 61 59 58 56 54 50 52 52 49 50 53 56 55 54 54 54 53 53 52
61 61 63 62 61 62 62 62 61 58 60 57 66 65 66 64 64 64 63 63 63 62 62 61 60 58 56 54 52 54 54 50 50 52 54 56 54 54 53 53 52 52 52
61 62 63 63 62 61 62 61 61 60 59 58 64 65 64 64 64 63 64 63 62 62 61 60 59 56 52 52 52 52 51 51 51 53 55 56 54 54 53 53 52 52 52
56 62 61 62 61 61 63 61 62 60 60 60 64 64 64 63 63 64 64 62 61 60 59 59 56 51 48 48 50 51 52 51 51 53 55 55 54 53 53 52 52 52 51
58 61 61 61 61 60 62 60 62 62 61 62 64 64 63 62 63 64 63 60 58 56 56 55 52 51 48 48 50 53 49 51 53 54 56 55 55 53 53 52 52 51 51
55 58 61 61 62 62 61 61 63 62 60 60 63 64 62 61 63 63 62 61 55 55 55 53 52 54 52 49 51 50 50 52 53 53 55 55 54 53 52 52 51 51 51
55 58 60 61 62 63 62 61 61 62 59 62 64 63 62 61 63 62 61 60 57 56 55 53 52 54 54 51 51 51 50 50 52 53 54 55 54 54 53 52 51 51 51
55 57 58 60 61 61 61 62 62 63 61 63 63 62 62 62 62 60 59 60 58 56 56 54 54 54 52 50 50 51 50 50 52 52 53 54 54 54 53 52 51 50 50
56 57 58 59 59 60 61 62 63 63 63 62 61 63 62 62 61 58 58 57 57 57 57 55 55 53 51 49 49 49 49 49 51 52 51 52 52 52 53 53 53 52 51
57 57 58 59 59 60 60 61 63 62 62 63 61 62 62 61 60 58 57 58 58 56 56 56 54 51 48 47 46 46 47 48 50 49 51 51 52 51 52 53 53 53 52
57 58 58 58 59 59 60 60 61 62 62 63 61 61 61 61 59 57 56 57 58 57 56 55 52 50 47 46 40 43 45 45 47 50 49 51 51 51 51 52 53 52 52
57 57 57 58 58 58 58 58 59 58 60 62 62 60 60 60 58 56 54 54 54 56 55 54 52 48 47 49 45 45 45 45 47 48 49 50 50 51 52 52 52 51 51
56 56 56 58 58 58 58 58 58 58 59 60 62 60 60 59 58 54 54 54 53 53 54 52 50 49 50 49 46 44 43 43 44 45 47 49 51 50 50 50 52 52 50
55 55 56 56 58 58 58 58 58 59 59 59 60 60 59 58 57 55 54 55 53 52 53 51 52 50 50 49 47 46 43 41 43 45 45 46 47 51 50 49 48 49 50
55 55 55 56 57 57 57 57 57 57 56 58 59 59 59 58 57 57 57 56 55 54 53 53 53 52 50 47 48 48 48 49 46 42 44 45 45 46 49 49 48 47 46
55 55 55 56 57 56 57 57 57 56 57 58 58 57 57 57 56 56 57 56 55 54 54 54 54 52 53 50 48 47 47 48 49 47 45 43 44 44 47 48 47 46 46
55 55 55 55 55 57 57 57 56 56 56 56 56 56 56 56 56 56 55 56 56 55 55 55 54 53 54 53 50 49 48 47 46 47 47 47 46 46 44 44 47 47 47

GFSSE_sfc_30mbdewp_105.txt.gz
Dewpoint
67 70 70 70 70 70 70 70 70 69 70 71 71 70 70 69 69 68 68 67 67 67 66 66 66 65 65 65 65 66 66 65 65 65 65 65 64 64 64 64 64 64 64
68 71 70 70 70 70 70 70 70 70 71 71 71 70 69 68 68 67 67 67 66 66 65 65 65 65 64 64 64 64 64 65 64 65 65 64 64 63 63 63 64 64 63
67 70 71 70 70 70 70 70 70 70 70 71 70 70 69 68 67 67 67 66 66 65 64 64 64 64 63 64 63 63 64 64 63 63 62 61 61 61 61 62 63 62 62
67 69 70 70 70 70 70 70 70 70 70 70 70 70 69 68 68 67 66 66 65 64 63 62 63 62 62 63 63 62 63 64 63 61 60 60 60 60 61 61 60 60 59
66 66 68 70 70 70 70 70 70 70 70 70 70 69 68 68 68 68 66 66 65 64 62 62 62 62 64 64 64 64 64 61 61 59 58 58 58 58 58 58 57 58 57
61 67 68 69 70 70 70 70 70 70 70 69 69 68 67 67 66 66 66 65 64 63 62 62 62 63 63 62 61 60 59 57 57 58 59 59 56 57 57 57 57 58 57
63 66 67 68 69 70 70 70 69 70 70 69 66 66 64 65 66 64 65 65 64 63 63 62 63 63 61 60 58 56 55 56 56 57 57 57 56 56 56 56 55 55 54
63 67 66 67 68 69 71 70 69 69 69 67 66 65 64 63 64 64 64 65 64 63 63 63 63 61 59 58 56 55 56 55 55 56 56 56 56 55 56 55 55 54 54
64 66 66 65 64 67 69 68 69 68 67 65 65 65 65 64 65 65 65 64 64 63 63 63 62 60 59 56 55 53 55 54 54 55 55 55 56 55 55 55 54 54 54
63 62 64 63 63 62 63 64 65 67 66 64 66 65 65 64 65 65 65 64 63 63 63 62 61 59 56 55 53 55 55 54 54 55 56 56 56 54 54 54 54 53 53
62 62 62 62 60 61 61 62 62 63 65 65 62 62 63 64 65 64 64 63 63 63 62 61 60 57 55 53 54 54 51 52 54 55 56 56 54 54 54 54 53 53 53
60 61 62 62 61 62 62 62 62 61 61 61 62 60 63 64 64 63 64 63 63 62 61 60 58 55 54 52 51 51 51 53 54 54 56 56 54 54 53 53 53 53 52
61 61 62 62 62 61 62 60 61 61 61 59 59 59 63 64 63 63 63 62 62 61 59 57 55 53 51 51 49 50 52 53 54 54 56 56 54 53 53 53 53 52 52
61 61 61 62 60 60 61 60 60 59 59 59 59 61 61 63 63 62 61 61 60 58 57 54 51 50 49 49 50 52 52 53 54 55 56 56 55 54 53 53 52 52 52
60 61 61 62 61 59 62 60 62 61 61 61 59 63 63 63 63 61 60 58 57 57 55 51 51 48 48 48 50 52 52 53 54 55 56 55 55 54 53 53 52 52 52
58 60 60 61 61 61 61 60 62 61 60 62 60 63 63 62 62 61 58 56 55 55 53 50 52 50 49 49 50 51 52 53 53 54 55 55 55 54 53 52 52 52 52
57 59 59 60 61 62 62 61 62 60 61 62 63 64 63 63 62 61 57 54 55 54 52 52 52 53 51 51 50 51 52 53 53 54 54 55 54 54 54 54 53 52 52
57 57 59 60 60 61 61 62 63 60 60 62 63 63 63 63 62 61 59 55 57 54 52 53 53 54 51 50 50 50 51 52 53 53 53 54 54 54 54 54 54 53 52
57 57 58 59 59 60 60 62 63 62 61 62 62 63 63 62 61 60 60 57 58 55 55 55 55 53 49 49 49 49 49 52 53 53 53 53 53 53 53 54 54 54 53
57 58 58 58 59 60 59 60 61 62 62 61 61 62 63 62 60 59 59 58 59 55 57 57 54 51 49 48 47 47 48 49 51 52 52 52 52 52 52 52 54 54 54
57 58 58 58 59 59 58 57 57 60 61 61 60 61 61 61 60 59 59 59 59 57 58 56 52 49 47 45 44 44 45 46 48 49 52 51 51 51 52 52 52 52 53
57 56 56 58 58 58 57 58 58 58 59 62 61 61 61 60 59 58 57 57 58 58 57 54 50 49 47 49 43 44 42 43 45 46 49 50 51 52 51 51 51 51 51
55 55 55 57 57 58 58 58 57 58 59 58 61 60 60 59 59 56 56 55 57 57 55 52 50 49 47 50 45 44 43 41 43 44 44 46 49 51 51 51 52 52 51
55 55 55 57 57 58 58 57 57 56 55 58 57 59 59 59 59 56 56 54 55 57 55 53 51 50 49 48 48 49 48 48 42 41 44 45 46 47 51 50 50 51 52
55 55 55 56 57 57 57 57 57 57 57 58 58 59 59 59 58 56 56 55 54 55 54 53 53 52 50 49 47 47 47 48 49 46 42 42 45 45 46 49 50 49 49
55 55 55 56 57 56 56 57 57 56 57 57 58 57 58 58 57 55 56 56 55 55 54 54 54 54 54 52 49 48 46 45 46 47 46 46 43 44 45 46 48 48 48

GFSSE_sfc_30mbdewp_108.txt.gz
Dewpoint
68 70 70 70 71 70 70 69 70 71 71 70 70 70 70 70 70 69 69 68 68 68 67 67 68 69 68 67 67 67 67 67 67 66 66 65 65 65 65 65 65 64 65
68 70 70 70 70 70 70 69 70 71 71 70 70 70 69 69 69 69 68 68 68 67 66 66 67 67 67 66 67 66 66 66 66 66 65 65 64 64 64 64 65 64 64
68 70 70 70 70 70 70 70 70 71 71 70 70 69 69 68 68 68 68 68 67 66 64 64 65 65 65 66 66 66 65 65 64 64 63 62 63 63 63 63 64 63 63
69 70 69 69 70 70 70 70 70 70 70 70 69 69 68 68 68 68 67 67 66 65 65 65 64 64 64 65 65 64 64 64 63 61 60 61 61 62 62 61 61 61 61
68 70 69 69 69 70 70 70 70 70 70 70 69 69 68 68 68 67 66 66 66 65 64 64 63 63 64 63 64 64 63 62 61 59 58 58 59 60 59 60 59 57 58
66 68 69 68 69 69 70 70 70 70 69 69 69 68 68 68 68 67 66 66 65 64 63 62 62 64 64 64 65 62 63 60 58 58 57 59 59 59 58 58 57 57 57
65 67 69 69 69 69 70 70 70 70 69 69 68 66 64 67 67 67 66 65 64 64 63 63 64 64 64 63 61 60 60 59 57 57 56 58 58 57 56 56 55 54 54
65 67 68 69 69 70 70 70 70 69 69 68 66 64 63 65 66 66 66 65 64 64 63 64 64 62 61 59 57 58 59 58 56 56 56 54 57 56 55 55 54 55 53
66 66 67 67 68 69 70 70 69 68 66 66 65 64 65 64 64 65 65 65 64 64 64 64 63 61 60 56 58 58 58 57 56 56 56 56 57 56 55 55 55 54 54
66 65 65 64 64 65 67 67 68 69 66 64 65 63 63 62 62 65 65 65 64 64 64 63 61 60 57 56 58 57 57 56 55 55 56 56 56 55 55 55 55 54 54
62 62 64 63 62 61 62 63 64 65 66 64 64 63 63 60 63 65 64 64 64 64 63 62 61 59 57 57 58 57 55 55 55 55 56 57 55 55 55 54 54 54 54
60 60 62 62 60 60 61 61 61 62 64 65 63 63 63 62 64 64 64 64 63 63 63 62 60 57 55 54 55 54 54 54 54 55 56 57 56 55 55 54 53 53 53
60 61 61 61 61 61 61 60 61 61 62 63 63 63 63 63 63 63 63 63 63 62 61 60 58 54 51 51 51 52 54 54 54 55 56 56 55 54 54 54 53 53 53
60 61 62 62 61 60 60 59 60 60 61 61 62 62 63 62 63 64 62 62 61 60 58 55 53 51 50 50 52 52 53 53 54 55 57 56 55 54 54 53 53 53 52
60 61 61 61 60 60 60 59 59 59 60 60 60 60 61 62 62 62 61 60 59 57 55 53 50 49 49 50 53 52 53 54 55 55 56 56 56 54 53 53 53 53 52
60 61 61 61 60 59 61 59 60 61 60 60 60 60 59 62 62 61 60 58 57 56 53 50 49 48 48 49 52 53 53 54 54 55 55 55 55 55 54 53 53 53 52
60 60 60 61 61 60 61 60 61 61 60 60 60 60 59 62 62 60 58 56 55 53 50 49 51 48 48 50 51 53 53 53 54 54 55 55 55 55 55 54 53 53 52
60 60 59 61 61 61 61 61 61 60 61 61 60 61 61 60 62 59 56 54 54 53 49 50 52 50 49 50 51 52 53 53 54 54 54 54 54 54 55 55 54 54 53
59 59 58 60 60 60 62 62 61 60 61 62 61 62 62 62 62 58 55 53 54 52 48 52 53 52 50 50 50 51 52 53 53 53 53 54 54 54 54 55 55 54 54
58 58 58 59 60 59 60 62 62 60 61 62 62 62 63 62 61 59 55 54 53 53 49 53 53 53 51 50 49 49 51 53 53 53 53 53 53 53 53 53 55 54 54
57 57 58 58 59 58 58 59 60 59 60 61 62 62 62 62 61 60 56 56 54 53 50 54 54 51 49 49 47 46 47 51 52 52 53 52 52 53 52 52 53 53 53
57 57 57 57 59 58 57 57 58 60 60 60 61 62 62 62 61 60 58 56 55 53 54 55 53 50 48 47 46 44 42 43 48 49 52 52 51 52 52 52 52 53 52
56 56 57 58 58 58 57 57 57 58 59 60 60 60 61 61 60 60 59 57 57 56 56 54 52 50 47 47 45 43 42 40 42 44 47 51 51 51 51 51 51 51 52
56 56 56 58 57 57 58 57 56 55 56 57 60 59 61 60 60 59 59 58 58 57 56 55 52 50 47 45 47 47 46 44 42 41 44 45 48 51 51 51 51 51 51
55 55 56 57 57 58 58 57 56 55 56 56 57 59 59 60 59 58 57 58 58 58 56 54 52 51 49 49 46 48 47 48 48 43 41 42 44 45 47 51 51 51 52
55 55 56 57 57 57 57 57 57 56 57 56 57 57 58 59 59 57 57 57 58 57 55 55 55 54 53 51 49 48 47 46 46 47 45 44 42 43 45 46 48 50 50

GFSSE_sfc_30mbdewp_111.txt.gz
Dewpoint
67 68 70 70 70 70 70 71 70 71 70 71 71 71 71 70 70 69 69 69 69 69 68 68 69 69 67 68 68 68 67 66 66 66 65 65 64 64 65 65 65 65 65
66 69 70 70 70 70 70 70 70 71 71 71 71 70 70 70 70 69 69 69 69 68 67 68 69 67 67 67 68 68 67 67 66 66 65 65 64 64 65 65 65 64 64
68 69 70 70 70 70 69 70 70 70 70 70 70 70 70 70 69 69 69 69 68 67 67 66 67 67 67 67 67 67 67 66 65 65 65 63 63 63 64 64 64 63 63
68 69 69 70 70 70 70 70 70 70 70 70 70 69 69 69 69 69 69 68 67 67 65 66 67 66 66 66 66 65 65 64 63 62 62 62 62 62 63 63 62 61 61
68 69 69 69 70 70 70 70 70 70 70 69 69 69 69 68 68 68 68 67 66 65 64 64 65 66 66 65 65 64 63 62 61 59 60 60 61 61 61 60 60 60 59
68 69 68 69 69 70 70 70 70 70 69 69 69 68 68 68 68 68 67 67 66 64 64 65 64 66 65 65 64 63 62 60 58 58 59 60 59 60 59 58 59 59 58
66 69 68 68 69 70 70 70 70 70 69 69 68 68 67 67 66 67 66 66 65 65 65 64 64 64 65 64 64 62 60 59 57 57 58 58 59 58 58 56 55 55 55
65 67 68 68 69 69 70 70 70 69 69 68 66 68 66 65 63 64 66 66 65 64 64 64 65 65 63 61 62 61 59 57 56 56 57 58 58 56 56 56 55 55 55
65 66 68 68 68 69 70 70 69 69 68 67 65 65 65 63 63 63 65 64 65 64 64 65 64 62 60 60 61 59 58 57 55 55 56 57 57 56 56 55 53 54 54
64 65 66 67 68 69 68 69 69 68 68 66 63 62 64 64 63 63 63 64 64 64 64 64 62 60 58 59 59 59 58 57 55 55 56 57 57 56 55 54 54 54 54
64 64 65 65 66 66 67 67 68 68 66 65 63 63 64 64 63 63 64 65 65 65 64 63 61 58 59 60 59 58 56 55 55 56 56 57 56 55 55 54 54 54 54
62 63 64 63 63 62 63 64 65 66 66 65 63 64 62 61 61 61 64 64 64 64 64 62 60 58 58 58 58 55 55 55 55 56 56 57 56 55 55 54 54 54 54
60 61 62 62 61 60 61 60 61 61 63 64 63 63 61 61 61 64 64 64 63 63 63 61 59 55 55 56 53 54 54 54 55 55 57 57 56 55 55 54 54 54 53
58 60 61 62 60 60 61 60 60 60 62 63 63 62 62 61 62 61 62 63 62 61 61 59 56 52 52 52 53 54 54 54 55 55 57 57 56 55 54 54 54 54 53
57 59 61 61 60 60 60 59 59 59 60 62 62 63 62 61 62 61 62 62 61 59 59 55 53 51 51 52 53 53 53 54 55 56 57 56 56 55 54 54 54 53 53
57 60 61 61 61 60 60 59 58 59 60 61 62 62 62 61 61 62 62 61 59 57 55 54 51 50 50 52 52 53 53 54 55 55 56 56 56 55 55 54 54 53 53
57 60 60 61 60 59 59 58 59 59 60 59 60 61 62 62 62 62 61 59 57 55 53 51 50 49 50 52 52 53 53 54 55 55 55 55 56 55 55 55 54 53 53
59 60 60 61 60 59 60 59 60 60 60 60 60 60 61 62 61 61 59 58 56 53 51 50 50 49 49 52 52 53 53 54 54 54 55 55 55 55 55 55 55 54 53
59 60 60 60 60 59 60 60 60 59 60 61 61 60 60 62 61 59 58 56 54 51 49 49 50 49 49 51 52 52 53 53 54 54 54 54 54 54 54 55 55 55 55
59 59 59 60 60 60 61 61 60 59 60 61 61 60 60 62 60 59 56 54 53 49 48 49 50 51 50 51 51 52 52 53 53 53 53 53 53 53 53 54 55 54 54
58 58 58 59 59 59 59 59 58 58 60 60 61 60 60 61 60 58 55 54 51 47 47 50 51 49 50 50 49 49 50 52 52 53 53 53 53 53 53 53 53 54 54
57 57 58 58 58 58 59 59 59 59 60 61 61 62 61 61 60 58 54 54 51 47 48 51 51 51 49 49 47 46 45 47 50 51 52 52 52 52 52 52 52 53 53
56 56 57 58 58 57 57 58 58 59 60 59 60 61 62 62 61 58 55 54 51 50 48 52 52 51 48 48 47 45 42 42 45 46 50 52 51 51 52 52 52 52 53
56 56 57 57 58 57 57 57 58 57 57 58 59 60 61 62 61 61 57 55 52 52 48 52 53 52 50 47 47 45 44 44 41 41 45 47 51 51 51 51 51 51 52
56 56 56 57 57 57 57 56 56 56 56 58 59 59 60 61 61 61 59 56 54 52 54 52 54 52 49 48 46 47 47 48 45 42 41 42 45 47 50 51 51 51 51
55 55 56 56 56 57 57 56 55 54 55 55 57 58 59 60 60 60 60 58 57 56 56 54 54 52 50 48 48 47 47 46 47 46 45 44 42 43 45 47 50 51 51

GFSSE_sfc_30mbdewp_114.txt.gz
Dewpoint
65 67 70 69 68 68 70 71 71 71 71 71 71 71 71 71 70 70 70 70 69 69 69 69 70 69 68 68 68 68 66 66 67 66 66 65 64 65 66 66 66 65 66
65 68 69 68 68 68 70 70 69 70 71 71 71 71 71 70 70 70 70 70 69 69 68 69 69 69 68 68 68 67 67 67 67 66 66 66 65 64 65 65 65 65 65
66 68 69 69 69 70 70 70 70 70 70 71 71 71 70 70 70 70 70 70 69 67 66 68 68 67 68 68 68 67 67 66 66 66 65 64 64 64 64 65 64 64 64
67 69 69 69 70 70 70 70 70 70 69 69 69 70 70 70 70 70 70 69 68 67 66 66 67 67 67 68 67 67 66 66 65 64 63 63 64 64 63 63 63 63 63
67 68 69 70 70 70 70 70 70 70 69 69 69 70 70 70 69 69 68 68 67 67 66 66 67 67 67 66 66 65 64 63 62 61 61 62 62 63 62 62 61 61 62
67 68 69 70 70 70 70 70 70 70 70 70 70 69 69 69 69 69 68 67 67 66 66 67 67 67 66 65 64 63 62 61 60 60 61 61 60 61 60 59 60 58 59
67 68 68 69 69 70 70 70 70 69 70 69 68 66 67 67 68 68 67 66 65 64 65 66 67 66 65 64 63 62 60 59 59 59 59 59 60 59 58 58 57 58 58
66 68 68 69 69 69 70 70 70 69 69 68 67 66 66 65 64 64 65 65 65 64 64 66 66 65 65 63 62 61 59 58 58 58 58 58 60 57 56 56 56 55 56
66 67 68 68 69 69 69 70 69 69 69 68 67 66 65 64 64 62 63 64 64 64 64 65 65 63 64 62 61 59 58 57 56 57 57 58 58 58 56 55 56 55 56
65 65 67 67 68 69 69 68 69 69 68 67 66 66 65 62 62 64 63 64 63 64 64 65 63 62 63 61 60 58 58 56 56 56 57 58 59 56 55 55 55 53 54
63 64 66 66 66 67 67 67 69 68 68 66 65 64 63 61 62 64 63 63 63 64 64 64 62 60 62 61 59 58 56 55 56 56 57 58 56 55 54 54 55 54 53
61 63 64 65 66 66 66 66 68 68 67 65 64 64 63 63 62 62 63 63 63 64 64 63 60 58 61 60 59 57 55 56 56 56 57 57 56 55 54 55 53 54 53
61 62 63 63 64 64 65 65 65 65 66 65 63 63 63 63 63 62 62 63 63 64 63 61 58 59 58 58 55 55 55 55 56 56 57 58 57 55 54 54 54 53 53
59 61 62 62 62 62 62 62 63 62 64 65 64 63 62 61 61 62 63 63 63 62 62 59 55 55 57 55 54 54 55 55 55 56 57 56 56 54 54 54 54 53 52
57 59 61 62 61 60 60 59 60 60 62 64 64 63 62 61 60 62 62 63 61 61 60 57 53 53 53 53 54 54 54 55 55 56 57 56 56 55 54 54 54 54 53
56 57 60 61 61 60 59 59 60 60 60 61 63 63 62 61 61 62 62 62 61 60 59 55 52 51 52 53 53 53 54 54 55 56 56 56 56 56 55 54 54 53 53
54 56 59 60 60 59 59 59 59 58 59 60 61 63 62 61 61 61 61 61 59 58 57 53 50 51 52 52 53 53 54 54 55 55 56 56 56 56 55 55 54 54 53
52 56 60 61 60 59 59 58 58 59 58 59 60 62 62 62 61 61 61 60 58 56 55 53 50 50 51 52 52 53 53 54 55 55 55 55 55 55 55 55 55 54 54
51 58 59 61 60 59 59 58 59 59 59 58 59 60 61 62 62 61 61 59 56 54 54 52 49 49 51 52 52 52 53 53 54 54 54 54 54 54 55 55 55 55 54
54 59 59 60 60 59 59 59 60 58 59 60 61 60 60 61 61 61 60 57 55 52 51 52 49 50 51 52 52 52 52 53 53 54 54 54 54 54 54 54 55 55 55
58 59 59 59 59 59 59 59 59 58 59 60 60 61 60 60 60 60 57 56 54 51 50 50 49 49 50 52 51 50 50 52 52 53 53 53 53 53 53 53 54 54 54
57 58 59 59 58 59 59 59 58 58 59 60 60 60 60 61 59 58 57 55 52 49 49 49 49 49 50 51 49 48 48 49 51 52 52 53 53 53 53 53 53 53 53
57 58 58 58 58 59 58 58 59 59 60 59 60 59 60 60 59 57 56 55 52 48 47 48 49 48 48 49 50 47 45 46 48 49 51 52 52 52 52 52 52 52 53
56 57 57 58 58 57 58 58 58 57 57 59 59 60 60 61 59 57 55 54 51 47 47 48 50 49 49 48 48 46 45 45 45 44 46 50 52 51 51 52 52 52 52
56 56 57 57 57 57 57 58 57 57 57 58 60 60 60 60 60 58 56 55 52 50 47 48 51 50 50 49 47 46 46 46 45 42 42 45 46 50 52 51 52 52 52
56 56 56 56 57 57 57 56 57 56 57 58 58 58 59 60 60 60 57 56 53 52 50 50 53 53 51 50 48 46 45 44 45 44 43 43 43 44 47 50 51 52 52

GFSSE_sfc_30mbdewp_117.txt.gz
Dewpoint
64 67 69 68 68 70 71 71 71 72 71 71 71 71 71 71 71 71 71 71 70 69 69 69 69 69 68 68 68 67 68 68 67 67 67 66 66 66 66 67 65 64 66
64 67 69 68 68 70 70 71 70 71 71 71 71 71 71 71 70 70 70 70 69 69 69 69 70 69 68 68 68 68 68 67 67 67 66 66 65 65 66 66 64 65 66
65 68 68 67 68 69 71 70 69 70 72 71 71 71 71 70 70 71 70 69 69 69 69 69 69 68 68 68 68 68 67 67 67 66 64 62 64 64 65 65 65 65 65
66 67 67 68 68 69 71 70 69 69 70 71 71 71 70 70 70 70 70 69 69 68 68 68 68 68 68 68 68 67 67 66 65 64 61 61 63 64 64 64 64 64 64
66 67 68 68 68 69 70 70 69 69 70 71 71 70 70 70 70 70 69 69 67 67 67 67 67 68 68 68 67 66 65 64 63 61 61 61 62 63 63 63 64 63 63
66 67 68 68 68 68 70 71 69 69 69 69 70 70 70 69 67 66 64 66 66 66 67 67 67 68 67 66 65 65 64 63 62 61 61 62 61 62 61 61 62 63 63
66 67 68 68 68 69 70 70 70 69 68 68 70 69 69 66 65 65 64 66 65 65 65 66 66 67 66 65 64 63 62 62 60 60 60 60 60 60 59 59 59 60 61
66 67 68 68 69 68 70 70 70 69 68 69 69 68 67 66 66 65 65 65 64 65 65 66 66 66 65 64 63 62 61 60 59 59 58 58 60 59 58 57 58 58 59
67 67 68 69 69 69 69 69 69 69 69 69 68 66 67 65 65 65 64 63 63 64 64 65 66 65 64 63 61 60 59 59 58 57 57 57 59 58 56 55 56 57 57
66 67 67 68 67 69 68 69 69 69 68 68 67 66 66 65 65 65 64 64 64 63 63 65 65 65 63 62 60 59 59 58 56 56 56 57 58 57 57 56 56 56 55
65 66 67 66 66 67 68 68 69 68 68 67 66 65 64 63 64 63 61 63 64 64 65 64 64 64 62 61 59 58 57 56 56 56 56 59 57 56 56 55 55 54 55
63 64 66 66 66 66 67 67 68 68 68 67 66 65 65 63 62 61 62 64 65 64 64 63 62 63 61 58 58 57 55 56 55 56 55 58 57 55 56 55 54 55 53
60 63 65 65 65 66 66 66 68 68 68 67 66 66 64 62 62 63 63 64 65 64 63 62 61 61 59 58 57 56 56 56 55 55 55 57 57 55 56 54 54 54 55
58 61 63 65 65 65 65 66 66 67 67 66 65 65 64 63 63 62 63 64 63 62 62 61 59 59 60 59 57 56 56 55 55 54 56 57 57 56 55 55 55 54 53
57 59 62 64 65 65 64 64 65 65 66 66 65 63 64 63 62 62 62 63 63 62 61 60 58 58 58 57 56 56 56 56 56 55 55 56 56 55 56 55 54 53 52
55 57 60 63 64 64 64 64 63 63 64 65 64 63 63 63 62 62 62 63 63 62 60 58 56 57 56 56 56 56 55 55 54 56 54 54 56 55 55 54 54 53 53
48 54 58 61 63 63 63 62 62 62 62 63 64 64 63 62 61 61 61 62 62 61 59 57 55 55 55 55 55 55 55 55 55 55 55 54 55 55 54 55 54 54 53
42 48 56 59 62 62 62 61 60 60 61 61 62 62 63 62 61 61 61 61 61 60 58 55 54 53 54 54 54 53 52 53 55 55 55 54 53 53 54 55 55 55 54
36 41 54 59 61 62 62 61 60 60 60 59 60 61 62 62 62 61 61 61 59 58 56 55 53 53 53 53 53 53 52 53 54 54 54 55 54 53 52 55 55 55 55
36 42 54 59 60 61 61 60 60 60 59 58 59 60 61 62 62 61 61 60 58 57 56 54 53 52 52 52 51 52 53 53 54 54 54 54 54 54 54 54 54 53 55
51 54 57 59 60 60 60 59 58 57 57 58 60 60 60 61 61 62 61 59 58 56 55 55 53 52 52 53 52 52 52 53 54 54 54 53 53 54 54 54 53 53 53
52 57 58 59 59 60 60 59 59 58 59 58 60 60 61 61 60 61 61 58 57 56 55 53 52 51 52 53 50 50 49 51 52 53 53 53 53 53 53 54 53 54 53
52 57 58 59 59 60 60 60 59 59 59 59 60 60 60 60 60 60 59 58 56 54 53 53 52 51 50 52 52 49 48 47 50 52 53 53 53 53 53 54 54 53 54
50 57 58 59 59 59 59 58 58 57 56 58 60 59 60 59 58 58 58 57 54 53 52 53 52 51 51 51 52 49 50 49 47 47 50 52 53 53 53 53 53 53 53
53 56 58 59 58 58 59 58 58 57 57 59 60 59 59 59 58 57 57 56 53 52 51 51 52 51 51 51 51 48 48 48 49 47 46 48 51 52 52 53 53 53 53
56 57 58 58 57 57 58 58 57 57 57 58 59 59 58 59 58 58 57 55 54 51 50 50 51 52 52 52 51 49 47 45 45 45 45 47 48 49 51 52 53 53 53

GFSSE_sfc_30mbdewp_120.txt.gz
Dewpoint
55 63 70 69 69 70 70 71 71 72 71 71 71 72 72 72 72 72 71 71 70 69 69 69 69 69 68 68 69 69 69 68 68 67 67 67 67 66 66 65 64 63 66
53 62 69 69 68 70 71 71 71 72 71 71 71 71 71 71 71 71 71 71 70 69 69 69 69 68 68 68 69 68 68 68 68 67 67 67 66 65 65 65 64 65 66
54 62 67 68 68 70 71 70 71 72 72 71 71 71 71 71 71 71 71 70 69 69 69 68 68 68 67 69 68 68 68 67 67 66 64 60 63 65 66 66 66 66 65
58 61 64 68 68 69 71 70 70 71 72 71 70 71 71 71 71 70 70 69 68 68 68 68 68 68 68 68 68 68 67 66 65 64 58 60 61 65 65 65 65 65 65
59 61 63 68 68 68 70 70 69 70 71 71 70 71 71 71 71 70 69 68 67 67 68 67 68 68 68 68 67 67 65 64 63 61 54 57 60 64 64 64 64 64 63
58 59 66 68 68 68 70 70 69 69 71 71 71 71 71 70 69 65 65 65 66 66 66 67 67 68 68 67 66 65 64 62 61 53 54 61 60 63 64 64 64 64 64
59 61 67 68 68 69 70 70 69 69 70 71 71 70 70 68 66 63 66 65 65 64 66 67 68 67 67 66 65 64 63 61 55 53 55 59 62 62 62 62 63 63 62
61 65 67 68 68 68 70 70 69 68 68 70 70 70 69 67 66 66 65 65 65 64 67 67 67 66 65 65 64 63 62 61 55 53 52 60 61 60 60 60 60 61 61
64 66 66 67 68 68 69 70 69 68 68 69 70 69 68 66 66 65 65 66 65 65 66 66 66 65 65 64 62 62 61 60 53 51 51 59 61 59 58 58 59 59 58
66 66 66 68 68 68 67 69 69 68 67 68 69 68 66 66 65 66 66 65 64 65 65 66 66 65 64 62 61 60 59 58 52 52 50 57 59 58 57 57 57 58 57
63 65 66 67 68 68 67 68 69 69 68 68 68 66 66 64 64 63 62 63 65 65 65 66 65 64 62 61 60 59 58 52 52 51 52 59 58 57 56 56 56 56 55
60 63 66 67 67 68 68 68 68 68 67 67 67 66 63 62 63 61 61 64 65 64 66 65 64 63 61 60 59 58 54 53 51 50 54 59 58 57 57 56 56 56 56
56 60 64 66 67 67 67 67 68 68 67 65 65 66 64 62 63 61 59 63 63 64 64 64 63 61 59 55 55 55 54 54 51 50 56 58 57 57 56 56 55 54 55
52 57 62 65 66 66 66 67 67 68 68 67 65 65 64 63 61 60 59 59 61 63 63 63 62 59 55 53 55 55 55 52 51 50 55 57 57 57 56 56 55 55 55
50 55 59 64 66 66 66 67 67 67 67 67 67 66 65 63 61 61 62 61 63 63 62 60 59 56 56 58 56 56 55 53 51 49 52 57 57 57 55 56 54 53 53
44 48 55 60 64 66 66 66 66 66 66 67 67 66 66 64 63 62 61 63 62 62 61 59 57 55 56 57 57 56 55 52 51 51 52 55 56 56 56 55 55 53 53
30 31 47 53 61 64 65 65 65 65 65 66 66 66 66 65 63 62 62 62 63 63 61 60 58 55 55 56 56 56 54 51 50 52 51 52 54 56 57 57 54 54 54
27 29 36 45 54 61 63 65 65 64 64 65 64 65 65 65 64 63 62 62 62 63 61 59 56 55 55 56 55 54 52 51 52 51 50 50 50 51 55 56 55 54 55
29 31 35 41 51 58 62 63 64 63 63 63 64 64 65 64 63 62 62 62 63 61 60 58 57 55 55 54 54 53 51 51 53 50 50 50 50 49 50 55 55 55 55
37 37 38 40 48 57 61 63 63 62 61 62 63 62 62 63 63 62 62 61 62 60 59 58 56 54 54 53 52 52 52 52 52 52 51 50 50 50 49 52 53 53 55
45 45 48 49 53 58 61 62 61 60 59 60 61 61 61 62 63 62 62 61 60 59 58 58 56 54 52 53 53 52 52 53 53 52 52 50 49 50 50 50 50 49 52
48 51 52 53 56 58 60 61 60 60 60 60 60 60 60 60 62 62 61 61 60 59 58 57 55 53 51 53 51 51 50 52 52 53 52 50 50 50 50 51 50 49 48
47 52 53 53 57 58 58 60 60 60 60 59 59 60 60 60 60 61 61 61 59 58 57 56 55 54 52 53 52 48 47 47 50 52 52 51 52 51 50 51 52 52 52
50 55 54 55 57 59 59 59 59 59 58 58 59 61 61 61 61 61 60 60 59 58 57 56 55 54 53 52 51 48 47 45 47 49 51 52 52 52 52 52 52 53 53
49 55 56 56 58 58 60 60 59 58 57 58 59 60 60 60 60 60 60 59 59 58 57 56 55 55 54 53 52 50 49 50 48 45 46 49 51 52 52 53 53 53 53
46 53 57 57 58 59 60 60 59 58 57 58 60 59 59 59 58 59 58 57 57 57 56 56 55 55 54 54 52 51 50 48 47 46 43 47 48 50 51 52 53 53 53